[[{"header":{"parameterUnit":"m.s-1","parameterCategory":1,"la1":30.6,"la2":29.2853,"lo1":-89.7004,"lo2":-87.6739,"dy":0.0162,"dx":0.0183,"nx":112,"ny":82,"refTime":"2024-06-10T18:00:00:Z","depth":0,"parameterNumber":2,"parameterNumberName":"U-component_of_WINDS"},"data":[0.0,0.0,0.0,0.0,0.0,0.0,0.0,0.0,0.0,0.0,0.0,0.0,0.0,0.0,0.0,0.0,0.0,0.0,0.0,0.0,0.0,0.0,0.0,0.0,0.0,0.0,0.0,0.0,0.0,0.0,0.0,0.0,0.0,0.0,0.0,0.0,0.0,0.0,0.0,0.0,0.0,0.0,0.0,0.0,0.0,0.0,0.0,0.0,0.0,0.0,0.0,0.0,0.0,0.0,0.0,0.0,0.0,0.0,0.0,0.0,0.0,0.0,0.0,0.0,0.0,0.0,0.0,0.0,0.0,0.0,0.0,0.0,0.0,0.0,0.0,0.0,0.0,0.0,0.0,0.0,0.0,0.0,0.0,0.0,0.0,0.0,0.0,0.0,0.0,0.0,-4.2686,-4.7784,-5.1813,-5.3641,-5.2422,-5.1083,-4.8577,-4.4413,0.0,0.0,0.0,0.0,0.0,0.0,0.0,0.0,0.0,0.0,0.0,0.0,0.0,0.0,0.0,0.0,0.0,0.0,0.0,0.0,0.0,0.0,0.0,0.0,0.0,0.0,0.0,0.0,0.0,0.0,0.0,0.0,0.0,0.0,0.0,0.0,0.0,0.0,0.0,0.0,0.0,0.0,0.0,0.0,0.0,0.0,0.0,0.0,0.0,0.0,0.0,0.0,0.0,0.0,0.0,0.0,0.0,0.0,0.0,0.0,0.0,0.0,0.0,0.0,0.0,0.0,0.0,0.0,0.0,0.0,0.0,0.0,0.0,0.0,0.0,0.0,0.0,0.0,0.0,0.0,0.0,0.0,0.0,0.0,0.0,0.0,0.0,0.0,0.0,0.0,0.0,0.0,0.0,0.0,0.0,0.0,0.0,0.0,0.0,0.0,0.0,0.0,0.0,0.0,-4.1557,-4.8156,-5.0974,-5.2016,-5.1154,-4.9355,-4.6869,-4.3653,0.0,0.0,0.0,0.0,0.0,0.0,0.0,0.0,0.0,0.0,0.0,0.0,0.0,0.0,0.0,0.0,0.0,0.0,0.0,0.0,0.0,0.0,0.0,0.0,0.0,0.0,0.0,0.0,0.0,0.0,0.0,0.0,0.0,0.0,0.0,0.0,0.0,0.0,0.0,0.0,0.0,0.0,0.0,0.0,0.0,0.0,0.0,0.0,0.0,0.0,0.0,0.0,0.0,0.0,0.0,0.0,0.0,0.0,0.0,0.0,0.0,0.0,0.0,0.0,0.0,0.0,0.0,0.0,0.0,0.0,0.0,0.0,0.0,0.0,0.0,0.0,0.0,0.0,0.0,0.0,0.0,0.0,0.0,0.0,0.0,0.0,0.0,0.0,0.0,0.0,0.0,0.0,0.0,0.0,0.0,0.0,0.0,0.0,0.0,0.0,0.0,0.0,0.0,-4.1001,-4.3858,-4.8808,-5.0544,-5.1108,-5.0467,-4.857,-4.6243,-4.3454,-4.0061,0.0,0.0,0.0,0.0,0.0,0.0,0.0,0.0,0.0,0.0,0.0,0.0,0.0,0.0,0.0,0.0,0.0,0.0,0.0,0.0,0.0,0.0,0.0,0.0,0.0,0.0,0.0,0.0,0.0,0.0,0.0,0.0,0.0,0.0,0.0,0.0,0.0,0.0,0.0,0.0,0.0,0.0,0.0,0.0,0.0,0.0,0.0,0.0,0.0,0.0,0.0,0.0,0.0,0.0,0.0,0.0,0.0,0.0,0.0,0.0,0.0,0.0,0.0,0.0,0.0,0.0,0.0,0.0,0.0,0.0,0.0,0.0,0.0,0.0,0.0,0.0,0.0,0.0,0.0,0.0,0.0,0.0,0.0,0.0,0.0,0.0,0.0,0.0,0.0,0.0,0.0,0.0,0.0,0.0,0.0,0.0,0.0,0.0,0.0,0.0,0.0,0.0,-4.4011,-4.6104,-4.8967,-4.9848,-5.0078,-4.9711,-4.7555,-4.5244,-4.294,-3.8484,0.0,0.0,0.0,0.0,0.0,0.0,0.0,0.0,0.0,0.0,0.0,0.0,0.0,0.0,0.0,0.0,0.0,0.0,0.0,0.0,0.0,0.0,0.0,0.0,0.0,0.0,0.0,0.0,0.0,0.0,0.0,0.0,0.0,0.0,0.0,0.0,0.0,0.0,0.0,0.0,0.0,0.0,0.0,0.0,0.0,0.0,0.0,0.0,0.0,0.0,0.0,0.0,0.0,0.0,0.0,0.0,0.0,0.0,0.0,0.0,0.0,0.0,0.0,0.0,0.0,0.0,0.0,0.0,0.0,0.0,0.0,0.0,0.0,0.0,0.0,0.0,0.0,0.0,0.0,0.0,0.0,0.0,0.0,0.0,0.0,0.0,0.0,0.0,0.0,0.0,0.0,0.0,0.0,0.0,0.0,0.0,0.0,0.0,0.0,0.0,0.0,0.0,-4.3461,-4.6471,-4.8196,-4.8453,-4.8453,-4.8418,-4.5534,-4.3054,-4.1376,-3.6691,0.0,0.0,0.0,0.0,0.0,0.0,0.0,0.0,0.0,0.0,0.0,0.0,0.0,0.0,0.0,0.0,0.0,0.0,0.0,0.0,0.0,0.0,0.0,0.0,0.0,0.0,0.0,0.0,0.0,0.0,0.0,0.0,0.0,0.0,0.0,0.0,0.0,0.0,0.0,0.0,0.0,0.0,0.0,0.0,0.0,0.0,0.0,0.0,0.0,0.0,0.0,0.0,0.0,0.0,0.0,0.0,0.0,0.0,0.0,0.0,0.0,0.0,0.0,0.0,0.0,0.0,0.0,0.0,0.0,0.0,0.0,0.0,0.0,0.0,0.0,0.0,0.0,0.0,0.0,0.0,0.0,0.0,0.0,0.0,0.0,0.0,0.0,0.0,0.0,0.0,0.0,0.0,0.0,0.0,0.0,0.0,0.0,0.0,0.0,0.0,0.0,0.0,-4.2213,-4.5223,0.0,-4.8012,-4.8122,-4.759,-4.5993,-4.3461,-3.9827,0.0,0.0,0.0,0.0,0.0,0.0,0.0,0.0,0.0,0.0,0.0,0.0,0.0,0.0,0.0,0.0,0.0,0.0,0.0,0.0,0.0,0.0,0.0,0.0,0.0,0.0,0.0,0.0,0.0,0.0,0.0,0.0,0.0,0.0,0.0,0.0,0.0,0.0,0.0,0.0,0.0,0.0,0.0,0.0,0.0,0.0,0.0,0.0,0.0,0.0,0.0,0.0,0.0,0.0,0.0,0.0,0.0,0.0,0.0,0.0,0.0,0.0,0.0,0.0,0.0,0.0,0.0,0.0,0.0,0.0,0.0,0.0,0.0,0.0,0.0,0.0,0.0,0.0,0.0,0.0,0.0,0.0,0.0,0.0,0.0,0.0,0.0,0.0,0.0,0.0,0.0,0.0,0.0,0.0,0.0,0.0,0.0,0.0,0.0,0.0,0.0,0.0,-3.7881,-4.1809,-4.5002,0.0,-4.781,-4.7957,-4.7186,-4.5883,-4.3314,-3.8982,0.0,0.0,0.0,0.0,0.0,0.0,0.0,0.0,0.0,0.0,0.0,0.0,0.0,0.0,0.0,0.0,0.0,0.0,0.0,0.0,0.0,0.0,0.0,0.0,0.0,0.0,0.0,0.0,0.0,0.0,0.0,0.0,0.0,0.0,0.0,0.0,0.0,0.0,0.0,0.0,0.0,0.0,0.0,0.0,0.0,0.0,0.0,0.0,0.0,0.0,0.0,0.0,0.0,0.0,0.0,0.0,0.0,0.0,0.0,0.0,0.0,0.0,0.0,0.0,0.0,0.0,0.0,0.0,0.0,0.0,0.0,0.0,0.0,0.0,0.0,0.0,0.0,0.0,0.0,0.0,0.0,0.0,0.0,0.0,0.0,0.0,0.0,0.0,0.0,0.0,0.0,0.0,0.0,0.0,0.0,0.0,0.0,0.0,0.0,0.0,0.0,0.0,-3.7272,-4.2396,-4.6214,-4.7003,-4.781,-4.7957,-4.7149,-4.4892,-4.2139,0.0,0.0,0.0,0.0,0.0,0.0,0.0,0.0,0.0,0.0,0.0,0.0,0.0,0.0,0.0,0.0,0.0,0.0,0.0,0.0,0.0,0.0,0.0,0.0,0.0,0.0,0.0,0.0,0.0,0.0,0.0,0.0,0.0,0.0,0.0,0.0,0.0,0.0,0.0,0.0,0.0,0.0,0.0,0.0,0.0,0.0,0.0,0.0,0.0,0.0,0.0,0.0,0.0,0.0,0.0,0.0,0.0,0.0,0.0,0.0,0.0,0.0,0.0,0.0,0.0,0.0,0.0,0.0,0.0,0.0,0.0,0.0,0.0,0.0,0.0,0.0,0.0,0.0,0.0,0.0,0.0,0.0,0.0,0.0,0.0,0.0,0.0,0.0,0.0,0.0,0.0,0.0,0.0,0.0,0.0,0.0,0.0,0.0,0.0,0.0,0.0,0.0,0.0,-3.6464,-4.2066,-4.5993,-4.625,-4.6966,-4.7113,-4.6324,-4.5076,-4.2249,-3.7331,0.0,0.0,0.0,0.0,0.0,0.0,0.0,0.0,0.0,0.0,0.0,0.0,0.0,0.0,0.0,0.0,0.0,0.0,0.0,0.0,0.0,0.0,0.0,0.0,0.0,0.0,0.0,0.0,0.0,0.0,0.0,0.0,0.0,0.0,0.0,0.0,0.0,0.0,0.0,0.0,0.0,0.0,0.0,0.0,0.0,0.0,0.0,0.0,0.0,0.0,0.0,0.0,0.0,0.0,0.0,0.0,0.0,0.0,0.0,0.0,0.0,0.0,0.0,0.0,0.0,0.0,0.0,0.0,0.0,0.0,0.0,0.0,0.0,0.0,0.0,0.0,0.0,0.0,0.0,0.0,0.0,0.0,0.0,0.0,0.0,0.0,0.0,0.0,0.0,0.0,0.0,0.0,0.0,0.0,0.0,0.0,0.0,0.0,0.0,0.0,0.0,0.0,-3.6083,-4.1919,-4.5883,-4.5883,-4.6599,-4.6746,-4.5957,-4.5149,-4.2433,-3.7125,0.0,0.0,0.0,0.0,0.0,0.0,0.0,0.0,0.0,0.0,0.0,0.0,0.0,0.0,0.0,0.0,0.0,0.0,0.0,0.0,0.0,0.0,0.0,0.0,0.0,0.0,0.0,0.0,0.0,0.0,0.0,0.0,0.0,0.0,0.0,0.0,0.0,0.0,0.0,0.0,0.0,0.0,0.0,0.0,0.0,0.0,0.0,0.0,0.0,0.0,0.0,0.0,0.0,0.0,0.0,0.0,0.0,0.0,0.0,0.0,0.0,0.0,0.0,0.0,0.0,0.0,0.0,0.0,0.0,0.0,0.0,0.0,0.0,0.0,0.0,0.0,0.0,0.0,0.0,0.0,0.0,0.0,0.0,0.0,0.0,0.0,0.0,0.0,0.0,0.0,0.0,0.0,0.0,0.0,0.0,0.0,0.0,0.0,0.0,0.0,0.0,0.0,-3.6193,-4.1882,-4.5773,-4.5773,-4.6434,-4.6562,-4.5847,-4.5039,-4.2616,-3.8006,0.0,0.0,0.0,0.0,0.0,0.0,0.0,0.0,0.0,0.0,0.0,0.0,0.0,0.0,0.0,0.0,0.0,0.0,0.0,0.0,0.0,0.0,0.0,0.0,0.0,0.0,0.0,0.0,0.0,0.0,0.0,0.0,0.0,0.0,0.0,0.0,0.0,0.0,0.0,0.0,0.0,0.0,0.0,0.0,0.0,0.0,0.0,0.0,0.0,0.0,0.0,0.0,0.0,0.0,0.0,0.0,0.0,0.0,0.0,0.0,-3.2467,0.0,0.0,0.0,0.0,0.0,0.0,0.0,0.0,0.0,0.0,0.0,0.0,0.0,0.0,0.0,0.0,0.0,0.0,0.0,0.0,0.0,0.0,0.0,0.0,0.0,0.0,0.0,0.0,0.0,0.0,0.0,0.0,0.0,0.0,0.0,0.0,0.0,0.0,0.0,0.0,0.0,-3.7015,-4.1772,-4.4966,-4.4966,-4.5095,-4.5131,-4.4966,-4.4232,-4.2506,-3.957,-3.7257,0.0,0.0,0.0,0.0,0.0,0.0,0.0,0.0,0.0,0.0,0.0,0.0,0.0,0.0,0.0,0.0,0.0,0.0,0.0,0.0,0.0,0.0,0.0,0.0,0.0,0.0,0.0,0.0,0.0,0.0,0.0,0.0,0.0,0.0,0.0,0.0,0.0,0.0,0.0,0.0,0.0,0.0,0.0,0.0,0.0,0.0,0.0,0.0,0.0,0.0,0.0,0.0,0.0,0.0,0.0,0.0,0.0,0.0,0.0,0.0,-3.4482,0.0,0.0,0.0,0.0,0.0,0.0,0.0,0.0,0.0,0.0,0.0,0.0,0.0,0.0,0.0,0.0,0.0,0.0,0.0,0.0,0.0,0.0,0.0,0.0,0.0,0.0,0.0,0.0,0.0,0.0,0.0,0.0,0.0,0.0,0.0,0.0,0.0,0.0,0.0,0.0,-3.6848,-4.1071,-4.3985,-4.427,-4.4325,-4.4418,-4.4673,-4.3975,-4.2616,-4.0598,-3.8946,0.0,0.0,0.0,0.0,0.0,0.0,0.0,0.0,0.0,0.0,0.0,0.0,0.0,0.0,0.0,0.0,0.0,0.0,0.0,0.0,0.0,0.0,0.0,0.0,0.0,0.0,0.0,0.0,0.0,0.0,0.0,0.0,0.0,0.0,0.0,0.0,0.0,0.0,0.0,0.0,0.0,0.0,0.0,0.0,0.0,0.0,0.0,0.0,0.0,0.0,0.0,0.0,0.0,-3.8751,-3.8841,-3.926,-3.926,-3.926,-3.9182,-3.796,-3.7218,-3.6786,-3.5975,0.0,0.0,0.0,0.0,0.0,0.0,0.0,0.0,0.0,0.0,0.0,0.0,0.0,0.0,0.0,0.0,0.0,0.0,0.0,0.0,0.0,0.0,0.0,0.0,-3.8227,-3.7618,0.0,0.0,0.0,0.0,0.0,0.0,0.0,0.0,0.0,0.0,0.0,0.0,-3.686,-4.0439,-4.2981,-4.3472,-4.3512,-4.3727,-4.4163,-4.3579,-4.263,-4.1299,-4.035,-3.8599,0.0,0.0,0.0,0.0,0.0,0.0,0.0,0.0,0.0,0.0,0.0,0.0,0.0,0.0,0.0,0.0,0.0,0.0,0.0,0.0,0.0,0.0,0.0,0.0,0.0,0.0,0.0,0.0,0.0,0.0,0.0,0.0,-3.172,-3.1421,0.0,0.0,0.0,0.0,0.0,0.0,0.0,0.0,0.0,0.0,0.0,0.0,0.0,-3.9499,-4.0726,-4.1953,-4.2312,-4.1901,-4.291,-4.315,-4.2632,-4.2632,-4.2632,-4.2641,-4.1912,0.0,-3.8143,-3.6817,0.0,0.0,0.0,0.0,0.0,0.0,0.0,0.0,0.0,0.0,0.0,0.0,0.0,0.0,0.0,0.0,0.0,0.0,0.0,0.0,0.0,0.0,-4.0663,-4.1407,-4.1644,-4.1373,0.0,-3.6806,-3.3592,-3.2022,-3.123,0.0,0.0,0.0,0.0,0.0,0.0,0.0,-3.873,-4.0748,-4.1995,-4.2058,-4.2058,-4.21,-4.2163,-4.2113,-4.1914,-4.1736,-4.0308,-3.9274,-3.8828,-3.535,0.0,0.0,0.0,0.0,0.0,0.0,0.0,0.0,0.0,0.0,0.0,0.0,0.0,0.0,0.0,0.0,0.0,0.0,0.0,0.0,0.0,0.0,0.0,0.0,0.0,0.0,0.0,0.0,0.0,-3.2078,-3.3933,-3.3275,-3.4352,-3.4382,0.0,0.0,0.0,0.0,0.0,0.0,0.0,0.0,0.0,-4.0995,-4.1444,-4.2073,-4.303,-4.3958,-4.4287,-4.4058,-4.4586,-4.4706,-4.4436,-4.4436,-4.4436,-4.4407,-4.4137,-4.2956,-4.1061,-3.9351,-3.7797,-3.6475,0.0,0.0,0.0,0.0,-3.5435,-3.5187,-3.5998,-3.5812,-3.4974,-3.3737,0.0,0.0,0.0,0.0,0.0,0.0,0.0,0.0,0.0,0.0,-4.1508,-4.2658,-4.2591,-4.232,-4.2422,-4.0561,-3.8193,0.0,-3.4844,-3.3622,-3.1404,0.0,0.0,0.0,0.0,-3.7213,-3.8719,-4.003,-4.0943,-4.1251,-4.1273,-4.1407,-4.1789,-4.181,-4.181,-4.181,-4.1152,-4.0565,-4.01,-3.7941,-3.57,0.0,0.0,0.0,0.0,0.0,0.0,0.0,0.0,0.0,0.0,0.0,0.0,0.0,0.0,0.0,0.0,0.0,0.0,0.0,0.0,0.0,0.0,0.0,0.0,0.0,0.0,0.0,0.0,-3.4017,-3.5938,-3.5132,-3.681,-3.7015,0.0,0.0,0.0,0.0,0.0,0.0,-4.03,-4.0905,-4.1833,-4.3369,-4.3838,-4.4366,-4.5065,-4.5574,-4.5813,-4.5813,-4.5813,-4.5813,-4.5813,-4.5813,-4.5813,-4.5813,-4.5633,-4.5005,-4.3898,-4.1771,-3.9819,-3.8162,-3.8013,-3.7367,-3.6633,-3.7656,-3.7699,-3.7391,-3.8251,-3.819,-3.7451,-3.5889,-3.5248,-3.4783,-3.3216,0.0,0.0,0.0,0.0,-3.7959,-3.9982,-4.0951,-4.1843,-4.3348,-4.3301,-4.3031,-4.3606,-4.3098,-4.188,0.0,-3.8261,-3.6897,-3.4426,0.0,0.0,0.0,0.0,-3.782,-3.8757,-3.9589,-4.0254,-4.0672,-4.0685,-4.0874,-4.1331,-4.1375,-4.1375,-4.1375,-4.1375,-4.1108,-4.0504,-3.9713,-3.793,-3.5047,0.0,0.0,0.0,0.0,0.0,0.0,0.0,0.0,0.0,0.0,0.0,0.0,0.0,0.0,0.0,0.0,0.0,0.0,0.0,0.0,0.0,0.0,0.0,0.0,0.0,0.0,0.0,0.0,0.0,-3.6537,-3.9775,0.0,0.0,0.0,0.0,-3.926,-4.0427,-4.1743,-4.3021,-4.321,-4.4137,-4.601,-4.61,-4.6501,-4.716,-4.7189,-4.7189,-4.7189,-4.7189,-4.7189,-4.7189,-4.7189,-4.7189,-4.716,-4.6561,-4.619,-4.5963,-4.3379,-4.1482,-4.0187,-3.9565,-3.923,-3.923,-3.9296,-3.9296,-3.9176,-3.8612,-3.8372,-3.8342,-3.8252,-3.7758,-3.7214,-3.7186,-3.7183,0.0,0.0,-3.8984,-4.0021,-4.1668,-4.2133,-4.2535,-4.4176,-4.4513,-4.4513,-4.4547,-4.391,-4.3071,0.0,-4.0933,-3.9656,-3.8802,0.0,-3.6886,-3.754,-3.7777,-3.8386,-3.9833,-4.007,-4.0113,-4.0163,-4.0129,-4.0129,-4.0179,-4.0179,-4.0179,-4.0179,-4.0179,-4.0179,-4.0145,-3.9408,-3.8103,-3.6159,-3.3884,0.0,0.0,0.0,0.0,0.0,0.0,0.0,0.0,0.0,0.0,0.0,0.0,0.0,0.0,0.0,0.0,0.0,0.0,0.0,0.0,0.0,0.0,0.0,0.0,0.0,0.0,0.0,0.0,-3.905,-4.1354,0.0,-3.9858,-4.1123,-4.1983,-4.1914,-4.315,-4.4287,-4.5173,-4.5663,-4.6232,-4.692,-4.695,-4.707,-4.7309,-4.7309,-4.7309,-4.7309,-4.7309,-4.7309,-4.7309,-4.7309,-4.7309,-4.7309,-4.707,-4.6711,-4.6219,-4.5304,-4.3868,-4.2183,-4.1564,-4.1055,-4.0696,-4.0696,-4.0696,-4.0636,-4.0397,-4.0307,-4.0187,-3.932,-3.8327,-3.7416,-3.7449,-3.7436,-3.7571,-3.8277,-3.9077,-4.0102,-4.1658,-4.2502,-4.3201,-4.4316,-4.4615,-4.4615,-4.4615,-4.435,-4.4079,-4.3836,-4.2557,-4.0967,-3.9276,-3.9343,-3.9242,-3.8091,-3.87,-3.9537,-4.0045,-4.0113,-4.0113,-4.0113,-4.0113,-4.0113,-4.0113,-4.0113,-3.991,-3.9436,-3.9402,-3.9174,-3.87,-3.843,-3.7757,-3.6616,-3.4823,-3.2383,0.0,0.0,0.0,0.0,0.0,0.0,0.0,0.0,0.0,0.0,0.0,0.0,0.0,0.0,0.0,0.0,0.0,0.0,0.0,0.0,0.0,0.0,0.0,0.0,0.0,0.0,-4.0846,-4.1047,-4.321,-4.3988,-4.2222,-4.324,-4.4107,-4.4276,-4.5364,-4.6172,-4.6621,-4.707,-4.7309,-4.7309,-4.7309,-4.7309,-4.7309,-4.7309,-4.7309,-4.7309,-4.7309,-4.7309,-4.7309,-4.7309,-4.7309,-4.7309,-4.7309,-4.707,-4.6651,-4.6369,-4.5502,-4.4216,-4.3359,-4.2761,-4.2342,-4.2132,-4.2043,-4.2013,-4.1841,-4.1602,-4.1235,-4.0367,-3.932,-3.8422,-3.8422,-3.8272,-3.8182,-3.8601,-3.9148,-3.9964,-4.1596,-4.2426,-4.3169,-4.4327,-4.4615,-4.4615,-4.4615,-4.4615,-4.4615,-4.4615,-4.3538,-4.2219,-4.073,-4.1102,-4.1001,-3.9276,-3.9851,-4.0383,-4.0146,-4.0113,-4.0113,-4.0113,-4.0113,-4.0113,-4.0113,-4.0113,-3.991,-3.9377,-3.914,-3.8768,-3.8294,-3.7787,-3.728,-3.6829,-3.5047,-3.3186,-3.1224,0.0,0.0,0.0,0.0,0.0,0.0,0.0,0.0,0.0,0.0,0.0,0.0,0.0,0.0,0.0,0.0,0.0,0.0,0.0,0.0,0.0,0.0,0.0,-3.6441,-3.9536,-4.1855,-4.2395,-4.5334,-4.6292,-4.3678,-4.5783,-4.704,-4.6411,-4.695,-4.7339,-4.7339,-4.7369,-4.7369,-4.7369,-4.7339,-4.7339,-4.7339,-4.7309,-4.7309,-4.7309,-4.7309,-4.7309,-4.7309,-4.7309,-4.7309,-4.7309,-4.7309,-4.7309,-4.7249,-4.6621,-4.6309,-4.619,-4.4855,-4.4317,-4.4227,-4.3559,-4.3319,-4.32,-4.265,-4.1991,-4.1452,-4.1452,-4.0965,-4.0427,-4.0397,-3.9948,-3.9439,-3.9439,-3.9373,-3.9809,-4.1495,-4.1949,-4.2458,-4.415,-4.4587,-4.4615,-4.4615,-4.4615,-4.4615,-4.4615,-4.3978,-4.3409,-4.3375,-4.2828,-4.2083,-4.1339,-4.1238,0.0,-4.0282,-4.0146,-4.0146,-4.0146,-4.0113,-4.0113,-4.0113,-4.0113,-4.0079,-4.0079,-3.9368,-3.8971,-3.8971,-3.7574,-3.6829,-3.6829,-3.4607,-3.3457,-3.3423,0.0,0.0,0.0,0.0,0.0,0.0,0.0,0.0,0.0,0.0,0.0,0.0,0.0,0.0,0.0,0.0,0.0,0.0,0.0,0.0,0.0,-3.3655,-3.5697,-3.6957,-4.0475,-4.3142,-4.379,-4.5898,-4.701,-4.6292,-4.689,-4.7219,-4.704,-4.7638,-4.8027,-4.8027,-4.8476,-4.876,-4.876,-4.8267,-4.8027,-4.8027,-4.7549,-4.7309,-4.7309,-4.7309,-4.7309,-4.7309,-4.7309,-4.7309,-4.7309,-4.7309,-4.7309,-4.7309,-4.71,-4.704,-4.689,-4.5544,-4.4736,-4.4287,-4.4107,-4.3708,-4.326,-4.312,-4.2641,-4.2141,-4.2141,-4.1692,-4.1025,-4.0546,-4.0277,-4.0038,-3.9559,-3.9373,-3.9631,-4.0758,-4.1528,-4.23,-4.338,-4.4121,-4.4615,-4.4615,-4.4615,-4.4615,-4.4615,-4.4445,-4.4079,-4.3477,-4.3234,-4.2861,-4.2117,-4.1982,0.0,-4.1711,-4.1238,-4.0899,-4.0899,-4.0417,-4.0113,-4.0113,-4.0113,-3.9876,-3.9334,-3.8599,-3.8193,-3.8193,-3.728,-3.7066,-3.7584,-3.5893,-3.4721,0.0,0.0,0.0,0.0,0.0,0.0,0.0,0.0,0.0,0.0,0.0,0.0,0.0,0.0,0.0,0.0,0.0,0.0,0.0,0.0,0.0,0.0,-3.5429,-3.6871,-3.783,-4.0923,-4.3515,-4.4665,-4.627,-4.7429,-4.7698,-4.7728,-4.7848,-4.8117,-4.8476,-4.8686,-4.8686,-4.912,-4.9299,-4.9299,-4.894,-4.8566,-4.8297,-4.7908,-4.7578,-4.7309,-4.7309,-4.7309,-4.7309,-4.7309,-4.7309,-4.7309,-4.7309,-4.7309,-4.7309,-4.7309,-4.7309,0.0,0.0,0.0,0.0,0.0,-4.3898,-4.329,-4.329,-4.309,-4.2761,-4.2761,-4.2312,-4.1722,-4.0995,-4.0606,-4.0277,-3.9619,-3.9373,-3.9625,-4.0451,-4.1095,-4.1658,-4.2552,-4.341,-4.4064,-4.4064,-4.4355,-4.4615,-4.4615,-4.4615,0.0,-4.3978,-4.391,-4.3639,-4.2895,-4.276,-4.2658,-4.232,-4.1644,-4.1204,-4.1204,-4.0527,-4.0113,-4.0113,-4.0113,0.0,0.0,0.0,-3.8091,-3.7449,-3.7313,0.0,0.0,0.0,0.0,0.0,0.0,0.0,0.0,-3.5487,-3.5419,0.0,0.0,0.0,0.0,0.0,0.0,0.0,0.0,0.0,0.0,0.0,0.0,0.0,0.0,0.0,0.0,-3.7387,-3.8316,-3.8894,-4.1068,-4.3222,-4.5012,-4.6299,-4.7418,-4.8207,-4.8297,-4.8566,-4.9269,-4.9389,-4.9419,-4.9419,0.0,0.0,0.0,0.0,-4.9149,-4.8506,-4.8356,-4.7997,-4.7429,-4.7339,-4.7309,-4.7309,-4.7309,-4.7309,-4.7309,-4.7309,-4.7309,-4.7309,-4.7309,-4.7309,-4.7249,-4.6591,-4.6279,-4.613,-4.4796,-4.3917,-4.3379,-4.3319,0.0,0.0,-4.329,-4.294,-4.2381,-4.1722,-4.1025,-4.0367,-3.9709,-3.9433,-3.9589,-4.0343,-4.0622,-4.0894,-4.1658,-4.252,-4.3139,-4.3139,-4.386,-4.444,-4.444,-4.4525,-4.4615,-4.4615,-4.4615,-4.435,-4.3639,-4.3511,-4.3301,-4.2625,-4.1914,-4.1441,-4.1339,0.0,0.0,-4.0113,-4.0113,-4.0113,-4.0113,-3.9503,-3.8522,-3.71,-3.7753,-3.8159,-3.8159,-3.8802,-3.9469,-4.0113,-4.0113,-4.0146,-4.0146,-3.6728,-3.6265,0.0,0.0,0.0,0.0,0.0,0.0,0.0,0.0,0.0,0.0,0.0,0.0,0.0,0.0,0.0,-3.6885,-3.7965,-3.8894,-3.9446,-4.0863,-4.2312,-4.3712,-4.4978,-4.64,-4.8118,-4.8297,-4.8566,-4.9269,-4.9763,-5.0016,-5.0016,-5.0541,-5.084,-5.084,-5.0331,-4.9956,-4.9807,-4.8805,-4.8207,-4.8087,0.0,0.0,-4.7309,-4.7309,-4.7309,-4.7309,-4.7309,-4.7309,-4.7309,-4.7309,-4.7309,-4.7249,-4.6591,-4.6279,-4.613,-4.4796,-4.4227,-4.4047,-4.3469,-4.329,-4.329,-4.329,-4.32,-4.303,-4.241,-4.1752,0.0,-4.0397,-3.9828,-3.9445,-3.9625,-4.017,-4.0758,-4.0927,-4.1593,-4.2269,-4.2269,-4.2956,-4.3562,-4.3562,-4.4121,-4.4615,-4.4615,-4.4615,-4.4547,-4.4384,-4.4378,-4.4344,-4.4175,-4.347,-4.276,-4.2151,-4.1441,-4.073,-4.0146,-4.0113,-4.0113,-4.0113,-3.9977,-3.9503,-3.8599,-3.9276,-3.9673,-3.9673,-3.9808,-3.9977,-4.0113,-4.0113,-4.0417,-4.0967,-3.9639,-3.9546,0.0,0.0,0.0,0.0,0.0,0.0,0.0,0.0,0.0,0.0,0.0,-3.4474,0.0,0.0,-3.7538,-3.8668,-3.932,-3.9798,-4.0074,-4.0644,-4.1432,-4.2452,-4.4256,-4.6065,-4.7695,-4.8432,-4.9194,-5.0182,-5.0541,-5.0674,-5.0674,-5.105,-5.1229,-5.1229,-5.09,-5.0524,-5.0196,-4.9254,-4.8626,-4.8267,-4.7608,-4.7309,-4.7309,-4.7309,-4.7309,-4.7309,-4.7309,-4.7309,-4.7309,-4.7309,-4.7309,-4.7279,-4.695,-4.6621,-4.6202,-4.5185,-4.4586,-4.4227,-4.3529,-4.329,-4.329,-4.329,-4.329,-4.317,-4.259,-4.1931,-4.1235,-4.0576,-3.9918,-3.9373,-3.9373,-3.9737,-4.006,-4.006,-4.0724,-4.133,-4.133,-4.2013,-4.2645,-4.2645,-4.335,-4.3948,-4.3948,-4.4327,-4.4615,-4.4615,-4.4615,-4.4615,-4.4615,-4.391,-4.3132,-4.2388,-4.1644,-4.0899,-4.018,-4.0113,-4.0113,-4.0113,-4.0113,-3.9943,-3.9571,-3.991,-4.0113,-4.0113,-4.0113,-4.0113,-4.0113,-4.046,-4.0832,-4.1204,-4.1204,-4.1407,0.0,0.0,0.0,0.0,0.0,0.0,0.0,-3.2164,-3.3219,-3.3897,-3.5177,-3.6458,-3.7337,-3.804,-3.8944,-4.03,-4.0601,-4.0651,-4.0526,-4.0526,-4.0692,-4.1198,-4.3504,-4.5556,-4.6862,-4.8374,-4.9702,-5.0751,-5.1058,-5.1229,-5.1229,-5.1229,-5.1229,-5.1229,-5.1229,-5.096,-5.0375,-4.9793,-4.9134,-4.8476,-4.7818,-4.7429,-4.7309,-4.7309,-4.7309,-4.7309,-4.7309,-4.7309,-4.7309,-4.7309,-4.7309,-4.7309,-4.7309,-4.698,-4.6441,-4.5753,-4.5065,-4.4407,-4.3708,-4.3409,-4.329,-4.329,-4.329,-4.32,-4.2701,-4.2141,-4.1482,-4.0786,-4.0127,-3.9589,-3.9403,-3.9373,-3.9373,-3.9373,-3.992,-4.0447,-4.0447,-4.1129,-4.1723,-4.1723,-4.2458,-4.3047,-4.3047,-4.3768,-4.4412,-4.4587,-4.4615,-4.4615,-4.4615,-4.4045,-4.3369,-4.2591,-4.1847,-4.1068,-4.018,-4.0113,-4.0113,-4.0113,-4.0113,-4.0113,-4.0113,-4.0113,-4.0113,-4.0113,-4.0248,-4.0316,-4.0316,-4.1035,-4.1508,-4.1644,-4.2252,-4.2523,-2.8674,-2.9126,-2.9955,-3.1461,-3.1938,-3.2792,0.0,-3.6153,-3.6229,-3.7236,-3.8015,-3.8542,-3.8718,-3.9546,-4.03,-4.0475,-4.0874,-4.1025,-4.0576,-4.0526,-4.0352,-3.9954,-4.2181,-4.4165,-4.5434,-4.7835,-4.9351,-4.9417,-5.0555,-5.1229,-5.1229,-5.1229,-5.1229,-5.1229,-5.1229,-5.1169,-5.1109,-5.0405,-4.9793,-4.9179,-4.8506,-4.7878,-4.7309,-4.7309,-4.7309,-4.7309,-4.7309,-4.7309,-4.7309,-4.7309,-4.7309,-4.7309,-4.7309,-4.7249,-4.713,-4.6441,-4.5783,-4.5095,-4.4436,-4.3798,-4.329,-4.329,-4.329,-4.329,-4.32,-4.2761,-4.2141,-4.1482,-4.0786,-4.0157,-3.9559,-3.9373,-3.9373,-3.9373,-3.9481,-3.9553,-3.9553,-4.0239,-4.086,-4.086,-4.1528,-4.2173,-4.2173,-4.2862,-4.371,-4.4468,-4.4615,-4.4615,-4.4615,-4.4513,-4.4147,-4.3341,-4.2625,-4.161,-4.0214,-4.0113,-4.0113,-4.0113,-4.0113,-4.0113,-4.0113,-4.0113,-4.0113,-4.0113,-4.073,-4.1068,-4.1068,-4.1813,-4.2523,-4.3139,-4.324,-4.3274,-3.1085,-3.1763,-3.234,-3.3018,-3.4148,-3.5378,-3.6505,-3.701,-3.7538,-3.8341,-3.8969,-3.9346,-3.9346,-3.9998,-4.0626,0.0,-4.1455,-4.163,-4.1078,-4.1003,-4.0676,-3.9798,-4.1269,-4.3199,-4.5238,-4.6325,-4.7903,-5.0199,-5.0143,-5.0383,-5.1182,-5.1229,-5.1229,-5.1229,-5.1229,-5.1229,-5.1229,-5.0524,-4.9912,-4.9299,-4.8596,-4.7938,-4.7309,-4.7309,-4.7309,-4.7309,-4.7309,-4.7309,-4.7309,-4.7309,-4.7309,-4.7309,-4.7309,-4.7309,-4.7219,-4.6561,-4.5903,-4.5185,-4.4556,-4.3858,-4.329,-4.329,-4.329,-4.329,-4.329,-4.288,-4.2351,-4.2081,-4.1512,-4.0905,-4.0636,-4.0277,-3.9978,-3.9978,-3.9709,-3.9373,-3.9373,-3.9702,-3.992,-3.992,-4.0622,-4.1231,-4.1231,-4.1981,-4.2831,-4.371,-4.4298,-4.4615,-4.4615,-4.4615,-4.4282,-4.3504,-4.2726,-4.188,-4.0832,-4.073,-4.0561,-4.0146,-4.0113,-4.0113,-4.0113,-4.0113,-4.0316,-4.073,-4.1035,-4.1407,-4.1847,-4.2591,-4.3098,-4.3409,-4.3876,-4.4079,-3.2742,-3.3596,-3.4198,-3.45,-3.6006,-3.7337,-3.7159,-3.7789,-3.8592,-3.9019,-3.9421,-3.9697,-3.9697,-4.0149,-4.0701,-4.12,-4.1806,-4.1957,-4.1351,-4.1275,-4.0874,-3.9823,-4.0516,-4.2037,-4.4447,-4.4952,-4.6412,-4.9618,-4.9291,-4.9601,-5.1105,-5.1229,-5.1229,-5.1229,-5.1229,-5.1229,-5.1229,-5.0704,-5.0092,-4.9299,-4.882,-4.8117,-4.7309,-4.7309,-4.7309,-4.7309,-4.7309,-4.7309,-4.7309,-4.7309,-4.7309,-4.7309,-4.7309,-4.7309,-4.7249,-4.677,-4.6052,-4.5214,-4.4736,-4.4047,-4.329,-4.329,-4.329,-4.329,-4.329,-4.3,-4.262,-4.244,-4.2051,-4.1662,-4.1482,-4.1025,-4.0636,-4.0457,-4.0038,-3.9649,-3.9469,-3.9373,-3.9373,-3.9373,-3.9884,-4.0343,-4.0343,-4.1062,-4.1853,-4.2489,-4.332,-4.4064,-4.4559,-4.4615,-4.4282,-4.3504,-4.2929,-4.2286,-4.1576,-4.1508,-4.1271,-4.0756,-4.0722,-4.0722,-4.0722,-4.0722,-4.0933,-4.1508,-4.1711,-4.2083,-4.2591,-4.3369,-4.3741,-4.3741,-4.4344,-4.4716,-3.3111,-3.3872,-3.4951,-3.6078,-3.7136,-3.8115,-3.8668,-3.922,-3.9647,-3.9672,-3.9697,-3.9697,-3.9697,-4.0149,-4.0701,-4.12,-4.1806,-4.1957,-4.1351,-4.1275,-4.0874,-3.9823,-3.9749,-4.0543,0.0,-4.3808,-4.5087,-4.6328,-4.7629,-4.9183,-5.1075,-5.1229,-5.1229,-5.1229,-5.1229,-5.1229,-5.1229,-5.1199,-5.0541,-4.9299,-4.9299,-4.8566,-4.7309,-4.7309,-4.7309,-4.7309,-4.7309,-4.7309,-4.7309,-4.7309,-4.7309,-4.7309,-4.7309,-4.7309,-4.7309,-4.7279,-4.6441,-4.5304,-4.5274,-4.4407,-4.329,-4.329,-4.329,-4.329,-4.329,-4.329,-4.314,-4.256,-4.2381,-4.2231,-4.1602,-4.1354,-4.1242,-4.0546,-4.0397,-4.0187,-3.9559,-3.9373,-3.9373,-3.9373,-3.9409,-3.9445,-3.9445,-4.0135,-4.0758,-4.0792,-4.1528,-4.2707,-4.4384,-4.4615,-4.4282,-4.3504,-4.3375,-4.3064,-4.232,-4.2252,-4.2252,-4.2219,-4.2219,-4.2219,-4.2219,-4.2219,-4.2219,-4.2252,-4.2963,-4.3341,-4.3375,-4.4147,-4.4581,-4.4581,-4.4581,-4.4959,-3.4324,-3.5529,-3.6533,-3.7262,-3.8291,-3.917,-3.9371,-3.9572,-3.9597,-3.922,-3.9145,-3.9019,-3.8642,-3.9346,-4.0149,-4.0701,-4.1555,-4.2137,-4.1907,-4.1882,-4.148,-4.0375,-4.0249,0.0,0.0,0.0,0.0,-4.605,-4.5856,-4.6408,-4.8411,-4.8489,-4.8886,-4.9824,-4.9873,-5.0287,-5.1182,-5.1229,-5.0571,-4.9299,-4.8386,-4.7728,-4.7309,-4.7309,-4.7309,-4.7309,-4.7309,-4.7309,-4.7309,-4.7309,-4.7309,-4.7309,-4.7309,-4.7309,-4.7309,-4.7309,-4.6741,-4.5903,-4.5454,-4.4706,-4.3858,-4.3439,-4.329,-4.329,-4.329,-4.329,-4.326,-4.306,-4.3,-4.297,-4.2731,-4.2342,-4.2021,-4.1782,-4.1025,-4.0337,-4.0127,-3.9738,-3.9373,-3.9373,-3.9373,-3.9373,-3.9373,-3.9631,-4.0025,-4.0622,-4.1917,-4.3078,-4.3651,-4.427,-4.4513,-4.4215,-4.4181,-4.3876,-4.3098,-4.3031,-4.2828,-4.232,-4.2286,-4.2286,-4.2286,-4.2286,-4.2523,-4.3031,-4.3274,-4.3673,-4.4181,-4.4479,-4.4615,-4.4615,-4.4615,-4.4993,-3.5834,-3.6935,-3.7663,-3.8417,-3.9145,-3.9697,-3.9697,-3.9546,-3.9245,-3.8668,-3.8417,-3.814,-3.7789,-3.8316,-3.912,-4.0074,-4.0978,-4.163,-4.1831,-4.2087,-4.1831,-4.0927,-4.0802,-4.0676,0.0,0.0,0.0,-4.5017,-4.4619,-4.5045,-4.7015,-4.7094,-4.7503,-4.8439,-4.8439,-4.8837,-4.9727,-5.0239,-5.0092,-4.9299,-4.7938,-4.7309,-4.7309,-4.7309,-4.7309,-4.7309,-4.7309,-4.7309,-4.7309,-4.7309,-4.7309,-4.7309,-4.7309,-4.7309,-4.7309,-4.7309,-4.689,-4.619,-4.5544,-4.4855,-4.4197,-4.3499,-4.329,-4.329,-4.329,-4.329,-4.329,-4.329,-4.329,-4.329,-4.329,-4.303,-4.2641,-4.244,-4.1752,-4.0965,-4.0487,-4.0068,-3.9709,-3.9433,-3.9373,-3.9373,-3.9373,-3.9373,-3.9559,-4.0135,-4.1429,-4.2489,-4.2802,-4.3591,-4.4121,-4.4121,-4.4412,-4.4384,-4.3876,-4.3842,-4.3639,-4.3159,-4.3125,-4.3125,-4.3125,-4.3125,-4.3335,-4.3809,-4.3842,-4.4079,-4.4615,-4.4615,-4.4615,-4.4615,-4.4886,-4.5399,-3.7563,-3.804,-3.8341,-3.9421,-3.9697,-3.9697,-3.9672,-3.922,-3.8642,-3.8015,-3.7462,-3.7086,0.0,0.0,-3.7713,-3.9295,-4.0124,-4.0752,-4.125,-4.1856,-4.2007,0.0,-4.1326,0.0,0.0,0.0,0.0,-4.3204,0.0,-4.4888,-4.6809,-4.6888,-4.6888,-4.6991,-4.6991,-4.7043,-4.7197,-4.8532,-4.922,-4.9239,-4.7908,-4.7309,-4.7309,-4.7309,-4.7309,-4.7309,-4.7309,-4.7309,-4.7309,-4.7309,-4.7309,-4.7309,-4.7309,-4.7309,-4.7309,-4.7309,-4.689,-4.619,-4.5544,-4.4855,-4.4197,-4.3499,-4.329,-4.329,-4.329,-4.329,-4.329,-4.329,-4.329,-4.329,-4.329,-4.329,-4.314,-4.259,-4.241,-4.2051,-4.0756,-4.0487,-4.0277,-3.9649,-3.9463,-3.9433,-3.9433,-3.9403,-3.9373,-3.9373,-4.01,-4.0961,-4.182,-4.2676,-4.3229,-4.3229,-4.4006,-4.4525,-4.4525,-4.4587,-4.4615,-4.4615,-4.4615,-4.4615,-4.4615,-4.4615,-4.4615,-4.4615,-4.4615,-4.4615,-4.4615,-4.4615,-4.4615,-4.4682,-4.5365,-4.6109,-3.7789,-3.8617,-3.9346,-3.9622,-3.9697,-3.9597,-3.917,-3.8642,-3.7839,-3.6411,-3.6009,-3.5579,-3.4349,-3.5805,-3.7337,-3.7764,-3.9672,0.0,-4.1856,-4.2464,0.0,-4.2007,-4.1957,-4.1781,-4.1326,-4.1706,0.0,0.0,-4.263,-4.3125,-4.3991,-4.4071,-4.4481,-4.5502,-4.5555,-4.6526,-4.8638,-4.908,-4.9042,-4.8536,-4.7698,-4.7309,-4.7309,-4.7309,-4.7309,-4.7309,-4.7309,-4.7309,-4.7309,-4.7309,-4.7309,-4.7309,-4.7309,-4.7309,-4.7309,-4.7309,-4.689,-4.619,-4.5544,-4.4855,-4.4197,-4.3499,-4.329,-4.329,-4.329,-4.329,-4.329,-4.329,-4.329,-4.329,-4.329,-4.329,-4.326,-4.312,-4.2731,-4.2321,-4.1961,-4.1512,-4.1085,-4.0905,-4.0487,-4.0157,-4.0157,-3.9738,-3.9373,-3.9373,-3.9559,-4.006,-4.0927,-4.1788,-4.2332,-4.2332,-4.3108,-4.3621,-4.3621,-4.4241,-4.4615,-4.4615,-4.4615,-4.4615,-4.4615,-4.4615,-4.4615,-4.4615,-4.4615,-4.4615,-4.4615,-4.4615,-4.4857,-4.5432,-4.5602,-4.6413,-3.8542,-3.922,-3.9697,-3.9697,-3.9697,-3.9421,-3.8366,-3.7688,-3.6759,-3.4851,-3.4274,-3.3796,-3.2867,-3.4374,-3.5981,-3.6757,-3.8969,0.0,-4.1681,-4.2484,-4.2861,-4.2615,-4.2564,0.0,-4.2082,-4.2333,-4.2564,0.0,-4.2564,-4.2715,-4.2961,-4.2986,-4.3351,-4.4126,-4.4126,-4.5023,-4.6962,-4.6756,-4.6614,-4.6616,-4.5933,-4.5644,-4.5644,-4.6211,-4.6462,-4.6506,0.0,-4.7309,-4.7309,-4.7309,-4.7309,-4.7309,-4.7309,-4.7309,-4.7309,-4.7309,-4.6711,-4.5813,-4.5424,-4.4676,-4.3798,-4.3409,-4.329,-4.329,-4.329,-4.329,-4.329,-4.329,-4.329,-4.329,-4.329,-4.329,-4.329,-4.329,-4.306,-4.2701,-4.247,-4.2111,-4.1752,-4.1482,-4.1085,-4.0756,-4.0457,-4.0098,-3.9738,-3.9433,-3.9373,-3.9589,-4.006,-4.0894,-4.1429,-4.1429,-4.2237,-4.2707,-4.2707,-4.3199,-4.3621,-4.4006,-4.4035,-4.4179,-4.4587,-4.4615,-4.4615,-4.4615,-4.4615,-4.4615,-4.4615,-4.4925,-4.5297,-4.5737,-4.638,-4.7124,-3.9421,-3.9697,-3.9697,-3.9697,-3.9647,-3.9145,-3.7462,-3.6631,-3.5575,-3.3319,-3.2441,-3.2064,-3.1913,-3.2993,-3.4399,-3.5952,-3.809,-3.9998,-4.1125,-4.2233,-4.2886,-4.2961,-4.2986,-4.2986,-4.2986,-4.2986,-4.2986,-4.2986,-4.2986,-4.2986,-4.2986,-4.2986,-4.2986,-4.2986,-4.3108,-4.3413,-4.4072,-4.3594,-4.3694,-4.4373,-4.38,-4.3504,-4.3551,-4.4627,-4.5161,-4.5207,-4.6299,-4.6887,-4.7062,-4.7062,-4.7149,-4.7309,-4.7309,-4.7309,-4.7309,-4.7309,-4.6501,-4.5424,-4.5334,-4.4496,-4.3409,-4.3319,-4.329,-4.329,-4.329,-4.329,-4.329,-4.329,-4.329,-4.329,-4.329,-4.329,-4.329,-4.329,-4.329,-4.314,-4.265,-4.253,-4.2351,-4.1743,-4.1564,-4.1324,-4.0756,-4.0576,-4.0337,-3.9768,-3.9619,-3.9523,-3.9523,-4.0091,-4.0519,-4.0519,-4.1297,-4.182,-4.182,-4.1917,-4.2332,-4.3078,-4.3139,-4.3472,-4.4207,-4.4355,-4.4412,-4.4412,-4.4559,-4.4649,-4.475,-4.5399,-4.5805,-4.6041,-4.7297,-4.7939,-3.9647,-3.9697,-3.9697,-3.9697,-3.9346,-3.8567,-3.691,-3.5755,0.0,-3.2139,-3.1587,-3.126,-3.0382,-3.224,-3.4148,-3.4876,-3.7262,-3.9572,-4.1075,-4.1882,-4.2514,0.0,-4.2986,-4.2986,-4.2986,-4.2986,0.0,0.0,-4.2986,-4.2986,-4.2986,-4.2986,-4.2986,-4.2986,-4.3661,-4.3809,-4.3387,-4.3968,-4.4056,-4.3642,-4.3559,-4.3504,-4.3504,-4.374,-4.3834,-4.3834,-4.4069,0.0,-4.5734,-4.5734,-4.6344,-4.7309,-4.7309,-4.7309,-4.7309,-4.7309,-4.68,-4.6052,-4.5484,-4.4796,-4.4047,-4.3469,-4.329,-4.329,-4.329,-4.329,-4.329,-4.329,-4.329,-4.329,-4.329,-4.329,-4.329,-4.329,-4.329,-4.326,-4.314,-4.311,-4.308,-4.2961,-4.2551,-4.2201,-4.2081,-4.1602,-4.1175,-4.1055,-4.0576,-4.0217,-4.0217,-3.9884,-3.9631,-3.9631,-4.0413,-4.0927,-4.0927,-4.1593,-4.2045,-4.2237,-4.2237,-4.23,-4.2458,-4.3139,-4.3532,-4.3532,-4.4241,-4.4919,-4.55,-4.5635,-4.6346,-4.75,-4.777,-4.824,-3.9697,-3.9697,-3.9697,-3.9697,-3.927,-3.8291,-3.6031,0.0,0.0,-3.1085,-3.0557,-3.0407,-2.988,-3.1336,-3.2867,-3.3721,-3.5705,-3.7914,-4.0174,-4.0953,-4.1731,-4.2836,-4.2986,-4.2986,-4.2986,-4.2986,-4.2986,-4.2986,-4.2986,-4.2986,-4.2986,-4.2986,-4.2986,-4.2986,-4.3121,-4.2855,-4.2237,-4.2369,-4.2121,-4.1492,-4.1492,-4.1492,-4.1541,-4.223,-4.2496,-4.2544,-4.3218,-4.3834,-4.4442,-4.5115,-4.5779,-4.6388,-4.7019,-4.7309,-4.7309,-4.7309,-4.689,-4.6219,-4.5933,-4.5155,-4.4257,-4.3917,-4.3559,-4.329,-4.329,-4.329,-4.329,-4.329,-4.329,-4.329,-4.329,-4.329,-4.329,-4.329,-4.329,-4.329,-4.329,-4.329,-4.329,-4.329,-4.309,-4.2761,-4.244,-4.2141,-4.1811,-4.1482,-4.1115,-4.0905,-4.0905,-4.0337,-3.9798,-3.9469,-3.9773,-4.0025,-4.0025,-4.0413,-4.0826,-4.1264,-4.1297,-4.1528,-4.1949,-4.2395,-4.2863,-4.329,-4.4075,-4.4653,-4.499,-4.6211,-4.6952,-4.7189,-4.806,-4.868,-3.9672,-3.9697,-3.9697,-3.9697,-3.9094,-3.7839,-3.5303,-3.4123,-3.2817,-3.0306,-2.9804,-2.9804,-2.9804,-3.0583,-3.1637,-3.291,-3.4374,-3.6285,-3.912,-4.0099,-4.1078,-4.261,-4.2911,0.0,-4.2986,-4.2986,0.0,-4.2986,-4.2986,-4.2986,-4.2986,-4.2986,-4.2986,-4.2986,-4.2333,-4.1781,-4.1275,-4.0676,-4.0124,-3.9697,-3.9697,-3.9697,-3.9749,-4.0743,-4.1169,-4.1269,-4.2279,-4.2834,-4.317,-4.4163,-4.4748,-4.5115,-4.6388,-4.6887,-4.6931,-4.7222,-4.698,-4.6501,-4.6339,-4.5633,-4.4706,-4.4556,-4.3947,-4.329,-4.329,-4.329,-4.329,-4.329,-4.329,-4.329,-4.329,-4.329,-4.329,-4.329,-4.329,-4.329,-4.329,-4.329,-4.329,-4.329,-4.329,-4.314,-4.2641,-4.262,-4.2402,-4.1893,-4.1722,-4.1632,-4.1632,-4.1025,-4.0367,-3.9709,-3.9499,-3.9373,-3.9373,-3.9373,-3.9702,-4.0378,-4.057,-4.0941,-4.1649,-4.1973,-4.2494,-4.3164,-4.4125,-4.4673,-4.4776,-4.6871,-4.7603,-4.704,-4.8371,-4.9018,-3.9546,-3.9697,-3.9697,-3.9697,-3.8517,-3.6885,-3.5127,0.0,-3.1888,-3.0156,-2.9804,-2.9804,-2.9804,-3.0281,-3.121,-3.286,-3.4048,-3.578,-3.8567,-3.9848,-4.0953,-4.2137,0.0,0.0,-4.2986,-4.2986,-4.2986,-4.2986,-4.2986,-4.2986,-4.2986,-4.2986,-4.2986,-4.2986,-4.1957,-4.1351,-4.1275,-4.03,-3.9747,-3.9697,-3.9697,-3.9697,-3.9697,-3.9826,-3.9878,-3.9878,-3.9981,-4.0693,0.0,-4.1887,-4.2641,-4.3787,-4.507,-4.5598,-4.5734,-4.6887,-4.7279,-4.713,-4.6488,-4.619,-4.6022,-4.5394,-4.4347,-4.329,-4.329,-4.329,-4.329,-4.329,-4.329,-4.329,-4.329,-4.329,-4.329,-4.329,-4.329,-4.329,-4.329,-4.329,-4.329,-4.329,-4.329,-4.326,-4.323,-4.32,-4.32,-4.311,-4.2641,-4.2321,-4.2321,-4.1722,-4.1025,-4.0367,-3.9768,-3.9373,-3.9373,-3.9373,-3.9409,-3.9517,-4.0057,-4.0461,-4.0534,-4.1914,-4.2687,-4.2727,-4.443,-4.563,-4.6321,-4.7373,-4.8179,-4.8759,-4.8954,-4.9018,-3.9044,-3.9446,-3.9697,-3.9697,-3.8442,-3.6759,-3.5102,-3.342,-3.1763,-3.0131,-2.9804,-2.9804,-2.9804,-2.998,-3.0557,-3.1838,-3.2441,-3.3696,-3.6483,-3.7814,-3.917,-4.0953,-4.1957,0.0,0.0,0.0,-4.2986,-4.2986,-4.2986,-4.2986,-4.2986,-4.2986,-4.2986,-4.2986,-4.1907,-4.1275,-4.1275,-4.0249,-3.9697,-3.9697,-3.9697,-3.9697,-3.9697,-3.9697,-3.9697,-3.9697,-3.9697,-3.9981,0.0,-4.1269,-4.1887,-4.2496,-4.374,-4.472,-4.5434,-4.5958,-4.6638,-4.7279,-4.701,-4.6651,-4.6249,-4.5992,-4.5274,-4.4436,-4.4007,-4.3888,-4.3838,-4.3409,-4.329,-4.329,-4.329,-4.329,-4.329,-4.329,-4.329,-4.329,-4.329,-4.329,-4.329,-4.329,-4.329,-4.329,-4.329,-4.329,-4.329,-4.329,-4.312,-4.294,-4.294,-4.2372,-4.1901,-4.1662,-4.0636,-4.0008,-4.0008,-4.0008,-4.0187,-4.0576,-4.0846,-4.0995,-4.0995,-4.1579,-4.2181,-4.2695,-4.3819,-4.4551,-4.4802,-4.6183,-4.6742,-4.6486,-4.707,-4.7306,-3.8366,-3.9019,-3.9446,-3.9446,-3.8191,-3.6508,-3.4851,-3.3169,-3.1562,-3.0105,-2.9804,-2.9804,-2.9804,-2.9804,-3.0105,-3.1009,-3.1436,-3.2541,-3.5132,-3.6634,-3.8191,-4.0275,0.0,-4.2133,0.0,-4.2942,-4.2986,-4.2986,-4.2986,-4.2986,-4.2986,-4.2986,-4.2986,-4.2986,-4.1907,-4.1275,-4.1275,-4.0249,-3.9697,-3.9697,-3.9697,-3.9697,-3.9697,-3.9697,-3.9697,-3.9697,-3.9697,-3.9697,0.0,-4.0642,-4.1019,-4.1169,-4.2447,-4.3504,-4.4303,-4.4674,-4.5389,-4.6166,-4.6166,-4.6094,-4.6046,-4.6046,-4.5964,-4.5753,-4.5095,-4.4616,-4.4227,-4.3708,-4.3439,-4.329,-4.329,-4.329,-4.329,-4.329,-4.329,-4.329,-4.329,-4.329,-4.329,-4.329,-4.329,-4.329,-4.329,-4.329,-4.329,-4.329,-4.329,-4.329,-4.329,-4.294,-4.262,-4.241,-4.1572,-4.0905,-4.0696,-4.0696,-4.0876,-4.1354,-4.1602,-4.1722,-4.1722,-4.1863,-4.2228,-4.2873,-4.3673,-4.4068,-4.4062,-4.5488,-4.5885,-4.5227,-4.5889,-4.6208,-3.7563,-3.8442,-3.8919,-3.8919,-3.7662,-3.5977,-3.4274,-3.2591,-3.1085,-3.0005,-2.9804,-2.9804,-2.9804,-2.9804,-2.998,-3.0532,-3.1512,-3.2993,-3.5182,-3.696,-3.8617,0.0,0.0,-4.1555,-4.2162,-4.2715,-4.2986,-4.2986,-4.2986,0.0,-4.2986,-4.2986,-4.2986,-4.2986,-4.1907,-4.1275,-4.1275,-4.0249,-3.9697,-3.9697,-3.9697,-3.9697,-3.9697,-3.9697,-3.9697,-3.9697,-3.9697,-3.9697,0.0,-3.9697,-3.9749,-3.9826,-4.1119,-4.164,-4.1789,-4.3074,-4.3551,-4.3551,-4.3551,-4.4349,-4.5389,-4.5389,-4.6255,-4.716,-4.6501,-4.5364,-4.4317,-4.4317,-4.3798,-4.329,-4.329,-4.329,-4.329,-4.329,-4.329,-4.329,-4.329,-4.329,-4.329,-4.329,-4.329,-4.329,-4.329,-4.329,-4.329,-4.329,-4.329,-4.329,-4.329,-4.329,-4.306,-4.247,-4.2381,-4.2111,-4.1482,-4.1422,-4.1422,-4.1422,-4.2021,-4.2381,-4.2381,-4.297,-4.326,-4.3299,-4.4282,-4.4812,-4.4812,-4.5742,-4.6173,-4.6173,-4.6208,-4.6208,-3.3898,-3.5293,-3.6508,-3.6132,-3.5077,-3.3916,-3.2968,-3.1763,-3.0658,-2.9955,-2.9804,-2.9804,-2.9804,-2.9804,-3.0331,-3.2039,-3.2591,-3.3596,-3.583,-3.7211,0.0,-3.9798,-4.143,-4.2534,0.0,0.0,-4.2986,-4.2986,-4.2986,-4.2811,-4.2489,-4.2464,-4.2464,-4.2464,-4.1706,-4.11,-4.0777,-4.0049,-3.9697,-3.9697,-3.9697,-3.9697,-3.9697,-3.9697,-3.9697,0.0,-3.9697,-3.9697,0.0,-3.9697,-3.9697,-3.9749,-4.0134,-4.0844,-4.164,-4.2035,-4.2738,-4.3504,-4.3504,-4.374,-4.4256,-4.5115,-4.5689,-4.5974,-4.5725,-4.5679,-4.5484,-4.4586,-4.3838,-4.329,-4.329,-4.329,-4.329,-4.329,-4.329,-4.329,-4.329,-4.329,-4.329,-4.329,-4.329,-4.329,-4.329,-4.329,-4.329,-4.329,-4.329,-4.329,-4.329,-4.329,-4.323,-4.306,-4.303,-4.2761,-4.2141,-4.2081,-4.2291,-4.2701,-4.291,-4.303,-4.303,-4.32,-4.329,-4.329,-4.3615,-4.3771,-4.3771,-4.409,-4.4213,-4.4213,-4.4213,-4.4213,-3.0991,-3.2707,-3.4163,-3.3818,-3.3413,-3.2867,-3.2089,-3.1235,-3.0457,-2.9905,-2.9804,-2.9804,-2.9804,-2.9804,-3.0306,-3.1888,-3.2491,-3.352,-3.578,0.0,0.0,-4.0124,0.0,0.0,0.0,-4.2861,-4.2986,-4.2986,-4.2785,-4.2564,-4.2238,-4.1957,-4.1756,-4.153,-4.1204,-4.0852,-4.0526,-3.9973,-3.9697,-3.9697,-3.9697,-3.9697,-3.9697,-3.9697,-3.9697,-3.9697,-3.9697,-3.9697,0.0,-3.9697,-3.9697,-3.9697,-3.9697,-4.016,-4.0895,-4.0895,-4.1419,-4.2084,-4.2084,-4.235,-4.293,-4.3693,-4.4303,-4.4674,-4.4674,-4.5091,-4.5457,-4.4851,-4.4197,-4.3678,-4.3678,-4.3469,-4.329,-4.329,-4.329,-4.329,-4.329,-4.329,-4.329,-4.329,-4.329,-4.329,-4.329,-4.329,-4.329,-4.329,-4.329,-4.329,-4.329,-4.329,-4.329,-4.329,-4.329,-4.314,-4.2761,-4.2731,-4.291,-4.326,-4.329,-4.329,-4.329,-4.329,-4.329,-4.329,-4.329,-4.329,-4.329,-4.329,-4.329,-4.329,-4.329,-4.3439,0.0,-3.0557,-3.1839,-3.1791,-3.2211,-3.2329,-3.1281,-3.0683,0.0,-2.9763,-2.9663,-2.9727,-2.988,-2.988,-3.008,-3.0783,-3.1738,-3.3169,0.0,-3.7138,0.0,0.0,-4.1856,0.0,-4.2263,-4.274,-4.2961,-4.2911,-4.2489,-4.2162,-4.2087,-4.1555,-4.0974,-4.0475,-4.045,-4.045,-4.045,-3.9948,-3.9697,-3.9697,-3.9697,-3.9697,-3.9697,-3.9697,-3.9697,0.0,-3.9697,-3.9697,0.0,-3.9697,-3.9697,-3.9697,-3.9697,-3.9697,-3.9697,-3.9697,-3.9697,-3.9697,-3.9697,-4.0465,-4.1468,-4.1541,-4.2398,-4.3361,-4.3456,-4.3927,-4.4529,-4.5094,-4.4803,-4.4377,-4.4377,-4.3888,-4.3439,-4.3439,-4.3439,-4.3439,-4.3439,-4.3379,-4.3349,-4.3349,-4.3319,-4.329,-4.329,-4.329,-4.329,-4.329,-4.329,-4.329,-4.329,-4.329,-4.329,-4.329,-4.329,-4.329,-4.329,-4.329,-4.329,-4.329,-4.329,-4.329,-4.329,-4.329,-4.329,-4.329,-4.329,-4.329,-4.329,-4.329,-4.3319,-4.3349,-4.3349,-4.3708,-2.45,0.0,-2.8365,-2.7934,-2.792,-2.799,0.0,-2.7556,-2.7644,-2.8371,-2.8505,-2.901,-3.0738,-3.0683,-3.116,-3.3395,-3.3972,-3.4901,-3.7111,-3.9245,0.0,-4.1225,-4.2183,-4.2841,-4.2841,-4.2911,-4.2811,-4.2439,-4.2288,-4.1835,-4.0953,-4.0777,-4.045,-3.9898,-3.9898,-3.9898,-3.9898,-3.9747,-3.9697,-3.9697,-3.9697,-3.9697,-3.9697,-3.9697,-3.9697,-3.9697,-3.9697,-3.9697,-3.9697,-3.9697,-3.9697,-3.9697,-3.9697,-3.9697,-3.9697,-3.9697,-3.9697,-3.9697,-3.9697,-3.9878,-4.0313,-4.1269,-4.1789,-4.223,-4.3218,-4.3927,-4.4438,-4.4559,-4.4798,-4.5065,-4.5065,-4.4945,-4.4825,-4.4825,-4.4825,-4.4825,-4.4825,-4.4436,-4.4077,-4.4077,-4.3648,-4.329,-4.329,-4.329,-4.329,-4.329,-4.329,-4.329,-4.329,-4.329,-4.329,-4.329,-4.329,-4.329,-4.329,-4.329,-4.329,-4.329,-4.329,-4.329,-4.329,-4.329,-4.329,-4.329,-4.329,-4.329,-4.329,-4.329,-4.3559,-4.4077,-4.4077,-4.4436,-2.3101,-2.4877,-2.6672,-2.6368,-2.6688,-2.7048,-2.7048,-2.6755,-2.6648,-2.7238,-2.736,-2.7981,-2.9919,-3.0229,-3.1075,-3.3558,-3.46,0.0,0.0,0.0,-4.1376,-4.1681,-4.2459,-4.2986,0.0,-4.2816,-4.2539,-4.2238,-4.1735,-4.1153,-4.0551,-4.0275,-3.9998,-3.9697,-3.9697,-3.9697,-3.9697,-3.9697,-3.9697,-3.9697,-3.9697,-3.9697,-3.9697,-3.9697,-3.9697,-3.9697,-3.9697,-3.9697,-3.9697,-3.9697,-3.9697,-3.9697,-3.9697,-3.9697,-3.9697,-3.9697,-3.9697,-3.9697,-3.9697,-3.9697,-3.98,-4.0516,-4.0743,-4.0844,-4.1541,-4.2376,-4.3333,-4.451,-4.488,-4.5017,-4.5627,-4.5544,-4.5304,-4.5304,-4.5304,-4.5304,-4.5304,-4.5005,-4.4766,-4.4766,-4.4466,-4.4227,-4.4227,-4.4227,-4.4137,-4.3838,-4.3738,-4.3648,-4.3319,-4.329,-4.329,-4.329,-4.329,-4.329,-4.329,-4.329,-4.329,-4.329,-4.329,-4.329,-4.329,-4.329,-4.329,-4.329,-4.3589,-4.3738,-4.3738,-4.4077,-4.4407,-4.4766,-4.4766,-4.5125,-2.3179,-2.456,-2.5999,-2.5709,-2.636,-2.7086,-2.6998,-2.6472,-2.6027,-2.6171,-2.64,-2.6994,-2.8574,-2.9642,-3.0962,-3.2897,-3.469,0.0,-3.922,-4.0601,-4.1505,-4.1982,-4.2585,0.0,-4.2986,-4.2539,-4.2162,-4.2087,-4.1078,-4.0475,-4.04,-3.9948,-3.9697,-3.9697,-3.9697,-3.9697,-3.9697,-3.9697,-3.9697,-3.9697,-3.9697,-3.9697,-3.9697,-3.9697,-3.9697,-3.9697,0.0,0.0,-3.9697,-3.9697,-3.9697,-3.9697,-3.9697,-3.9697,-3.9697,-3.9697,-3.9697,-3.9697,-3.9697,-3.9697,-3.9697,-3.9697,-3.9697,-3.9697,-3.9697,-4.0465,-4.1789,-4.4163,-4.4533,-4.4522,-4.5594,-4.5441,-4.5039,-4.5039,-4.5196,-4.5322,-4.5322,-4.5388,-4.5454,-4.5454,-4.5364,-4.5304,-4.5304,-4.5304,-4.5095,-4.4556,-4.4377,-4.4067,-4.3529,-4.3349,-4.329,-4.329,-4.329,-4.329,-4.329,-4.329,-4.329,-4.329,-4.329,-4.329,-4.329,-4.3379,-4.3439,-4.3439,-4.4137,-4.4466,-4.4466,-4.5035,-4.5334,-4.5454,-4.5454,-4.5813,-2.3594,-2.4729,-2.5413,-2.3915,-2.3994,-2.4306,-2.3883,-2.3684,-2.3887,-2.4872,-2.5839,-2.697,-2.8515,-3.0869,-3.2841,-3.352,-3.584,-3.7939,0.0,0.0,-4.13,-4.1401,0.0,-4.2986,-4.2986,-4.2539,-4.1957,-4.1505,-4.0877,-4.03,-3.9848,-3.9747,-3.9697,-3.9697,-3.9697,-3.9697,-3.9697,-3.9697,-3.9697,-3.9697,-3.9697,-3.9697,-3.9697,-3.9697,-3.9697,-3.9697,0.0,-3.9697,-3.9697,-3.9697,-3.9697,-3.9697,-3.9697,-3.9697,-3.9697,-3.9697,-3.9697,-3.9697,-3.9697,-3.9697,-3.9697,-3.9697,-3.9697,-3.9697,-3.9697,-3.9826,-4.0313,-4.1789,-4.2876,-4.3695,-4.3883,-4.3845,-4.3789,-4.3789,-4.4573,-4.5399,-4.5399,-4.5813,-4.6172,-4.6172,-4.5693,-4.5304,-4.5304,-4.5304,-4.5274,-4.5155,-4.4676,-4.4287,-4.4167,-4.3648,-4.329,-4.329,-4.329,-4.329,-4.329,-4.329,-4.329,-4.329,-4.329,-4.329,-4.329,-4.3828,-4.4167,-4.4167,-4.4796,-4.5155,-4.5155,-4.5244,-4.5603,-4.6172,-4.6172,-4.6531,-2.3379,-2.4043,-2.4551,-2.3939,-2.4687,-2.543,-2.498,-2.466,-2.4611,-2.4882,-2.5406,-2.6259,-2.7834,-2.9641,-3.1853,-3.4809,0.0,-3.8668,-3.9245,-4.0224,-4.0902,0.0,0.0,-4.2082,-4.2082,-4.1605,-4.1178,-4.0902,-4.0375,-3.9973,-3.9697,-3.9697,-3.9697,-3.9697,-3.9697,-3.9697,-3.9697,-3.9697,-3.9697,-3.9697,-3.9697,-3.9697,-3.9697,-3.9697,-3.9697,-3.9697,0.0,-3.9697,-3.9697,-3.9697,-3.9697,-3.9697,-3.9697,-3.9697,-3.9697,-3.9697,-3.9697,-3.9697,-3.9697,-3.9697,-3.9697,-3.9697,-3.9697,-3.9697,-3.9697,-3.9697,-3.9826,-4.0415,-4.1518,-4.2641,-4.3313,-4.3504,-4.3504,-4.3504,-4.3929,-4.4349,-4.4349,-4.4613,-4.5001,-4.5683,-4.5551,-4.5593,-4.6254,-4.6381,-4.6262,-4.5903,-4.5603,-4.5274,-4.4885,-4.4257,-4.3828,-4.3828,-4.3499,-4.329,-4.329,-4.329,-4.329,-4.329,-4.3618,-4.3828,-4.3828,-4.4496,-4.4855,-4.4855,-4.5514,-4.5843,-4.5843,-4.6202,-4.6531,-4.686,-4.686,-4.701,-2.3198,-2.3535,-2.3887,-2.4316,-2.5352,-2.6289,-2.6367,-2.5977,-2.5566,-2.5527,-2.5669,-2.6092,-2.7256,-2.8557,-3.0976,-3.548,-3.7228,-3.8325,-3.908,-3.9653,-4.0106,-4.0473,-4.0949,-4.1275,-4.1275,-4.0774,-4.0526,-4.0526,-3.9998,-3.9697,-3.9697,-3.9697,-3.9697,-3.9697,-3.9697,-3.9697,-3.9697,-3.9697,-3.9697,-3.9697,-3.9697,-3.9697,-3.9697,-3.9697,-3.9697,-3.9697,-3.9697,-3.9697,-3.9697,-3.9697,-3.9697,-3.9697,-3.9697,-3.9697,-3.9697,-3.9697,-3.9697,-3.9697,-3.9697,-3.9697,-3.9697,-3.9697,-3.9697,-3.9697,-3.9697,-3.9697,-3.9697,-3.9697,-4.0415,-4.1369,-4.235,-4.2593,-4.2593,-4.2593,-4.2834,-4.3074,-4.3074,-4.3313,-4.3787,-4.4794,-4.4978,-4.5343,-4.6638,-4.6887,-4.6797,-4.6578,-4.6369,-4.6142,-4.5603,-4.4945,-4.4556,-4.4556,-4.4077,-4.3738,-4.3738,-4.3738,-4.3738,-4.3738,-4.4107,-4.4377,-4.4526,-4.5185,-4.5544,-4.5544,-4.6202,-4.6518,-4.6561,-4.707,-4.7309,-4.7309,-4.7309,-4.7309,-2.3535,-2.3769,-2.3887,-2.4316,-2.4219,-2.4434,-2.6035,-2.5723,-2.5449,-2.6641,-2.7351,-2.7631,-2.714,-2.9197,-3.1752,-3.4316,-3.5201,-3.6062,-3.7477,0.0,-3.8989,-4.0342,-4.0949,-4.1275,-4.1275,-4.0774,-4.0526,-4.0526,-3.9998,-3.9697,-3.9697,-3.9697,-3.9697,-3.9697,-3.9697,-3.9697,-3.9697,-3.9697,-3.9697,-3.9697,-3.9697,-3.9697,-3.9697,-3.9697,-3.9697,-3.9697,-3.9697,-3.9697,-3.9697,-3.9697,-3.9697,-3.9697,-3.9697,-3.9697,-3.9697,-3.9697,-3.9697,-3.9697,-3.9697,-3.9697,-3.9697,-3.9697,-3.9697,-3.9697,-3.9697,-3.9697,-3.9697,-3.9697,-3.98,-3.9826,-3.9929,-3.9981,-3.9981,-3.9981,-4.0895,-4.1739,-4.1739,-4.2689,-4.3551,-4.3646,-4.3646,-4.4022,-4.5298,-4.5553,-4.5913,-4.7046,-4.6711,-4.6249,-4.6219,-4.5633,-4.5214,-4.5214,-4.5185,-4.5155,-4.5155,-4.5155,-4.5155,-4.5155,-4.4616,-4.4586,-4.5185,-4.5873,-4.6219,-4.6219,-4.689,-4.7249,-4.7249,-4.7279,-4.7309,-4.7309,-4.7309,-4.7309,-2.291,-2.3379,-2.3887,-2.4316,-2.4707,-2.5312,-2.6504,-2.6934,-2.7285,-2.8047,-2.8364,-2.8495,-2.8217,-3.0235,-3.2184,-3.3071,-3.4428,-3.5836,-3.7293,-3.7697,-3.8374,-3.9842,-4.0199,-4.0325,-4.0325,-4.0124,-3.9998,-3.9998,-3.9798,-3.9697,-3.9697,-3.9697,-3.9697,-3.9697,-3.9697,-3.9697,-3.9697,-3.9697,-3.9697,-3.9697,-3.9697,-3.9697,-3.9697,-3.9697,-3.9697,-3.9697,-3.9697,-3.9697,-3.9697,-3.9697,-3.9697,-3.9697,-3.9697,-3.9697,-3.9697,-3.9697,-3.9697,-3.9697,-3.9697,-3.9697,-3.9697,-3.9697,-3.9697,-3.9697,-3.9697,-3.9697,-3.9697,-3.9697,-3.9697,-3.9697,-3.9697,-3.9697,-3.9697,-3.9697,-4.0083,-4.0415,-4.0415,-4.0794,-4.1369,-4.2181,-4.2301,-4.2738,-4.4022,-4.421,-4.4627,-4.5913,-4.5917,-4.6035,-4.6834,-4.6352,-4.5933,-4.5933,-4.5544,-4.5304,-4.5304,-4.5304,-4.5484,-4.5903,-4.5693,-4.5663,-4.5933,-4.6591,-4.692,-4.692,-4.7189,-4.7309,-4.7309,-4.7309,-4.7309,-4.7309,-4.7309,-4.7309,-2.2519,-2.2949,-2.3555,-2.4238,-2.5031,-2.5986,-2.7168,-2.7871,-2.8535,-2.9375,-2.9316,-2.9121,-2.9121,-3.0404,-3.1552,0.0,-3.2931,-3.4403,-3.5868,-3.6085,-3.6811,-3.8792,-3.9025,-3.9181,-3.9645,-3.9697,-3.9697,-3.9697,-3.9697,-3.9697,-3.9697,-3.9697,-3.9697,-3.9697,-3.9697,-3.9697,-3.9697,-3.9697,-3.9697,-3.9697,-3.9697,-3.9697,-3.9697,-3.9697,-3.9697,-3.9697,-3.9697,-3.9697,-3.9697,-3.9697,-3.9697,-3.9697,-3.9697,-3.9697,-3.9697,-3.9697,-3.9697,-3.9697,-3.9697,-3.9697,-3.9697,-3.9697,-3.9697,-3.9697,-3.9697,-3.9697,-3.9697,-3.9697,-3.9697,-3.9697,-3.9697,-3.9697,-3.9697,-3.9697,-3.9697,-3.9697,-3.9697,-3.9697,-3.9981,-4.0844,-4.0969,-4.1419,-4.2689,-4.2882,-4.3313,-4.4581,-4.4794,-4.5252,-4.655,-4.6298,-4.6162,-4.6578,-4.6202,-4.5933,-4.5933,-4.5933,-4.6142,-4.6621,-4.6621,-4.6621,-4.6621,-4.707,-4.7309,-4.7309,-4.7309,-4.7309,-4.7309,-4.7309,-4.7309,-4.7309,-4.7309,-4.7309,-2.25,-2.2519,-2.2832,-2.4102,-2.505,-2.6161,-2.791,-2.8301,-2.8789,-3.0527,-3.0195,-2.9646,-2.9626,-2.9646,-2.9726,-3.0137,-3.0586,-3.1441,-3.2907,-3.3077,-3.4181,-3.7133,-3.7477,-3.806,-3.9517,-3.9697,-3.9697,-3.9697,-3.9697,-3.9697,-3.9697,-3.9697,-3.9697,-3.9697,-3.9697,-3.9697,-3.9697,-3.9697,-3.9697,-3.9697,-3.9697,-3.9697,-3.9697,-3.9697,-3.9697,-3.9697,-3.9697,-3.9697,-3.9697,-3.9697,-3.9697,-3.9697,-3.9697,-3.9697,-3.9697,-3.9697,-3.9697,-3.9697,-3.9697,-3.9697,-3.9697,-3.9697,-3.9697,-3.9697,-3.9697,-3.9697,-3.9697,-3.9697,-3.9697,-3.9697,-3.9697,-3.9697,-3.9697,-3.9697,-3.9697,-3.9697,-3.9697,-3.9697,-3.9697,-3.9697,-3.9697,-4.0083,-4.1369,-4.1591,-4.2035,-4.3313,-4.3504,-4.3929,-4.5207,-4.5389,-4.5869,-4.7149,-4.7309,-4.7309,-4.7309,-4.7309,-4.7309,-4.7309,-4.7309,-4.7309,-4.7309,-4.7309,-4.7309,-4.7309,-4.7309,-4.7309,-4.7309,-4.7309,-4.7309,-4.7309,-4.7309,-4.7309,-2.2148,-2.2949,-2.3945,-2.4316,-2.5996,-2.7754,-2.8555,-2.8965,-2.9512,-3.0664,-3.0684,-3.0391,-3.0078,-3.0273,0.0,-3.0234,-3.0586,-3.1441,-3.2907,-3.3077,-3.3789,-3.5727,-3.5945,-3.6108,-3.6565,-3.753,-3.8137,-3.8137,-3.9129,-3.9697,-3.9697,-3.9697,-3.9697,-3.9697,-3.9697,-3.9697,-3.9697,-3.9697,-3.9697,-3.9697,-3.9697,-3.9697,-3.9697,-3.9697,-3.9697,-3.9697,-3.9697,-3.9697,-3.9697,-3.9697,-3.9697,-3.9697,-3.9697,-3.9697,-3.9697,-3.9697,-3.9697,-3.9697,-3.9697,-3.9697,-3.9697,-3.9697,-3.9697,-3.9697,-3.9697,-3.9697,-3.9697,-3.9697,-3.9697,-3.9697,-3.9697,-3.9697,-3.9697,-3.9697,-3.9697,-3.9697,-3.9697,-3.9697,-3.9697,-3.9697,-3.9697,-3.9826,-4.0211,-4.0262,-4.0693,-4.1985,-4.2181,-4.293,-4.5115,-4.5389,-4.5869,-4.7149,-4.7309,-4.7309,-4.7309,-4.7309,-4.7309,-4.7309,-4.7309,-4.7309,-4.7309,-4.7309,-4.7309,-4.7309,-4.7309,-4.7309,-4.7309,-4.7309,-4.7309,-4.7309,-4.7309,-4.7309,-2.2422,-2.3379,-2.459,-2.5273,-2.6875,-2.8535,-2.9492,-2.9902,-3.0254,-3.0781,-3.0742,-3.0586,-3.0488,-3.0547,0.0,-3.0488,-3.0703,-3.1228,-3.2092,-3.2207,-3.2758,-3.4236,-3.4403,-3.4681,-3.5233,-3.6108,-3.6649,-3.6649,0.0,0.0,0.0,-3.7926,-3.7926,-3.7926,-3.7926,-3.7926,-3.7926,-3.853,-3.8816,-3.8844,-3.9413,-3.9697,-3.9697,-3.9697,-3.9697,-3.9697,-3.9697,-3.9697,-3.9697,-3.9697,-3.9697,-3.9697,-3.9697,-3.9697,-3.9697,-3.9697,-3.9697,-3.9697,-3.9697,-3.9697,-3.9697,-3.9697,-3.9697,-3.9697,-3.9697,-3.9697,-3.9697,-3.9697,-3.9697,-3.9697,-3.9697,-3.9697,-3.9697,-3.9697,-3.9697,-3.9697,-3.9697,-3.9697,-3.9697,-3.9697,-3.9697,-3.9697,-3.9697,-3.9697,-3.9981,-4.0743,-4.1269,-4.2181,-4.3693,-4.4303,-4.4932,-4.5734,-4.5779,-4.5779,-4.5779,-4.5779,-4.6003,-4.6506,-4.655,-4.677,-4.7266,-4.7309,-4.7309,-4.7309,-4.7309,-4.7309,-4.7309,-4.7309,-4.7309,-4.7309,-4.7309,-4.7309,-2.3032,-2.3769,-2.4883,-2.6582,-2.7754,-2.8887,-3.0527,-3.0898,-3.0898,-3.0898,-3.0547,-3.0391,-3.082,-3.0547,-3.0391,-3.082,-3.0898,-3.0898,-3.0898,-3.0898,-3.1383,-3.2758,-3.2907,-3.3417,-3.4736,0.0,0.0,0.0,0.0,0.0,-3.5288,-3.5288,-3.5288,-3.5288,-3.5288,-3.5288,-3.5288,-3.6649,-3.7293,-3.7293,-3.8635,-3.931,-3.931,-3.9594,-3.9697,-3.9697,-3.9697,-3.9697,-3.9697,-3.9697,-3.9697,-3.9697,-3.9697,-3.9697,-3.9697,-3.9697,-3.9697,-3.9697,-3.9697,-3.9697,-3.9697,-3.9697,-3.9697,-3.9697,-3.9697,-3.9697,-3.9697,-3.9697,-3.9697,-3.9697,-3.9697,-3.9697,-3.9697,-3.9697,-3.9697,-3.9697,-3.9697,-3.9697,-3.9697,-3.9697,-3.9697,-3.9697,-3.9697,-3.9697,-3.9697,-3.9697,-4.0693,-4.1468,-4.1591,-4.2593,-4.3361,-4.3504,-4.3504,-4.3504,-4.3504,-4.3504,-4.3975,-4.5161,-4.5207,-4.5734,-4.6931,-4.7149,-4.7309,-4.7309,-4.7309,-4.7309,-4.7309,-4.7309,-4.7309,-4.7309,-4.7309,-4.7309,-2.2617,-2.3769,-2.5273,-2.666,-2.8418,-2.998,-3.0723,-3.0898,-3.0898,-3.0898,-3.082,-3.0762,-3.0879,-3.082,-3.0781,-3.0879,-3.0898,-3.0898,-3.0898,-3.0898,-3.0995,-3.1325,-3.1383,-3.1498,0.0,0.0,0.0,0.0,0.0,0.0,-3.5288,-3.5288,-3.5288,-3.5288,-3.5288,-3.5288,-3.5288,-3.5617,-3.5781,0.0,-3.6108,-3.6217,-3.6325,-3.8635,-3.9697,-3.9697,-3.9697,-3.9697,-3.9697,-3.9697,-3.9697,-3.9697,-3.9697,-3.9697,-3.9697,-3.9697,-3.9697,-3.9697,-3.9697,-3.9697,-3.9697,-3.9697,-3.9697,-3.9697,-3.9697,-3.9697,-3.9697,-3.9697,-3.9697,-3.9697,-3.9697,-3.9697,-3.9697,-3.9697,-3.9697,-3.9697,-3.9697,-3.9697,-3.9697,-3.9697,-3.9697,-3.9697,-3.9697,-3.9697,-3.9697,-3.9697,-3.9929,-4.0465,-4.1468,-4.1838,-4.2398,-4.3409,-4.3504,-4.3504,-4.3504,-4.3504,-4.3646,-4.3882,-4.3929,-4.4022,-4.4303,-4.6255,-4.7309,-4.7309,-4.7309,-4.7309,-4.7309,-4.7309,-4.7309,-4.7309,-4.7309,-4.7309,-2.2715,-2.4082,-2.584,-2.7754,-2.9219,-3.0312,-3.0781,-3.0898,-3.0898,-3.0898,-3.0898,-3.0898,-3.0898,-3.0898,-3.0898,-3.0898,-3.0898,-3.0898,-3.0898,-3.0898,-3.0898,-3.0898,-3.0898,0.0,0.0,0.0,0.0,0.0,0.0,-3.3212,-3.3212,-3.3212,-3.3212,-3.3212,-3.3212,-3.3212,-3.3212,-3.3901,-3.4236,-3.4236,-3.4958,-3.5288,-3.5343,-3.6888,-3.7979,-3.8635,-3.8635,-3.9077,-3.9697,-3.9697,-3.9697,-3.9697,-3.9697,-3.9697,-3.9697,-3.9697,-3.9697,-3.9697,-3.9697,-3.9697,-3.9697,-3.9697,-3.9697,-3.9697,-3.9697,-3.9697,-3.9697,-3.9697,-3.9697,-3.9697,-3.9697,-3.9697,-3.9697,-3.9697,-3.9697,-3.9697,-3.9697,-3.9697,-3.9697,-3.9697,-3.9697,-3.9697,-3.9697,-3.9697,-3.9697,-3.9697,-3.9697,-3.9929,-4.0592,-4.0693,-4.0945,-4.1591,-4.169,-4.169,-4.169,-4.169,-4.1936,-4.2544,-4.2593,-4.2882,-4.3456,-4.4794,-4.5779,-4.6388,-4.6388,-4.6682,-4.7309,-4.7309,-4.7309,-4.7309,-4.7309,-4.7309,-2.2582,-2.4199,-2.6259,-2.875,-2.9785,-3.0293,-3.0684,-3.084,-3.0898,-3.0898,-3.0898,-3.0898,-3.0898,-3.0898,-3.0898,-3.0898,-3.0898,-3.0898,-3.0898,-3.0898,-3.0898,-3.0898,-3.0898,0.0,0.0,0.0,0.0,0.0,0.0,-3.0898,-3.0898,-3.0898,-3.0898,-3.0898,-3.0898,-3.0898,-3.0898,-3.2092,-3.2701,-3.2758,-3.3979,-3.4536,-3.4536,-3.4536,-3.5508,-3.7133,-3.74,-3.819,-3.9362,-3.9594,-3.9697,-3.9697,-3.9697,-3.9697,-3.9697,-3.9697,-3.9697,-3.9697,-3.9697,-3.9697,-3.9697,-3.9697,-3.9697,-3.9697,-3.9697,-3.9697,-3.9697,-3.9697,-3.9697,-3.9697,-3.9697,-3.9697,-3.9697,-3.9697,-3.9697,-3.9697,-3.9697,-3.9697,-3.9697,-3.9697,-3.9697,-3.9697,-3.9697,-3.9697,-3.9697,-3.9697,-3.9697,-3.9697,-3.9697,-3.9697,-3.9697,-3.9697,-3.9697,-3.9697,-3.9697,-3.9697,-4.0185,-4.1219,-4.1269,-4.1739,-4.2786,-4.2834,-4.3456,-4.472,-4.4978,-4.5598,-4.6638,-4.6638,-4.677,-4.6975,-4.6975,-4.7062,-2.1036,-2.3281,-2.6122,-2.8008,-2.9336,-3.0215,-3.0273,-3.0605,-3.0898,-3.0898,-3.0898,-3.0898,-3.0898,-3.0898,-3.0898,-3.0898,-3.0898,-3.0898,-3.0898,-3.0898,-3.0898,-3.0898,0.0,0.0,0.0,0.0,0.0,0.0,-3.0898,-3.0898,-3.0898,-3.0898,-3.0898,-3.0898,-3.0898,-3.0898,-3.0898,-3.1112,-3.117,-3.1228,-3.1383,-3.1498,-3.1498,-3.1498,-3.2985,-3.5672,-3.6972,-3.7636,-3.7902,-3.9181,-3.9697,-3.9697,-3.9697,-3.9697,-3.9697,-3.9697,-3.9697,-3.9697,-3.9697,-3.9697,-3.9697,-3.9697,-3.9697,-3.9697,-3.9697,-3.9697,-3.9697,-3.9697,-3.9697,-3.9697,-3.9697,-3.9697,-3.9697,-3.9697,-3.9697,-3.9697,-3.9697,-3.9697,-3.9697,-3.9697,-3.9697,-3.9697,-3.9697,-3.9697,-3.9697,-3.9697,-3.9697,-3.9697,-3.9697,-3.9697,-3.9697,-3.9697,-3.9697,-3.9697,-3.9697,-3.9697,-3.98,-3.9929,-3.9929,-4.0032,-4.0211,-4.0211,-4.0794,-4.2084,-4.317,-4.3834,-4.4022,-4.4022,-4.4581,-4.5644,-4.5644,-4.6255,-2.1906,-2.3204,-2.4781,-2.7577,-2.8711,-2.9258,-2.9746,-3.0,-3.0215,-3.0449,-3.0508,-3.0586,-3.084,-3.0898,-3.0898,-3.0898,-3.0898,-3.0898,-3.0898,-3.0898,-3.0898,-3.0898,0.0,0.0,0.0,0.0,0.0,0.0,-3.0898,-3.0898,-3.0898,-3.0898,-3.0898,-3.0898,-3.0898,-3.0898,-3.0898,-3.0898,-3.0898,-3.0898,-3.0898,-3.0898,-3.0898,-3.0898,-3.2035,-3.4125,-3.4714,-3.5485,-3.6325,-3.6996,-3.721,-3.7317,-3.8137,-3.8477,-3.8582,-3.9413,-3.9697,-3.9697,-3.9697,-3.9697,-3.9697,-3.9697,-3.9697,-3.9697,-3.9697,-3.9697,-3.9697,-3.9697,-3.9697,-3.9697,-3.9697,-3.9697,-3.9697,-3.9697,-3.9697,-3.9697,-3.9697,-3.9697,-3.9697,-3.9697,-3.9697,-3.9697,-3.9697,-3.9697,-3.9697,-3.9697,-3.9697,-3.9697,-3.9697,-3.9697,-3.9697,-3.9697,-3.9697,-3.9697,-3.9697,-3.9697,-3.9697,-3.9697,-3.9697,-3.9697,-3.9697,-3.9697,-3.9981,-4.0516,-4.1789,-4.2786,-4.3504,-4.3504,-4.3787,-4.4349,-4.4349,-4.5024,-2.1802,-2.2483,-2.2972,-2.6276,-2.7505,-2.8203,-2.9043,-2.9336,-2.9531,0.0,-3.0117,-3.0293,-3.0644,-3.082,-3.0898,-3.0898,-3.0898,-3.0898,-3.0898,-3.0898,-3.0898,0.0,0.0,0.0,0.0,0.0,0.0,0.0,-3.0898,-3.0898,-3.0898,-3.0898,-3.0898,-3.0898,-3.0898,-3.0898,-3.0898,-3.0898,-3.0898,-3.0898,-3.0898,-3.0898,-3.0898,-3.0898,-3.1498,-3.2587,-3.2907,-3.3733,-3.4792,-3.5123,-3.5288,-3.5398,-3.6487,-3.6918,-3.7133,-3.8582,-3.9129,-3.9181,-3.9569,-3.9697,-3.9697,-3.9697,-3.9697,-3.9697,-3.9697,-3.9697,-3.9697,-3.9697,-3.9697,-3.9697,-3.9697,-3.9697,-3.9697,-3.9697,-3.9697,-3.9697,-3.9697,-3.9697,-3.9697,-3.9697,-3.9697,-3.9697,-3.9697,-3.9697,-3.9697,-3.9697,-3.9697,-3.9697,-3.9697,-3.9697,-3.9697,-3.9697,-3.9697,-3.9697,-3.9697,-3.9697,-3.9697,-3.9697,-3.9697,-3.9697,-3.9697,-3.9697,-3.9697,-3.9697,-4.0642,-4.1591,-4.2544,-4.2544,-4.2689,-4.3026,-4.3361,-4.4163,-1.8999,-2.0158,-2.1028,-2.3191,-2.5408,-2.7305,-2.8164,-2.8672,-2.9082,-2.9512,-2.9922,-3.0195,-3.0234,-3.0586,-3.0898,-3.0898,-3.0898,-3.0898,-3.0898,-3.0898,-3.0898,0.0,0.0,0.0,0.0,0.0,0.0,0.0,-3.0898,-3.0898,-3.0898,-3.0898,-3.0898,-3.0898,-3.0898,-3.0898,-3.0898,-3.0898,-3.0898,-3.0898,-3.0898,-3.0898,-3.0898,-3.0898,-3.0937,-3.1112,-3.2473,-3.3134,-3.3304,-3.4736,-3.5288,-3.5288,-3.5398,-3.5398,-3.5563,-3.7079,-3.7636,-3.7796,-3.9181,-3.9697,-3.9697,-3.9697,-3.9697,-3.9697,-3.9697,-3.9697,-3.9697,-3.9697,-3.9697,-3.9697,-3.9697,-3.9697,-3.9697,-3.9697,-3.9697,-3.9697,-3.9697,-3.9697,-3.9697,-3.9697,-3.9697,-3.9697,-3.9697,-3.9697,-3.9697,-3.9697,-3.9697,-3.9697,-3.9697,-3.9697,-3.9697,-3.9697,-3.9697,-3.9697,-3.9697,-3.9697,-3.9697,-3.9697,-3.9697,-3.9697,-3.9697,-3.9697,-3.9697,-3.9697,-3.98,-3.9826,-3.9878,-3.9878,-4.0516,-4.1739,-4.293,-4.4163,-1.7412,-1.8112,-1.8939,-2.2015,-2.3791,-2.5187,-2.6703,-2.7617,-2.8242,-2.8672,-2.9082,-2.9453,-2.9746,-3.0391,-3.0898,-3.0898,-3.0898,-3.0898,-3.0898,-3.0898,0.0,0.0,0.0,0.0,0.0,0.0,0.0,0.0,0.0,-3.0898,-3.0898,-3.0898,-3.0898,-3.0898,-3.0898,-3.0898,-3.0898,-3.0898,-3.0898,-3.0898,-3.0898,-3.0898,-3.0898,-3.0898,-3.0898,-3.0957,-3.1441,-3.171,-3.171,-3.2264,-3.2493,-3.255,-3.3529,-3.3901,-3.4069,-3.5563,-3.6703,-3.7583,-3.8084,-3.8921,-3.9697,-3.9697,-3.9697,-3.9697,-3.9697,-3.9697,-3.9697,-3.9697,-3.9697,-3.9697,-3.9697,-3.9697,-3.9697,-3.9697,-3.9697,-3.9697,-3.9697,-3.9697,-3.9697,-3.9697,-3.9697,-3.9697,-3.9697,-3.9697,-3.9697,-3.9697,-3.9697,-3.9697,-3.9697,-3.9697,-3.9697,-3.9697,-3.9697,-3.9697,-3.9697,-3.9697,-3.9697,-3.9697,-3.9697,-3.9697,-3.9697,-3.9697,-3.9697,-3.9697,-3.9697,-3.9697,-3.9697,-3.9697,-3.9929,-4.0415,-4.169,-4.2496,-1.5761,-1.633,-1.7177,-2.0013,-2.1578,-2.2972,-2.5017,-2.6184,-2.6992,-2.7715,-2.832,-2.8848,-2.9277,-2.9961,-3.0488,-3.0644,-3.0664,-3.0703,-3.0859,-3.0898,0.0,0.0,0.0,0.0,0.0,0.0,0.0,0.0,0.0,0.0,-3.0898,-3.0898,-3.082,-3.0664,-3.0527,-3.0508,-3.0644,-3.0664,-3.0742,-3.0898,-3.0898,-3.0898,-3.0898,-3.0898,-3.0898,-3.0898,-3.0898,-3.0898,-3.0898,-3.0898,-3.0898,-3.0995,-3.1998,-3.2358,-3.253,-3.4013,-3.5178,-3.6085,-3.6595,-3.7743,-3.8973,-3.8973,-3.931,-3.9697,-3.9697,-3.9697,-3.9697,-3.9697,-3.9697,-3.9697,-3.9697,-3.9697,-3.9697,-3.9697,-3.9697,-3.9697,-3.9697,-3.9697,-3.9697,-3.9697,-3.9697,-3.9697,-3.9697,-3.9697,-3.9697,-3.9697,-3.9697,-3.9697,-3.9697,-3.9697,-3.9697,-3.9697,-3.9697,-3.9697,-3.9697,-3.9697,-3.9697,-3.9697,-3.9697,-3.9697,-3.9697,-3.9697,-3.9697,-3.9697,-3.9697,-3.9697,-3.9697,-3.9697,-3.9697,-3.9749,-4.1019,-4.1838,0.0,0.0,0.0,-1.7038,-1.8829,-2.0898,-2.3136,0.0,-2.5391,-2.6699,-2.7637,-2.8359,-2.8809,-2.9238,-2.9648,-3.0078,-3.0176,-3.0351,-3.0801,-3.0859,0.0,0.0,0.0,0.0,0.0,0.0,0.0,0.0,-3.0898,-3.0898,-3.0898,-3.0879,-3.0664,-3.0195,-2.9785,-2.9766,-3.0176,-3.0176,-3.041,-3.0859,-3.0859,-3.0879,-3.0898,-3.0898,-3.0898,-3.0898,-3.0898,-3.0898,-3.0898,-3.0898,-3.0898,-3.0898,-3.0898,-3.0898,-3.1054,-3.253,-3.3077,-3.3304,-3.4736,-3.6217,-3.7423,-3.7423,-3.8425,-3.9645,-3.9645,-3.9697,-3.9697,-3.9697,-3.9697,-3.9697,-3.9697,-3.9697,-3.9697,-3.9697,-3.9697,-3.9697,-3.9697,-3.9697,-3.9697,-3.9697,-3.9697,-3.9697,-3.9697,-3.9697,-3.9697,-3.9697,-3.9697,-3.9697,-3.9697,-3.9697,-3.9697,-3.9697,-3.9697,-3.9697,-3.9697,-3.9697,-3.9697,-3.9697,-3.9697,-3.9697,-3.9697,-3.9697,-3.9697,-3.9697,-3.9697,-3.9697,-3.9697,-3.9697,-3.9697,-3.9749,-4.0995,-4.223,-1.3502,0.0,0.0,0.0,0.0,0.0,0.0,0.0,-2.3608,-2.5625,-2.622,-2.6758,-2.7812,-2.8105,-2.8437,-2.916,-2.9531,-2.9902,-3.0332,0.0,0.0,0.0,0.0,0.0,0.0,0.0,0.0,0.0,-3.0898,-3.0898,-3.0898,-3.0566,-3.0195,-2.9766,-2.9629,-2.9629,-2.9746,-2.9746,-2.9961,-3.0391,-3.0391,-3.0566,-3.0898,-3.0898,-3.0898,-3.0898,-3.0898,-3.0898,-3.0898,-3.0898,-3.0898,-3.0898,-3.0898,-3.0898,-3.0937,-3.1383,-3.2207,-3.3191,-3.3564,-3.4681,-3.589,-3.589,-3.6918,-3.8137,-3.8137,-3.8844,-3.9697,-3.9697,-3.9697,-3.9697,-3.9697,-3.9697,-3.9697,-3.9697,-3.9697,-3.9697,-3.9697,-3.9697,-3.9697,-3.9697,-3.9697,-3.9697,-3.9697,-3.9697,-3.9697,-3.9697,-3.9697,-3.9697,-3.9697,-3.9697,-3.9697,-3.9697,-3.9697,-3.9697,-3.9697,-3.9697,-3.9697,-3.9697,-3.9697,-3.9697,-3.9697,-3.9697,-3.9697,-3.9697,-3.9697,-3.9697,-3.9697,-3.9697,-3.9697,-3.9697,-4.0083,-4.0895,-1.3669,-1.3906,-1.471,-1.5489,0.0,0.0,-2.0262,-2.159,-2.2832,0.0,-2.5332,-2.5801,-2.6934,-2.718,-2.7422,-2.8262,-2.8613,-2.9043,-2.9824,0.0,0.0,0.0,0.0,0.0,0.0,-3.0898,-3.0898,-3.0898,-3.0898,-3.0801,-3.0605,-3.0,-2.9551,-2.9297,-2.9121,-2.9121,-2.9297,-2.9297,-2.9609,-3.0195,-3.0195,-3.0449,-3.0898,-3.0898,-3.0898,-3.0898,-3.0898,-3.0898,-3.0898,-3.0898,-3.0898,-3.0898,-3.0898,-3.0898,-3.0898,-3.0898,-3.1441,-3.2207,-3.2207,-3.3134,-3.4403,-3.4403,-3.5398,-3.6703,-3.7293,-3.8084,-3.8921,-3.9517,-3.9697,-3.9697,-3.9697,-3.9697,-3.9697,-3.9697,-3.9697,-3.9697,-3.9697,-3.9697,-3.9697,-3.9697,-3.9697,-3.9697,-3.9697,-3.9697,-3.9697,-3.9697,-3.9697,-3.9697,-3.9697,-3.9697,-3.9697,-3.9697,-3.9697,-3.9697,-3.9697,-3.9697,-3.9697,-3.9697,-3.9697,-3.9697,-3.9697,-3.9697,-3.9697,-3.9697,-3.9697,-3.9697,-3.9697,-3.9697,-3.9697,-3.9697,-3.9697,-4.0083,-1.431,-1.4273,-1.4899,-1.5276,-1.6242,0.0,-1.9177,-2.0846,-2.2385,0.0,-2.4392,-2.5031,-2.5709,-2.5982,-2.6303,-2.715,-2.7324,-2.7863,0.0,0.0,0.0,0.0,0.0,0.0,-3.082,-3.0859,-3.0898,-3.0898,-3.084,-3.0586,-3.0078,-2.9336,-2.8906,-2.8848,-2.8496,-2.8476,-2.8848,-2.8848,-2.9258,-3.0059,-3.0059,-3.0312,-3.082,-3.082,-3.084,-3.0898,-3.0898,-3.0898,-3.0898,-3.0898,-3.0898,-3.0898,-3.0898,-3.0898,-3.0898,-3.0898,-3.0898,-3.0898,-3.0898,-3.1767,-3.2851,-3.2851,-3.3845,-3.5288,-3.6595,-3.724,-3.7796,-3.9285,-3.9697,-3.9697,-3.9697,-3.9697,-3.9697,-3.9697,-3.9697,-3.9697,-3.9697,-3.9697,-3.9697,-3.9697,-3.9697,-3.9697,-3.9697,-3.9697,-3.9697,-3.9697,-3.9697,-3.9697,-3.9697,-3.9697,-3.9697,-3.9697,-3.9697,-3.9697,-3.9697,-3.9697,-3.9697,-3.9697,-3.9697,-3.9697,-3.9697,-3.9697,-3.9697,-3.9697,-3.9697,-3.9697,-3.9697,-3.9697,-3.9697,-3.9697,-3.9697,-3.9697,-1.5508,-1.5695,-1.6414,-1.5341,0.0,0.0,-1.7175,-1.8272,-1.9322,0.0,-2.1909,-2.2878,-2.2452,-2.3224,-2.4042,-2.4572,-2.4923,-2.6045,0.0,0.0,0.0,0.0,0.0,0.0,-3.0332,-3.0664,-3.0898,-3.0898,-3.0547,-3.0,-2.9219,-2.9004,-2.8769,-2.8418,-2.834,-2.834,-2.8418,-2.8418,-2.8672,-2.916,-2.916,-2.957,-3.0332,-3.0332,-3.0527,-3.0898,-3.0898,-3.0898,-3.0898,-3.0898,-3.0898,-3.0898,-3.0898,-3.0898,-3.0898,-3.0898,-3.0898,-3.0898,-3.0898,-3.1112,-3.1325,-3.1325,-3.2322,-3.3564,-3.3845,-3.5595,-3.7796,-3.9285,-3.9697,-3.9697,-3.9697,-3.9697,-3.9697,-3.9697,-3.9697,-3.9697,-3.9697,-3.9697,-3.9697,-3.9697,-3.9697,-3.9697,-3.9697,-3.9697,-3.9697,-3.9697,-3.9697,-3.9697,-3.9697,-3.9697,-3.9697,-3.9697,-3.9697,-3.9697,-3.9697,-3.9697,-3.9697,-3.9697,-3.9697,-3.9697,-3.9697,-3.9697,-3.9697,-3.9697,-3.9697,-3.9697,-3.9697,-3.9697,-3.9697,-3.9697,-3.9697,-3.9697,-1.7776,-1.7221,-1.7292,-1.6707,0.0,0.0,0.0,-1.8016,-1.8753,-1.9612,-2.0321,-2.0829,-2.0987,0.0,-2.268,-2.3463,-2.4263,-2.5362,0.0,0.0,0.0,0.0,0.0,0.0,-2.9883,-3.0098,-3.0234,-3.0234,-2.9824,-2.9375,-2.8945,-2.8711,-2.8516,-2.8301,-2.8301,-2.8301,-2.8301,-2.8301,-2.8496,-2.8926,-2.8926,-2.9375,-3.0195,-3.0195,-3.0449,-3.0898,-3.0898,-3.0898,-3.0898,-3.0898,-3.0898,-3.0898,-3.0898,-3.0898,-3.0898,-3.0898,-3.0898,-3.0898,-3.0898,-3.0898,-3.0898,-3.0898,-3.1383,-3.215,-3.2851,-3.5156,-3.7636,-3.84,-3.9129,-3.9697,-3.9697,-3.9697,-3.9697,-3.9697,-3.9697,-3.9697,-3.9697,-3.9697,-3.9697,-3.9697,-3.9697,-3.9697,-3.9697,-3.9697,-3.9697,-3.9697,-3.9697,-3.9697,-3.9697,-3.9697,-3.9697,-3.9697,-3.9697,-3.9697,-3.9697,-3.9697,-3.9697,-3.9697,-3.9697,-3.9697,-3.9697,-3.9697,-3.9697,-3.9697,-3.9697,-3.9697,-3.9697,-3.9697,-3.9697,-3.9697,-3.9697,-3.9697,0.0,0.0,0.0,0.0,0.0,-1.7113,0.0,0.0,0.0,-1.897,-1.9047,0.0,0.0,0.0,0.0,0.0,0.0,0.0,0.0,0.0,0.0,0.0,0.0,0.0,-2.9254,-2.9277,-2.9355,-2.9434,-2.8965,-2.8711,-2.8789,-2.8476,-2.8301,-2.8301,-2.8301,-2.8301,-2.8301,-2.8301,-2.8457,-2.8789,-2.8789,-2.9238,-3.0078,-3.0078,-3.0371,-3.0898,-3.0898,-3.0898,-3.0898,-3.0898,-3.0898,-3.0898,-3.0898,-3.0898,-3.0898,-3.0898,-3.0898,-3.0898,-3.0898,-3.0898,-3.0898,-3.0898,-3.0898,-3.117,-3.2644,-3.4936,-3.7133,-3.7423,-3.8582,-3.9697,-3.9697,-3.9697,-3.9697,-3.9697,-3.9697,-3.9697,-3.9697,-3.9697,-3.9697,-3.9697,-3.9697,-3.9697,-3.9697,-3.9697,-3.9697,-3.9697,-3.9697,-3.9697,-3.9697,-3.9697,-3.9697,-3.9697,-3.9697,-3.9697,-3.9697,-3.9697,-3.9697,-3.9697,-3.9697,-3.9697,-3.9697,-3.9697,-3.9697,-3.9697,-3.9697,-3.9697,-3.9697,-3.9697,-3.9697,-3.9697,-3.9697,-3.9697,0.0,0.0,0.0,0.0,-1.6855,0.0,0.0,0.0,-1.7348,-1.6174,0.0,0.0,0.0,0.0,0.0,0.0,0.0,0.0,0.0,0.0,0.0,0.0,0.0,0.0,0.0,-2.8223,-2.8594,-2.8965,-2.8262,-2.7969,-2.834,-2.832,-2.8301,-2.8301,-2.8301,-2.8301,-2.8301,-2.8301,-2.832,-2.8359,-2.8359,-2.8809,-2.9704,-2.9704,-3.0098,-3.0898,-3.0898,-3.0898,-3.0898,-3.0898,-3.0898,-3.0898,-3.0898,-3.0898,-3.0898,-3.0898,-3.0898,-3.0898,-3.0898,-3.0898,-3.0898,-3.0898,-3.0898,-3.117,-3.2644,-3.4236,-3.5836,-3.7133,-3.8582,-3.9697,-3.9697,-3.9697,-3.9697,-3.9697,-3.9697,-3.9697,-3.9697,-3.9697,-3.9697,-3.9697,-3.9697,-3.9697,-3.9697,-3.9697,-3.9697,-3.9697,-3.9697,-3.9697,-3.9697,-3.9697,-3.9697,-3.9697,-3.9697,-3.9697,-3.9697,-3.9697,-3.9697,-3.9697,-3.9697,-3.9697,-3.9697,-3.9697,-3.9697,-3.9697,-3.9697,-3.9697,-3.9697,-3.9697,-3.9697,-3.9697,-3.9697,-3.9697,0.0,0.0,0.0,0.0,0.0,0.0,-1.6059,0.0,-1.64,0.0,0.0,0.0,0.0,0.0,0.0,0.0,-1.8845,0.0,0.0,0.0,0.0,0.0,0.0,0.0,0.0,0.0,0.0,0.0,-2.748,-2.748,-2.791,-2.8164,-2.8301,-2.8301,-2.8301,-2.8301,-2.8301,-2.8301,-2.8301,-2.8301,-2.8301,-2.875,-2.9626,-2.9626,-3.0059,-3.0898,-3.0898,-3.0898,-3.0898,-3.0898,-3.0898,-3.0898,-3.0898,-3.0898,-3.0898,-3.0898,-3.0898,-3.0898,-3.0898,-3.0898,-3.0898,-3.0898,-3.0898,-3.0995,-3.1652,-3.3473,-3.5398,-3.6054,-3.7926,-3.9697,-3.9697,-3.9697,-3.9697,-3.9697,-3.9697,-3.9697,-3.9697,-3.9697,-3.9697,-3.9697,-3.9697,-3.9697,-3.9697,-3.9697,-3.9697,-3.9697,-3.9697,-3.9697,-3.9697,-3.9697,-3.9697,-3.9697,-3.9697,-3.9697,-3.9697,-3.9697,-3.9697,-3.9697,-3.9697,-3.9697,-3.9697,-3.9697,-3.9697,-3.9697,-3.9697,-3.9697,-3.9697,-3.9697,-3.9697,-3.9697,-3.9697,-3.9697,-2.4584,0.0,0.0,0.0,0.0,0.0,0.0,0.0,0.0,0.0,0.0,0.0,0.0,0.0,0.0,0.0,0.0,-1.9106,0.0,0.0,0.0,0.0,0.0,0.0,0.0,0.0,0.0,0.0,0.0,-2.6836,-2.7669,-2.7949,-2.8184,-2.8281,-2.8301,-2.8301,-2.8301,-2.8301,-2.8301,-2.8301,-2.8301,-2.875,-2.9626,-2.9626,-3.0059,-3.0898,-3.0898,-3.0898,-3.0898,-3.0898,-3.0898,-3.0898,-3.0898,-3.0898,-3.0898,-3.0898,-3.0898,-3.0898,-3.0898,-3.0898,-3.0898,-3.0898,-3.0898,-3.0898,-3.0898,-3.2644,-3.4792,-3.5178,-3.7156,-3.9181,-3.9594,-3.9697,-3.9697,-3.9697,-3.9697,-3.9697,-3.9697,-3.9697,-3.9697,-3.9697,-3.9697,-3.9697,-3.9697,-3.9697,-3.9697,-3.9697,-3.9697,-3.9697,-3.9697,-3.9697,-3.9697,-3.9697,-3.9697,-3.9697,-3.9697,-3.9697,-3.9697,-3.9697,-3.9697,-3.9697,-3.9697,-3.9697,-3.9697,-3.9697,-3.9697,-3.9697,-3.9697,-3.9697,-3.9697,-3.9697,-3.9697,-3.9697,0.0,0.0,0.0,-1.9403,0.0,0.0,0.0,0.0,-1.6513,0.0,0.0,0.0,0.0,0.0,0.0,0.0,0.0,0.0,0.0,0.0,0.0,0.0,0.0,0.0,0.0,0.0,-2.5019,0.0,-2.5654,0.0,-2.763,-2.7728,-2.7924,-2.8281,-2.8301,-2.8301,-2.8301,-2.8301,-2.8301,-2.8301,-2.8301,-2.875,-2.9626,-2.9626,-3.0059,-3.0898,-3.0898,-3.0898,-3.0898,-3.0898,-3.0898,-3.0898,-3.0898,-3.0898,-3.0898,-3.0898,-3.0898,-3.0898,-3.0898,-3.0898,-3.0898,-3.0898,-3.0898,-3.0898,-3.0898,-3.1977,-3.3473,-3.4902,-3.6379,-3.7902,-3.9362,-3.9697,-3.9697,-3.9697,-3.9697,-3.9697,-3.9697,-3.9697,-3.9697,-3.9697,-3.9697,-3.9697,-3.9697,-3.9697,-3.9697,-3.9697,-3.9697,-3.9697,-3.9697,-3.9697,-3.9697,-3.9697,-3.9697,-3.9697,-3.9697,-3.9697,-3.9697,-3.9697,-3.9697,-3.9697,-3.9697,-3.9697,-3.9697,-3.9697,-3.9697,-3.9697,-3.9697,-3.9697,-3.9697,-3.9697,-3.9697,-3.9697,0.0,0.0,-2.4561,-2.2927,0.0,0.0,0.0,0.0,0.0,0.0,0.0,0.0,0.0,0.0,0.0,0.0,0.0,0.0,0.0,0.0,0.0,0.0,0.0,0.0,0.0,0.0,0.0,0.0,-2.5282,0.0,-2.6758,-2.7415,-2.7787,-2.7924,-2.8144,-2.8301,-2.8301,-2.8301,-2.8301,-2.8301,-2.8301,-2.875,-2.9626,-2.9626,-3.0059,-3.0898,-3.0898,-3.0898,-3.0898,-3.0898,-3.0898,-3.0898,-3.0898,-3.0898,-3.0898,-3.0898,-3.0898,-3.0898,-3.0898,-3.0898,-3.0898,-3.0898,-3.0898,-3.0898,-3.0898,-3.194,-3.3417,-3.4902,-3.6379,-3.7849,-3.931,-3.9697,-3.9697,-3.9697,-3.9697,-3.9697,-3.9697,-3.9697,-3.9697,-3.9697,-3.9697,-3.9697,-3.9697,-3.9697,-3.9697,-3.9697,-3.9697,-3.9697,-3.9697,-3.9697,-3.9697,-3.9697,-3.9697,-3.9697,-3.9697,-3.9697,-3.9697,-3.9697,-3.9697,-3.9697,-3.9697,-3.9697,-3.9697,-3.9697,-3.9697,-3.9697,-3.9697,-3.9697,-3.9697,-3.9697,-3.9697,-3.9697,-2.7812,-2.7374,0.0,-2.4631,-2.339,0.0,-1.8974,0.0,0.0,0.0,0.0,0.0,0.0,0.0,0.0,0.0,0.0,0.0,0.0,-1.6527,0.0,0.0,0.0,0.0,0.0,0.0,-2.3848,-2.457,-2.4656,0.0,0.0,-2.6836,-2.7395,-2.7708,-2.8066,-2.8301,-2.8301,-2.8301,-2.8301,-2.8301,-2.8301,-2.875,-2.9626,-2.9626,-3.0059,-3.0898,-3.0898,-3.0898,-3.0898,-3.0898,-3.0898,-3.0898,-3.0898,-3.0898,-3.0898,-3.0898,-3.0898,-3.0898,-3.0898,-3.0898,-3.0898,-3.0898,-3.0898,-3.0898,-3.0898,-3.1556,-3.2644,-3.4069,-3.5563,-3.7026,-3.853,-3.931,-3.9697,-3.9697,-3.9697,-3.9697,-3.9697,-3.9697,-3.9697,-3.9697,-3.9697,-3.9697,-3.9697,-3.9697,-3.9697,-3.9697,-3.9697,-3.9697,-3.9697,-3.9697,-3.9697,-3.9697,-3.9697,-3.9697,-3.9697,-3.9697,-3.9697,-3.9697,-3.9697,-3.9697,-3.9697,-3.9697,-3.9697,-3.9697,-3.9697,-3.9697,-3.9697,-3.9697,-3.9697,-3.9697,-3.9697,-3.9697]},{"header":{"parameterUnit":"m.s-1","parameterCategory":1,"la1":30.6,"la2":29.2853,"lo1":-89.7004,"lo2":-87.6739,"dy":0.0162,"dx":0.0183,"nx":112,"ny":82,"refTime":"2024-06-10T18:00:00:Z","depth":0,"parameterNumber":3,"parameterNumberName":"V-component_of_WINDS"},"data":[0.0,0.0,0.0,0.0,0.0,0.0,0.0,0.0,0.0,0.0,0.0,0.0,0.0,0.0,0.0,0.0,0.0,0.0,0.0,0.0,0.0,0.0,0.0,0.0,0.0,0.0,0.0,0.0,0.0,0.0,0.0,0.0,0.0,0.0,0.0,0.0,0.0,0.0,0.0,0.0,0.0,0.0,0.0,0.0,0.0,0.0,0.0,0.0,0.0,0.0,0.0,0.0,0.0,0.0,0.0,0.0,0.0,0.0,0.0,0.0,0.0,0.0,0.0,0.0,0.0,0.0,0.0,0.0,0.0,0.0,0.0,0.0,0.0,0.0,0.0,0.0,0.0,0.0,0.0,0.0,0.0,0.0,0.0,0.0,0.0,0.0,0.0,0.0,0.0,0.0,1.449,1.3477,1.4004,1.381,1.2223,1.3092,1.2168,0.8583,0.0,0.0,0.0,0.0,0.0,0.0,0.0,0.0,0.0,0.0,0.0,0.0,0.0,0.0,0.0,0.0,0.0,0.0,0.0,0.0,0.0,0.0,0.0,0.0,0.0,0.0,0.0,0.0,0.0,0.0,0.0,0.0,0.0,0.0,0.0,0.0,0.0,0.0,0.0,0.0,0.0,0.0,0.0,0.0,0.0,0.0,0.0,0.0,0.0,0.0,0.0,0.0,0.0,0.0,0.0,0.0,0.0,0.0,0.0,0.0,0.0,0.0,0.0,0.0,0.0,0.0,0.0,0.0,0.0,0.0,0.0,0.0,0.0,0.0,0.0,0.0,0.0,0.0,0.0,0.0,0.0,0.0,0.0,0.0,0.0,0.0,0.0,0.0,0.0,0.0,0.0,0.0,0.0,0.0,0.0,0.0,0.0,0.0,0.0,0.0,0.0,0.0,0.0,0.0,1.4411,1.4838,1.4256,1.3695,1.3289,1.4094,1.355,1.1086,0.0,0.0,0.0,0.0,0.0,0.0,0.0,0.0,0.0,0.0,0.0,0.0,0.0,0.0,0.0,0.0,0.0,0.0,0.0,0.0,0.0,0.0,0.0,0.0,0.0,0.0,0.0,0.0,0.0,0.0,0.0,0.0,0.0,0.0,0.0,0.0,0.0,0.0,0.0,0.0,0.0,0.0,0.0,0.0,0.0,0.0,0.0,0.0,0.0,0.0,0.0,0.0,0.0,0.0,0.0,0.0,0.0,0.0,0.0,0.0,0.0,0.0,0.0,0.0,0.0,0.0,0.0,0.0,0.0,0.0,0.0,0.0,0.0,0.0,0.0,0.0,0.0,0.0,0.0,0.0,0.0,0.0,0.0,0.0,0.0,0.0,0.0,0.0,0.0,0.0,0.0,0.0,0.0,0.0,0.0,0.0,0.0,0.0,0.0,0.0,0.0,0.0,0.0,1.4923,1.5639,1.6627,1.6484,1.587,1.4889,1.5606,1.4803,1.1694,1.0922,0.0,0.0,0.0,0.0,0.0,0.0,0.0,0.0,0.0,0.0,0.0,0.0,0.0,0.0,0.0,0.0,0.0,0.0,0.0,0.0,0.0,0.0,0.0,0.0,0.0,0.0,0.0,0.0,0.0,0.0,0.0,0.0,0.0,0.0,0.0,0.0,0.0,0.0,0.0,0.0,0.0,0.0,0.0,0.0,0.0,0.0,0.0,0.0,0.0,0.0,0.0,0.0,0.0,0.0,0.0,0.0,0.0,0.0,0.0,0.0,0.0,0.0,0.0,0.0,0.0,0.0,0.0,0.0,0.0,0.0,0.0,0.0,0.0,0.0,0.0,0.0,0.0,0.0,0.0,0.0,0.0,0.0,0.0,0.0,0.0,0.0,0.0,0.0,0.0,0.0,0.0,0.0,0.0,0.0,0.0,0.0,0.0,0.0,0.0,0.0,0.0,0.0,1.6019,1.678,1.7822,1.8143,1.7733,1.6392,1.6665,1.5579,1.2516,1.2134,0.0,0.0,0.0,0.0,0.0,0.0,0.0,0.0,0.0,0.0,0.0,0.0,0.0,0.0,0.0,0.0,0.0,0.0,0.0,0.0,0.0,0.0,0.0,0.0,0.0,0.0,0.0,0.0,0.0,0.0,0.0,0.0,0.0,0.0,0.0,0.0,0.0,0.0,0.0,0.0,0.0,0.0,0.0,0.0,0.0,0.0,0.0,0.0,0.0,0.0,0.0,0.0,0.0,0.0,0.0,0.0,0.0,0.0,0.0,0.0,0.0,0.0,0.0,0.0,0.0,0.0,0.0,0.0,0.0,0.0,0.0,0.0,0.0,0.0,0.0,0.0,0.0,0.0,0.0,0.0,0.0,0.0,0.0,0.0,0.0,0.0,0.0,0.0,0.0,0.0,0.0,0.0,0.0,0.0,0.0,0.0,0.0,0.0,0.0,0.0,0.0,0.0,1.5818,1.6914,1.7542,1.7635,1.7635,1.7503,1.6517,1.5564,1.4805,1.3173,0.0,0.0,0.0,0.0,0.0,0.0,0.0,0.0,0.0,0.0,0.0,0.0,0.0,0.0,0.0,0.0,0.0,0.0,0.0,0.0,0.0,0.0,0.0,0.0,0.0,0.0,0.0,0.0,0.0,0.0,0.0,0.0,0.0,0.0,0.0,0.0,0.0,0.0,0.0,0.0,0.0,0.0,0.0,0.0,0.0,0.0,0.0,0.0,0.0,0.0,0.0,0.0,0.0,0.0,0.0,0.0,0.0,0.0,0.0,0.0,0.0,0.0,0.0,0.0,0.0,0.0,0.0,0.0,0.0,0.0,0.0,0.0,0.0,0.0,0.0,0.0,0.0,0.0,0.0,0.0,0.0,0.0,0.0,0.0,0.0,0.0,0.0,0.0,0.0,0.0,0.0,0.0,0.0,0.0,0.0,0.0,0.0,0.0,0.0,0.0,0.0,0.0,1.5364,1.646,0.0,1.7475,1.7515,1.738,1.674,1.5818,1.4496,0.0,0.0,0.0,0.0,0.0,0.0,0.0,0.0,0.0,0.0,0.0,0.0,0.0,0.0,0.0,0.0,0.0,0.0,0.0,0.0,0.0,0.0,0.0,0.0,0.0,0.0,0.0,0.0,0.0,0.0,0.0,0.0,0.0,0.0,0.0,0.0,0.0,0.0,0.0,0.0,0.0,0.0,0.0,0.0,0.0,0.0,0.0,0.0,0.0,0.0,0.0,0.0,0.0,0.0,0.0,0.0,0.0,0.0,0.0,0.0,0.0,0.0,0.0,0.0,0.0,0.0,0.0,0.0,0.0,0.0,0.0,0.0,0.0,0.0,0.0,0.0,0.0,0.0,0.0,0.0,0.0,0.0,0.0,0.0,0.0,0.0,0.0,0.0,0.0,0.0,0.0,0.0,0.0,0.0,0.0,0.0,0.0,0.0,0.0,0.0,0.0,0.0,1.3788,1.5217,1.638,0.0,1.746,1.7514,1.7233,1.67,1.5765,1.4188,0.0,0.0,0.0,0.0,0.0,0.0,0.0,0.0,0.0,0.0,0.0,0.0,0.0,0.0,0.0,0.0,0.0,0.0,0.0,0.0,0.0,0.0,0.0,0.0,0.0,0.0,0.0,0.0,0.0,0.0,0.0,0.0,0.0,0.0,0.0,0.0,0.0,0.0,0.0,0.0,0.0,0.0,0.0,0.0,0.0,0.0,0.0,0.0,0.0,0.0,0.0,0.0,0.0,0.0,0.0,0.0,0.0,0.0,0.0,0.0,0.0,0.0,0.0,0.0,0.0,0.0,0.0,0.0,0.0,0.0,0.0,0.0,0.0,0.0,0.0,0.0,0.0,0.0,0.0,0.0,0.0,0.0,0.0,0.0,0.0,0.0,0.0,0.0,0.0,0.0,0.0,0.0,0.0,0.0,0.0,0.0,0.0,0.0,0.0,0.0,0.0,0.0,1.352,1.5431,1.682,1.7166,1.746,1.7514,1.7219,1.6339,1.5337,0.0,0.0,0.0,0.0,0.0,0.0,0.0,0.0,0.0,0.0,0.0,0.0,0.0,0.0,0.0,0.0,0.0,0.0,0.0,0.0,0.0,0.0,0.0,0.0,0.0,0.0,0.0,0.0,0.0,0.0,0.0,0.0,0.0,0.0,0.0,0.0,0.0,0.0,0.0,0.0,0.0,0.0,0.0,0.0,0.0,0.0,0.0,0.0,0.0,0.0,0.0,0.0,0.0,0.0,0.0,0.0,0.0,0.0,0.0,0.0,0.0,0.0,0.0,0.0,0.0,0.0,0.0,0.0,0.0,0.0,0.0,0.0,0.0,0.0,0.0,0.0,0.0,0.0,0.0,0.0,0.0,0.0,0.0,0.0,0.0,0.0,0.0,0.0,0.0,0.0,0.0,0.0,0.0,0.0,0.0,0.0,0.0,0.0,0.0,0.0,0.0,0.0,0.0,1.3227,1.5311,1.674,1.6834,1.7152,1.7206,1.686,1.6406,1.5378,1.3587,0.0,0.0,0.0,0.0,0.0,0.0,0.0,0.0,0.0,0.0,0.0,0.0,0.0,0.0,0.0,0.0,0.0,0.0,0.0,0.0,0.0,0.0,0.0,0.0,0.0,0.0,0.0,0.0,0.0,0.0,0.0,0.0,0.0,0.0,0.0,0.0,0.0,0.0,0.0,0.0,0.0,0.0,0.0,0.0,0.0,0.0,0.0,0.0,0.0,0.0,0.0,0.0,0.0,0.0,0.0,0.0,0.0,0.0,0.0,0.0,0.0,0.0,0.0,0.0,0.0,0.0,0.0,0.0,0.0,0.0,0.0,0.0,0.0,0.0,0.0,0.0,0.0,0.0,0.0,0.0,0.0,0.0,0.0,0.0,0.0,0.0,0.0,0.0,0.0,0.0,0.0,0.0,0.0,0.0,0.0,0.0,0.0,0.0,0.0,0.0,0.0,0.0,1.3133,1.5257,1.67,1.67,1.7018,1.7072,1.6727,1.6433,1.5444,1.3467,0.0,0.0,0.0,0.0,0.0,0.0,0.0,0.0,0.0,0.0,0.0,0.0,0.0,0.0,0.0,0.0,0.0,0.0,0.0,0.0,0.0,0.0,0.0,0.0,0.0,0.0,0.0,0.0,0.0,0.0,0.0,0.0,0.0,0.0,0.0,0.0,0.0,0.0,0.0,0.0,0.0,0.0,0.0,0.0,0.0,0.0,0.0,0.0,0.0,0.0,0.0,0.0,0.0,0.0,0.0,0.0,0.0,0.0,0.0,0.0,0.0,0.0,0.0,0.0,0.0,0.0,0.0,0.0,0.0,0.0,0.0,0.0,0.0,0.0,0.0,0.0,0.0,0.0,0.0,0.0,0.0,0.0,0.0,0.0,0.0,0.0,0.0,0.0,0.0,0.0,0.0,0.0,0.0,0.0,0.0,0.0,0.0,0.0,0.0,0.0,0.0,0.0,1.3173,1.5244,1.666,1.666,1.6901,1.7005,1.6687,1.6393,1.5511,1.3786,0.0,0.0,0.0,0.0,0.0,0.0,0.0,0.0,0.0,0.0,0.0,0.0,0.0,0.0,0.0,0.0,0.0,0.0,0.0,0.0,0.0,0.0,0.0,0.0,0.0,0.0,0.0,0.0,0.0,0.0,0.0,0.0,0.0,0.0,0.0,0.0,0.0,0.0,0.0,0.0,0.0,0.0,0.0,0.0,0.0,0.0,0.0,0.0,0.0,0.0,0.0,0.0,0.0,0.0,0.0,0.0,0.0,0.0,0.0,0.0,2.3697,0.0,0.0,0.0,0.0,0.0,0.0,0.0,0.0,0.0,0.0,0.0,0.0,0.0,0.0,0.0,0.0,0.0,0.0,0.0,0.0,0.0,0.0,0.0,0.0,0.0,0.0,0.0,0.0,0.0,0.0,0.0,0.0,0.0,0.0,0.0,0.0,0.0,0.0,0.0,0.0,0.0,1.3427,1.5204,1.6366,1.6366,1.6469,1.6482,1.6366,1.6099,1.5471,1.4402,1.3561,0.0,0.0,0.0,0.0,0.0,0.0,0.0,0.0,0.0,0.0,0.0,0.0,0.0,0.0,0.0,0.0,0.0,0.0,0.0,0.0,0.0,0.0,0.0,0.0,0.0,0.0,0.0,0.0,0.0,0.0,0.0,0.0,0.0,0.0,0.0,0.0,0.0,0.0,0.0,0.0,0.0,0.0,0.0,0.0,0.0,0.0,0.0,0.0,0.0,0.0,0.0,0.0,0.0,0.0,0.0,0.0,0.0,0.0,0.0,0.0,2.471,0.0,0.0,0.0,0.0,0.0,0.0,0.0,0.0,0.0,0.0,0.0,0.0,0.0,0.0,0.0,0.0,0.0,0.0,0.0,0.0,0.0,0.0,0.0,0.0,0.0,0.0,0.0,0.0,0.0,0.0,0.0,0.0,0.0,0.0,0.0,0.0,0.0,0.0,0.0,0.0,1.4422,1.6594,1.7827,1.7216,1.7182,1.694,1.637,1.6005,1.5511,1.4776,1.4175,0.0,0.0,0.0,0.0,0.0,0.0,0.0,0.0,0.0,0.0,0.0,0.0,0.0,0.0,0.0,0.0,0.0,0.0,0.0,0.0,0.0,0.0,0.0,0.0,0.0,0.0,0.0,0.0,0.0,0.0,0.0,0.0,0.0,0.0,0.0,0.0,0.0,0.0,0.0,0.0,0.0,0.0,0.0,0.0,0.0,0.0,0.0,0.0,0.0,0.0,0.0,0.0,0.0,3.2516,3.2591,3.2943,3.2943,3.2943,3.2732,2.9326,2.811,2.8354,2.5307,0.0,0.0,0.0,0.0,0.0,0.0,0.0,0.0,0.0,0.0,0.0,0.0,0.0,0.0,0.0,0.0,0.0,0.0,0.0,0.0,0.0,0.0,0.0,0.0,2.207,2.1719,0.0,0.0,0.0,0.0,0.0,0.0,0.0,0.0,0.0,0.0,0.0,0.0,1.5932,1.827,1.9475,1.8453,1.8358,1.7945,1.6952,1.6619,1.6258,1.5802,1.5439,1.4769,0.0,0.0,0.0,0.0,0.0,0.0,0.0,0.0,0.0,0.0,0.0,0.0,0.0,0.0,0.0,0.0,0.0,0.0,0.0,0.0,0.0,0.0,0.0,0.0,0.0,0.0,0.0,0.0,0.0,0.0,0.0,0.0,2.6675,2.6424,0.0,0.0,0.0,0.0,0.0,0.0,0.0,0.0,0.0,0.0,0.0,0.0,0.0,3.3144,3.4173,3.5203,3.5504,3.5082,3.6006,3.6207,3.5852,3.5852,3.5852,3.578,3.4703,0.0,2.96,2.8314,0.0,0.0,0.0,0.0,0.0,0.0,0.0,0.0,0.0,0.0,0.0,0.0,0.0,0.0,0.0,0.0,0.0,0.0,0.0,0.0,0.0,0.0,2.3477,2.3906,2.4043,2.3887,0.0,2.125,1.9394,1.8442,1.794,0.0,0.0,0.0,0.0,0.0,0.0,0.0,1.806,1.9001,1.9471,1.9333,1.9333,1.9242,1.9104,1.9026,1.8991,1.891,1.837,1.8002,1.7849,1.6437,0.0,0.0,0.0,0.0,0.0,0.0,0.0,0.0,0.0,0.0,0.0,0.0,0.0,0.0,0.0,0.0,0.0,0.0,0.0,0.0,0.0,0.0,0.0,0.0,0.0,0.0,0.0,0.0,0.0,2.6917,2.8473,2.7921,2.8825,2.885,0.0,0.0,0.0,0.0,0.0,0.0,0.0,0.0,0.0,3.4399,3.4776,3.5303,3.6107,3.6885,3.7161,3.6887,3.7412,3.7513,3.7287,3.7287,3.7287,3.7262,3.7036,3.5647,3.3399,3.1161,2.9663,2.8626,0.0,0.0,0.0,0.0,2.6581,2.6456,2.7003,2.6925,2.6415,2.5654,0.0,0.0,0.0,0.0,0.0,0.0,0.0,0.0,0.0,0.0,2.3965,2.4629,2.459,2.4434,2.4492,2.3418,2.2051,0.0,2.0117,1.9265,1.7632,0.0,0.0,0.0,0.0,1.8859,1.9516,2.0727,2.1257,2.0567,2.0522,2.0251,1.9542,1.9497,1.9497,1.9497,1.9244,1.9024,1.8912,1.7995,1.6885,0.0,0.0,0.0,0.0,0.0,0.0,0.0,0.0,0.0,0.0,0.0,0.0,0.0,0.0,0.0,0.0,0.0,0.0,0.0,0.0,0.0,0.0,0.0,0.0,0.0,0.0,0.0,0.0,2.8798,3.0156,2.9414,3.0819,3.106,0.0,0.0,0.0,0.0,0.0,0.0,3.3891,3.4324,3.5102,3.631,3.6784,3.731,3.7814,3.8241,3.8442,3.8442,3.8442,3.8442,3.8442,3.8442,3.8442,3.8442,3.8291,3.7764,3.6835,3.3826,3.2389,3.188,3.0646,3.0327,3.0603,3.0155,2.9787,2.9609,3.0223,3.0174,2.9723,2.8675,2.7975,2.7176,2.4917,0.0,0.0,0.0,0.0,2.4887,2.5717,2.5279,2.4709,2.5153,2.5,2.4844,2.5176,2.4883,2.418,0.0,2.209,2.1249,1.9826,0.0,0.0,0.0,0.0,2.0641,2.1043,2.2284,2.2775,2.1854,2.1747,2.1391,2.0494,2.0404,2.0404,2.0404,2.0404,2.0328,2.0139,1.98,1.8911,1.7426,0.0,0.0,0.0,0.0,0.0,0.0,0.0,0.0,0.0,0.0,0.0,0.0,0.0,0.0,0.0,0.0,0.0,0.0,0.0,0.0,0.0,0.0,0.0,0.0,0.0,0.0,0.0,0.0,0.0,3.0658,3.3301,0.0,0.0,0.0,0.0,3.2943,3.3922,3.5027,3.6179,3.6257,3.7036,3.8693,3.8768,3.9019,3.9572,3.9597,3.9597,3.9597,3.9597,3.9597,3.9597,3.9597,3.9597,3.9572,3.9069,3.8844,3.8567,3.6238,3.4731,3.3721,3.3126,3.2918,3.2918,3.29,3.29,3.28,3.2256,3.2056,3.2031,3.1955,3.0713,2.914,2.8858,2.7766,0.0,0.0,2.7615,2.7699,2.6995,2.6777,2.6579,2.5827,2.5635,2.5635,2.5654,2.5352,2.493,0.0,2.3633,2.2953,2.2402,0.0,2.1189,2.1619,2.1756,2.2107,2.2882,2.3018,2.3101,2.3013,2.2994,2.2994,2.2906,2.2906,2.2906,2.2906,2.2906,2.2906,2.2887,2.2524,2.1339,1.9277,1.8064,0.0,0.0,0.0,0.0,0.0,0.0,0.0,0.0,0.0,0.0,0.0,0.0,0.0,0.0,0.0,0.0,0.0,0.0,0.0,0.0,0.0,0.0,0.0,0.0,0.0,0.0,0.0,0.0,3.2767,3.47,0.0,3.3445,3.443,3.5228,3.5248,3.6207,3.7161,3.7989,3.8316,3.8793,3.9371,3.9396,3.9496,3.9697,3.9697,3.9697,3.9697,3.9697,3.9697,3.9697,3.9697,3.9697,3.9697,3.9496,3.9195,3.8869,3.8015,3.681,3.5475,3.4876,3.4449,3.4148,3.4148,3.4148,3.4098,3.3897,3.3822,3.3721,3.2993,3.1805,3.0638,3.0597,3.018,2.9885,3.0379,3.0053,2.9404,2.8698,2.7932,2.7061,2.5974,2.5693,2.5693,2.5693,2.5605,2.5449,2.5245,2.457,2.3652,2.2676,2.2715,2.2656,2.1992,2.2344,2.2769,2.3062,2.3101,2.3101,2.3101,2.3101,2.3101,2.3101,2.3101,2.2984,2.2711,2.2691,2.2617,2.2344,2.2187,2.1634,2.0558,1.9602,1.8043,0.0,0.0,0.0,0.0,0.0,0.0,0.0,0.0,0.0,0.0,0.0,0.0,0.0,0.0,0.0,0.0,0.0,0.0,0.0,0.0,0.0,0.0,0.0,0.0,0.0,0.0,3.5118,3.4519,3.6257,3.691,3.5429,3.6282,3.701,3.7235,3.8065,3.8743,3.912,3.9496,3.9697,3.9697,3.9697,3.9697,3.9697,3.9697,3.9697,3.9697,3.9697,3.9697,3.9697,3.9697,3.9697,3.9697,3.9697,3.9496,3.9145,3.8994,3.8265,3.7184,3.6383,3.5881,3.5529,3.5353,3.5278,3.5253,3.5031,3.4831,3.46,3.3872,3.2993,3.224,3.224,3.2114,3.2039,3.239,3.1914,3.1013,2.9738,2.8819,2.7767,2.611,2.5693,2.5693,2.5693,2.5693,2.5693,2.5693,2.5137,2.4375,2.3516,2.373,2.3672,2.2676,2.3008,2.3257,2.312,2.3101,2.3101,2.3101,2.3101,2.3101,2.3101,2.3101,2.2984,2.2734,2.2598,2.2383,2.2109,2.1816,2.1523,2.121,2.0234,1.916,1.8027,0.0,0.0,0.0,0.0,0.0,0.0,0.0,0.0,0.0,0.0,0.0,0.0,0.0,0.0,0.0,0.0,0.0,0.0,0.0,0.0,0.0,0.0,0.0,3.6203,3.7273,3.7521,3.589,3.804,3.8843,3.6732,3.8417,3.9471,3.8944,3.9396,3.9722,3.9722,3.9747,3.9747,3.9747,3.9722,3.9722,3.9722,3.9697,3.9697,3.9697,3.9697,3.9697,3.9697,3.9697,3.9697,3.9697,3.9697,3.9697,3.9647,3.912,3.8944,3.8844,3.7638,3.7186,3.7111,3.6631,3.643,3.6329,3.5708,3.5157,3.4705,3.4705,3.4374,3.3922,3.3897,3.352,3.3093,3.3093,3.3111,3.2525,3.0079,2.9442,2.8773,2.6332,2.5742,2.5693,2.5693,2.5693,2.5693,2.5693,2.5391,2.5125,2.5106,2.4727,2.4297,2.3867,2.3809,0.0,2.3198,2.312,2.312,2.312,2.3101,2.3101,2.3101,2.3101,2.3081,2.3081,2.2672,2.25,2.25,2.1639,2.121,2.121,1.998,1.9316,1.9297,0.0,0.0,0.0,0.0,0.0,0.0,0.0,0.0,0.0,0.0,0.0,0.0,0.0,0.0,0.0,0.0,0.0,0.0,0.0,0.0,0.0,3.9579,4.0705,3.9458,3.9343,3.9359,3.9342,3.9548,3.9446,3.8843,3.9346,3.9622,3.9471,3.9973,4.03,4.03,4.0676,4.0824,4.0824,4.0501,4.03,4.03,3.9898,3.9697,3.9697,3.9697,3.9697,3.9697,3.9697,3.9697,3.9697,3.9697,3.9697,3.9697,3.9521,3.9471,3.9346,3.8216,3.7538,3.7161,3.701,3.6757,3.638,3.6182,3.578,3.5282,3.5282,3.4906,3.4424,3.4022,3.3796,3.3596,3.3194,3.3111,3.2742,3.1134,3.0033,2.9004,2.7437,2.638,2.5693,2.5693,2.5693,2.5693,2.5693,2.5596,2.5449,2.5165,2.4961,2.4746,2.4316,2.4238,0.0,2.4082,2.3809,2.3613,2.3613,2.3276,2.3101,2.3101,2.3101,2.2964,2.2652,2.2285,2.2051,2.2051,2.1523,2.1346,2.1699,2.0723,2.0096,0.0,0.0,0.0,0.0,0.0,0.0,0.0,0.0,0.0,0.0,0.0,0.0,0.0,0.0,0.0,0.0,0.0,0.0,0.0,0.0,0.0,0.0,4.2222,4.3458,4.3043,4.1826,4.1025,4.1108,4.0311,3.9798,4.0023,4.0049,4.0149,4.0375,4.0676,4.0852,4.0852,4.1125,4.1275,4.1275,4.0974,4.0752,4.0526,4.0199,3.9923,3.9697,3.9697,3.9697,3.9697,3.9697,3.9697,3.9697,3.9697,3.9697,3.9697,3.9697,3.9697,0.0,0.0,0.0,0.0,0.0,3.6835,3.6405,3.6405,3.6157,3.5881,3.5881,3.5504,3.4931,3.4399,3.4073,3.3796,3.3244,3.3111,3.281,3.1533,3.0687,2.9852,2.8634,2.7389,2.6476,2.6476,2.6062,2.5693,2.5693,2.5693,0.0,2.5391,2.5352,2.5195,2.4766,2.4687,2.4629,2.4434,2.4043,2.3789,2.3789,2.3398,2.3101,2.3101,2.3101,0.0,0.0,0.0,2.1992,2.1621,2.1543,0.0,0.0,0.0,0.0,0.0,0.0,0.0,0.0,2.0488,2.0449,0.0,0.0,0.0,0.0,0.0,0.0,0.0,0.0,0.0,0.0,0.0,0.0,0.0,0.0,0.0,0.0,4.4556,4.5663,4.6352,4.433,4.2567,4.1883,4.0693,4.0053,4.045,4.0526,4.0752,4.125,4.1351,4.1376,4.1376,0.0,0.0,0.0,0.0,4.115,4.0701,4.0576,4.0275,3.9798,3.9722,3.9697,3.9697,3.9697,3.9697,3.9697,3.9697,3.9697,3.9697,3.9697,3.9697,3.9647,3.9094,3.8919,3.8793,3.7588,3.6933,3.648,3.643,0.0,0.0,3.6405,3.6031,3.5483,3.4931,3.4424,3.3872,3.3319,3.3162,3.2853,3.1733,3.1311,3.0956,2.9852,2.868,2.7814,2.7814,2.6812,2.5917,2.5917,2.5771,2.5693,2.5693,2.5693,2.5605,2.5195,2.5184,2.5,2.4609,2.4199,2.3926,2.3867,0.0,0.0,2.3101,2.3101,2.3101,2.3101,2.275,2.2185,2.1366,2.1797,2.2031,2.2031,2.2402,2.273,2.3101,2.3101,2.312,2.312,2.1151,2.0937,0.0,0.0,0.0,0.0,0.0,0.0,0.0,0.0,0.0,0.0,0.0,0.0,0.0,0.0,0.0,4.3958,4.5244,4.6352,4.701,4.5783,4.4394,4.3238,4.2035,4.1051,4.0555,4.0526,4.0752,4.125,4.1756,4.2062,4.2062,4.2409,4.266,4.266,4.2233,4.2011,4.1886,4.0953,4.045,4.035,0.0,0.0,3.9697,3.9697,3.9697,3.9697,3.9697,3.9697,3.9697,3.9697,3.9697,3.9647,3.9094,3.8919,3.8793,3.7588,3.7111,3.696,3.6556,3.6405,3.6405,3.6405,3.6329,3.6107,3.5508,3.4956,0.0,3.3897,3.342,3.3025,3.281,3.1952,3.1134,3.0911,2.9943,2.905,2.905,2.8096,2.722,2.722,2.638,2.5693,2.5693,2.5693,2.5654,2.5625,2.5557,2.5538,2.544,2.5098,2.4687,2.4336,2.3926,2.3516,2.312,2.3101,2.3101,2.3101,2.3023,2.275,2.2285,2.2676,2.2847,2.2847,2.2925,2.3023,2.3101,2.3101,2.3276,2.3652,2.2828,2.2832,0.0,0.0,0.0,0.0,0.0,0.0,0.0,0.0,0.0,0.0,0.0,4.1085,0.0,0.0,4.4736,4.6082,4.686,4.7429,4.7758,4.7274,4.6218,4.4638,4.2738,4.166,4.1827,4.1273,4.1279,4.2108,4.2409,4.2615,4.2615,4.2836,4.2986,4.2986,4.271,4.2489,4.2213,4.1329,4.0802,4.0501,3.9948,3.9697,3.9697,3.9697,3.9697,3.9697,3.9697,3.9697,3.9697,3.9697,3.9697,3.9672,3.9396,3.912,3.8768,3.7914,3.7412,3.7111,3.6606,3.6405,3.6405,3.6405,3.6405,3.6304,3.5658,3.5107,3.46,3.4048,3.3495,3.3111,3.3111,3.2612,3.2152,3.2152,3.1178,3.0305,3.0305,2.935,2.8495,2.8495,2.7484,2.6668,2.6668,2.611,2.5693,2.5693,2.5693,2.5693,2.5693,2.5352,2.4902,2.4473,2.4043,2.3613,2.314,2.3101,2.3101,2.3101,2.3101,2.3003,2.2789,2.2984,2.3101,2.3101,2.3101,2.3101,2.3101,2.3359,2.3574,2.3789,2.3789,2.3906,0.0,0.0,0.0,0.0,0.0,0.0,0.0,3.8332,3.9589,4.0397,4.1923,4.3449,4.4496,4.5334,4.6411,4.8027,4.8386,4.8446,4.8297,4.8297,4.7644,4.5956,4.3504,4.2389,4.3508,4.2237,4.189,4.325,4.3129,4.2986,4.2986,4.2986,4.2986,4.2986,4.2986,4.276,4.2363,4.1781,4.1229,4.0676,4.0124,3.9798,3.9697,3.9697,3.9697,3.9697,3.9697,3.9697,3.9697,3.9697,3.9697,3.9697,3.9697,3.9421,3.8969,3.8391,3.7814,3.7262,3.6757,3.6505,3.6405,3.6405,3.6405,3.6329,3.583,3.5282,3.4731,3.4223,3.3671,3.3219,3.3136,3.3111,3.3111,3.3111,3.2326,3.1601,3.1601,3.0643,2.9761,2.9761,2.8773,2.7955,2.7955,2.6887,2.5965,2.5742,2.5693,2.5693,2.5693,2.543,2.5039,2.459,2.416,2.3711,2.314,2.3101,2.3101,2.3101,2.3101,2.3101,2.3101,2.3101,2.3101,2.3101,2.3179,2.3218,2.3218,2.3691,2.3965,2.4043,2.4394,2.4551,3.4173,3.4711,3.5699,3.7494,3.8063,3.908,0.0,4.2991,4.308,4.4377,4.5304,4.5933,4.604,4.713,4.8027,4.8237,4.882,4.9,4.8356,4.8297,4.7983,4.7195,4.484,4.3781,4.4941,4.2788,4.2243,4.4593,4.3657,4.2986,4.2986,4.2986,4.2986,4.2986,4.2986,4.2936,4.2886,4.2389,4.1781,4.1175,4.0701,4.0174,3.9697,3.9697,3.9697,3.9697,3.9697,3.9697,3.9697,3.9697,3.9697,3.9697,3.9697,3.9647,3.9546,3.8969,3.8417,3.7839,3.7287,3.6832,3.6405,3.6405,3.6405,3.6405,3.6329,3.5881,3.5282,3.4731,3.4223,3.3696,3.3194,3.3111,3.3111,3.3111,3.2982,3.2896,3.2896,3.1865,3.1,3.1,3.0033,2.9189,2.9189,2.8168,2.6982,2.5868,2.5693,2.5693,2.5693,2.5635,2.5488,2.5086,2.4609,2.4023,2.3159,2.3101,2.3101,2.3101,2.3101,2.3101,2.3101,2.3101,2.3101,2.3101,2.3516,2.3711,2.3711,2.4141,2.4551,2.4969,2.5028,2.5047,3.7045,3.7853,3.8542,3.9349,4.0696,4.2162,4.3409,4.4107,4.4736,4.5693,4.6441,4.689,4.689,4.7668,4.8416,0.0,4.9404,4.9613,4.8955,4.8865,4.8476,4.7429,4.5734,4.4734,4.5139,4.4249,4.3703,4.383,4.4071,4.3797,4.3042,4.2986,4.2986,4.2986,4.2986,4.2986,4.2986,4.2489,4.1882,4.1275,4.0777,4.0224,3.9697,3.9697,3.9697,3.9697,3.9697,3.9697,3.9697,3.9697,3.9697,3.9697,3.9697,3.9697,3.9622,3.9069,3.8517,3.7914,3.7387,3.6883,3.6405,3.6405,3.6405,3.6405,3.6405,3.5981,3.5458,3.5232,3.4756,3.4324,3.4098,3.3796,3.3545,3.3545,3.3319,3.3111,3.3111,3.2655,3.2326,3.2326,3.1311,3.044,3.044,2.9464,2.8215,2.6982,2.6159,2.5693,2.5693,2.5693,2.5566,2.5117,2.4668,2.418,2.3574,2.3516,2.3418,2.312,2.3101,2.3101,2.3101,2.3101,2.3218,2.3516,2.3691,2.3906,2.416,2.459,2.4883,2.5125,2.5332,2.5449,3.902,4.0038,4.0756,4.1115,4.291,4.4496,4.4186,4.5035,4.5992,4.6501,4.698,4.7309,4.7309,4.7848,4.8506,4.9209,4.9823,5.0002,4.9389,4.9299,4.882,4.7459,4.6506,4.5775,4.5427,4.5149,4.4722,4.3898,4.4382,4.4271,4.3073,4.2986,4.2986,4.2986,4.2986,4.2986,4.2986,4.264,4.2032,4.1275,4.0874,4.0375,3.9697,3.9697,3.9697,3.9697,3.9697,3.9697,3.9697,3.9697,3.9697,3.9697,3.9697,3.9697,3.9647,3.9245,3.8642,3.7939,3.7538,3.696,3.6405,3.6405,3.6405,3.6405,3.6405,3.6081,3.5683,3.5533,3.5207,3.4881,3.4731,3.4424,3.4098,3.3947,3.3596,3.3269,3.3119,3.3111,3.3111,3.3111,3.237,3.1733,3.1733,3.0732,2.9579,2.8727,2.7531,2.6476,2.5791,2.5693,2.5566,2.5117,2.4785,2.4414,2.4004,2.3965,2.3828,2.3471,2.3452,2.3452,2.3452,2.3452,2.3633,2.3965,2.4082,2.4297,2.459,2.5039,2.5254,2.5254,2.5538,2.5752,3.9373,4.0367,4.1654,4.2901,4.4257,4.5424,4.6082,4.6741,4.7249,4.7279,4.7309,4.7309,4.7309,4.7848,4.8506,4.9209,4.9823,5.0002,4.9389,4.9299,4.882,4.7459,4.7266,4.6948,0.0,4.5068,4.4793,4.5926,4.4804,4.3801,4.3048,4.2986,4.2986,4.2986,4.2986,4.2986,4.2986,4.2961,4.2409,4.1275,4.1275,4.0752,3.9697,3.9697,3.9697,3.9697,3.9697,3.9697,3.9697,3.9697,3.9697,3.9697,3.9697,3.9697,3.9697,3.9672,3.8969,3.8015,3.799,3.7262,3.6405,3.6405,3.6405,3.6405,3.6405,3.6405,3.6279,3.5633,3.5483,3.5357,3.4831,3.47,3.453,3.4022,3.3897,3.3721,3.3194,3.3111,3.3111,3.3111,3.3068,3.3025,3.3025,3.1996,3.1134,3.1089,3.0033,2.8402,2.6014,2.5693,2.5566,2.5117,2.5106,2.4863,2.4434,2.4394,2.4394,2.4375,2.4375,2.4375,2.4375,2.4375,2.4375,2.4394,2.4805,2.5086,2.5106,2.5488,2.5674,2.5674,2.5674,2.5957,4.0905,4.2342,4.3539,4.4407,4.5633,4.6681,4.692,4.716,4.7189,4.6741,4.6651,4.6501,4.6052,4.689,4.7848,4.8506,4.9523,5.0106,4.9942,4.9912,4.9434,4.8117,4.7967,0.0,0.0,0.0,0.0,4.615,4.6562,4.651,4.574,4.5714,4.5289,4.4372,4.4318,4.3907,4.3042,4.2986,4.2434,4.1275,4.0601,4.0049,3.9697,3.9697,3.9697,3.9697,3.9697,3.9697,3.9697,3.9697,3.9697,3.9697,3.9697,3.9697,3.9697,3.9697,3.922,3.8517,3.814,3.7513,3.6883,3.6531,3.6405,3.6405,3.6405,3.6405,3.638,3.6132,3.6081,3.6056,3.5855,3.5529,3.5182,3.4981,3.4424,3.3847,3.3671,3.3345,3.3111,3.3111,3.3111,3.3111,3.3111,3.2742,3.2196,3.1311,2.9487,2.7908,2.7078,2.6207,2.5635,2.5527,2.5508,2.5332,2.4883,2.4844,2.4727,2.4434,2.4414,2.4414,2.4414,2.4414,2.4551,2.4844,2.5047,2.5215,2.5508,2.5615,2.5693,2.5693,2.5693,2.5977,4.28,4.4018,4.4885,4.5783,4.6651,4.7309,4.7309,4.713,4.677,4.6082,4.5783,4.5454,4.5035,4.5663,4.6621,4.7758,4.8835,4.9613,4.9853,5.0046,4.9853,4.8775,4.8626,4.8476,0.0,0.0,0.0,4.6616,4.7535,4.7885,4.7118,4.7094,4.6682,4.5767,4.5767,4.5342,4.4481,4.3962,4.2878,4.1275,4.0224,3.9697,3.9697,3.9697,3.9697,3.9697,3.9697,3.9697,3.9697,3.9697,3.9697,3.9697,3.9697,3.9697,3.9697,3.9697,3.9346,3.8844,3.8216,3.7638,3.7086,3.6581,3.6405,3.6405,3.6405,3.6405,3.6405,3.6405,3.6405,3.6405,3.6405,3.6107,3.578,3.5533,3.4956,3.4374,3.3972,3.3621,3.3319,3.3162,3.3111,3.3111,3.3111,3.3111,3.2828,3.1996,3.0169,2.8727,2.833,2.7173,2.638,2.638,2.5965,2.5625,2.5332,2.5312,2.5195,2.4855,2.4836,2.4836,2.4836,2.4836,2.5019,2.5293,2.5312,2.5449,2.5693,2.5693,2.5693,2.5693,2.5849,2.6211,4.4766,4.5334,4.5693,4.698,4.7309,4.7309,4.7279,4.6741,4.6052,4.5304,4.4646,4.4197,0.0,0.0,4.4945,4.683,4.7818,4.8566,4.9269,4.9883,5.0062,0.0,4.9359,0.0,0.0,0.0,0.0,4.746,0.0,4.8032,4.7323,4.7299,4.7299,4.7197,4.7197,4.7146,4.6991,4.5554,4.3642,4.1225,4.0199,3.9697,3.9697,3.9697,3.9697,3.9697,3.9697,3.9697,3.9697,3.9697,3.9697,3.9697,3.9697,3.9697,3.9697,3.9697,3.9346,3.8844,3.8216,3.7638,3.7086,3.6581,3.6405,3.6405,3.6405,3.6405,3.6405,3.6405,3.6405,3.6405,3.6405,3.6405,3.6279,3.5658,3.5508,3.5207,3.4198,3.3972,3.3796,3.3269,3.3187,3.3162,3.3162,3.3136,3.3111,3.3111,3.204,3.0866,2.9624,2.8448,2.7673,2.7673,2.6572,2.5771,2.5771,2.5742,2.5693,2.5693,2.5693,2.5693,2.5693,2.5693,2.5693,2.5693,2.5693,2.5693,2.5693,2.5693,2.5693,2.5732,2.6191,2.6621,4.5035,4.6022,4.689,4.7219,4.7309,4.7189,4.6681,4.6052,4.5095,4.3489,4.301,4.2402,4.0935,4.2671,4.4496,4.5005,4.7279,0.0,4.9883,5.0495,0.0,5.0062,5.0002,4.9793,4.9359,4.9703,0.0,0.0,4.9584,4.9828,5.0162,5.0143,4.9727,4.8688,4.8638,4.7656,4.5555,4.3327,4.1701,4.0727,4.0023,3.9697,3.9697,3.9697,3.9697,3.9697,3.9697,3.9697,3.9697,3.9697,3.9697,3.9697,3.9697,3.9697,3.9697,3.9697,3.9346,3.8844,3.8216,3.7638,3.7086,3.6581,3.6405,3.6405,3.6405,3.6405,3.6405,3.6405,3.6405,3.6405,3.6405,3.6405,3.638,3.6182,3.5855,3.5433,3.5132,3.4756,3.4474,3.4324,3.3972,3.3696,3.3696,3.3345,3.3111,3.3111,3.2828,3.2152,3.0911,2.967,2.8958,2.8958,2.7861,2.7125,2.7125,2.6255,2.5693,2.5693,2.5693,2.5693,2.5693,2.5693,2.5693,2.5693,2.5693,2.5693,2.5693,2.5693,2.5898,2.623,2.6328,2.6797,4.5933,4.6741,4.7309,4.7309,4.7309,4.698,4.5723,4.4915,4.3808,4.1534,4.0846,4.0277,3.917,4.0965,4.288,4.3708,4.6441,0.0,4.9673,5.0631,5.1079,5.0674,5.0614,0.0,5.0152,5.0451,5.0614,0.0,5.0614,5.0794,5.1199,5.1229,5.087,5.0095,5.0095,4.8919,4.6452,4.4759,4.3373,4.2158,4.1631,4.1369,4.1369,4.0794,4.0567,4.0516,0.0,3.9697,3.9697,3.9697,3.9697,3.9697,3.9697,3.9697,3.9697,3.9697,3.9195,3.8442,3.8115,3.7487,3.6832,3.6505,3.6405,3.6405,3.6405,3.6405,3.6405,3.6405,3.6405,3.6405,3.6405,3.6405,3.6405,3.6405,3.6132,3.583,3.5558,3.5257,3.4956,3.4731,3.4474,3.4198,3.3947,3.3646,3.3345,3.3162,3.3111,3.2853,3.2152,3.0956,3.0169,3.0169,2.9096,2.8402,2.8402,2.772,2.7125,2.6572,2.6524,2.6284,2.5742,2.5693,2.5693,2.5693,2.5693,2.5693,2.5693,2.5937,2.6152,2.6406,2.6777,2.7207,4.698,4.7309,4.7309,4.7309,4.7249,4.6651,4.4646,4.3559,4.2303,3.9709,3.8661,3.8212,3.8033,3.932,4.0995,4.2751,4.5394,4.7668,4.912,5.0331,5.1109,5.1199,5.1229,5.1229,5.1229,5.1229,5.1229,5.1229,5.1229,5.1229,5.1229,5.1229,5.1229,5.1229,5.0922,4.994,4.8096,4.7367,4.6044,4.418,4.3704,4.3504,4.3456,4.235,4.1838,4.1789,4.0693,4.0134,3.9929,3.9929,3.9826,3.9697,3.9697,3.9697,3.9697,3.9697,3.9019,3.8115,3.804,3.7337,3.6505,3.643,3.6405,3.6405,3.6405,3.6405,3.6405,3.6405,3.6405,3.6405,3.6405,3.6405,3.6405,3.6405,3.6405,3.6279,3.5708,3.5608,3.5458,3.5027,3.4876,3.4675,3.4198,3.4048,3.3847,3.337,3.3244,3.3237,3.3237,3.2176,3.1444,3.1444,3.035,2.9624,2.9624,2.9487,2.8958,2.7908,2.7814,2.7363,2.6235,2.6062,2.5965,2.5965,2.5791,2.5713,2.5771,2.6211,2.6445,2.6582,2.7376,2.7748,4.7249,4.7309,4.7309,4.7309,4.689,4.5963,4.3988,4.2611,0.0,3.8302,3.7644,3.7255,3.6207,3.8422,4.0696,4.1564,4.4407,4.716,4.906,4.9912,5.0554,0.0,5.1229,5.1229,5.1229,5.1229,0.0,0.0,5.1229,5.1229,5.1229,5.1229,5.1229,5.1229,4.9567,4.8335,4.7557,4.5729,4.4442,4.3642,4.3559,4.3504,4.3504,4.3266,4.317,4.317,4.293,0.0,4.1269,4.1269,4.0642,3.9697,3.9697,3.9697,3.9697,3.9697,3.927,3.8642,3.8165,3.7588,3.696,3.6556,3.6405,3.6405,3.6405,3.6405,3.6405,3.6405,3.6405,3.6405,3.6405,3.6405,3.6405,3.6405,3.6405,3.638,3.6279,3.6254,3.6229,3.6128,3.5705,3.5332,3.5232,3.4831,3.455,3.4449,3.4048,3.3746,3.3746,3.3171,3.2742,3.2742,3.1645,3.0911,3.0911,2.9943,2.9304,2.9096,2.9096,2.9004,2.8773,2.7814,2.7268,2.7268,2.6255,2.5869,2.6269,2.6348,2.6758,2.7493,2.765,2.7851,4.7309,4.7309,4.7309,4.7309,4.68,4.5633,4.294,0.0,0.0,3.7045,3.6417,3.6237,3.5609,3.7345,3.917,4.0187,4.2551,4.5185,4.7878,4.8805,4.9733,5.105,5.1229,5.1229,5.1229,5.1229,5.1229,5.1229,5.1229,5.1229,5.1229,5.1229,5.1229,5.1229,4.9934,4.8975,4.8374,4.7056,4.6068,4.5479,4.5479,4.5479,4.5434,4.4794,4.4489,4.4442,4.3787,4.317,4.2544,4.1887,4.1219,4.0592,3.9981,3.9697,3.9697,3.9697,3.9346,3.8869,3.8542,3.7889,3.7136,3.6933,3.6631,3.6405,3.6405,3.6405,3.6405,3.6405,3.6405,3.6405,3.6405,3.6405,3.6405,3.6405,3.6405,3.6405,3.6405,3.6405,3.6405,3.6405,3.6157,3.5881,3.5533,3.5282,3.5006,3.4731,3.45,3.4324,3.4324,3.3847,3.3395,3.3119,3.2568,3.2196,3.2196,3.1645,3.1045,3.0395,3.035,3.0033,2.9442,2.8866,2.8236,2.7579,2.7208,2.7163,2.7435,2.7221,2.7657,2.8706,2.8239,2.8105,4.7279,4.7309,4.7309,4.7309,4.6591,4.5095,4.2073,4.0666,3.911,3.6118,3.5519,3.5519,3.5519,3.6447,3.7704,3.9134,4.0965,4.3339,4.6621,4.7788,4.8955,5.078,5.1139,0.0,5.1229,5.1229,0.0,5.1229,5.1229,5.1229,5.1229,5.1229,5.1229,5.1229,5.0451,4.9793,4.9299,4.8476,4.7818,4.7309,4.7309,4.7309,4.7266,4.6255,4.5824,4.5734,4.4748,4.4163,4.3834,4.2834,4.2279,4.1887,4.0592,4.0134,4.0083,3.98,3.9421,3.9019,3.8969,3.8291,3.7513,3.7387,3.6958,3.6405,3.6405,3.6405,3.6405,3.6405,3.6405,3.6405,3.6405,3.6405,3.6405,3.6405,3.6405,3.6405,3.6405,3.6405,3.6405,3.6405,3.6405,3.6279,3.578,3.5683,3.5579,3.5152,3.4931,3.4856,3.4856,3.4424,3.3872,3.3319,3.3144,3.3111,3.3111,3.3111,3.2655,3.1689,3.1697,3.1345,3.0399,3.0217,2.9685,2.8773,2.8519,2.846,2.8663,2.8024,2.8321,2.9394,2.8635,2.8301,4.713,4.7309,4.7309,4.7309,4.5903,4.3958,4.1863,0.0,3.8003,3.5938,3.5519,3.5519,3.5519,3.6088,3.7195,3.9074,4.0576,4.2641,4.5963,4.7489,4.8805,5.0106,0.0,0.0,5.1229,5.1229,5.1229,5.1229,5.1229,5.1229,5.1229,5.1229,5.1229,5.1229,5.0002,4.9389,4.9299,4.8027,4.7369,4.7309,4.7309,4.7309,4.7309,4.7149,4.7106,4.7106,4.7019,4.6299,0.0,4.5115,4.4349,4.3218,4.1936,4.1419,4.1269,4.0134,3.9672,3.9546,3.9095,3.8844,3.8617,3.809,3.7211,3.6405,3.6405,3.6405,3.6405,3.6405,3.6405,3.6405,3.6405,3.6405,3.6405,3.6405,3.6405,3.6405,3.6405,3.6405,3.6405,3.6405,3.6405,3.638,3.6355,3.6329,3.6329,3.6254,3.578,3.5433,3.5433,3.4931,3.4424,3.3872,3.337,3.3111,3.3111,3.3111,3.3068,3.2939,3.3389,3.3576,3.3488,3.2895,3.2534,3.2417,3.011,2.9139,2.9581,2.8324,2.7957,2.8436,2.8335,2.8301,4.6531,4.701,4.7309,4.7309,4.5813,4.3808,4.1833,3.9828,3.7853,3.5908,3.5519,3.5519,3.5519,3.5729,3.6417,3.7943,3.8661,4.0157,4.3479,4.5065,4.6681,4.8805,5.0002,0.0,0.0,0.0,5.1229,5.1229,5.1229,5.1229,5.1229,5.1229,5.1229,5.1229,4.9942,4.9299,4.9299,4.7967,4.7309,4.7309,4.7309,4.7309,4.7309,4.7309,4.7309,4.7309,4.7309,4.7019,0.0,4.5734,4.5115,4.4489,4.3266,4.2252,4.1541,4.1019,4.0364,3.9672,3.9446,3.9145,3.8894,3.8592,3.799,3.7287,3.7008,3.6908,3.6784,3.6505,3.6405,3.6405,3.6405,3.6405,3.6405,3.6405,3.6405,3.6405,3.6405,3.6405,3.6405,3.6405,3.6405,3.6405,3.6405,3.6405,3.6405,3.6405,3.6182,3.6031,3.6031,3.5554,3.5082,3.4881,3.4098,3.3571,3.3571,3.3571,3.3721,3.4048,3.4274,3.4399,3.4399,3.4123,3.3628,3.2909,3.2129,3.1851,3.2104,3.1004,3.1011,3.1949,3.1081,3.0721,4.5723,4.6501,4.701,4.701,4.5514,4.3509,4.1534,3.9529,3.7614,3.5878,3.5519,3.5519,3.5519,3.5519,3.5878,3.6956,3.7464,3.8781,4.1961,4.3658,4.5514,4.7997,0.0,5.0212,0.0,5.1063,5.1229,5.1229,5.1229,5.1229,5.1229,5.1229,5.1229,5.1229,4.9942,4.9299,4.9299,4.7967,4.7309,4.7309,4.7309,4.7309,4.7309,4.7309,4.7309,4.7309,4.7309,4.7309,0.0,4.6344,4.5958,4.5824,4.4535,4.3504,4.2689,4.2301,4.1591,4.0844,4.0844,4.0335,3.9675,3.9675,3.917,3.8391,3.7839,3.7437,3.7111,3.6757,3.6531,3.6405,3.6405,3.6405,3.6405,3.6405,3.6405,3.6405,3.6405,3.6405,3.6405,3.6405,3.6405,3.6405,3.6405,3.6405,3.6405,3.6405,3.6405,3.6405,3.6405,3.6031,3.5683,3.5508,3.4806,3.4324,3.4148,3.4148,3.4299,3.47,3.4831,3.4931,3.4931,3.5127,3.481,3.395,3.3815,3.3815,3.3887,3.2822,3.2805,3.3773,3.2733,3.228,4.4766,4.5813,4.6279,4.6279,4.4784,4.2781,4.0846,3.8841,3.7045,3.5759,3.5519,3.5519,3.5519,3.5519,3.5729,3.6387,3.7554,3.932,4.2021,4.4047,4.6022,0.0,0.0,4.9523,5.0136,5.0794,5.1229,5.1229,5.1229,0.0,5.1229,5.1229,5.1229,5.1229,4.9942,4.9299,4.9299,4.7967,4.7309,4.7309,4.7309,4.7309,4.7309,4.7309,4.7309,4.7309,4.7309,4.7309,0.0,4.7309,4.7266,4.7149,4.5869,4.5343,4.5207,4.3929,4.3456,4.3456,4.3456,4.2641,4.1591,4.1591,4.0743,3.9572,3.9019,3.8065,3.7186,3.7186,3.6832,3.6405,3.6405,3.6405,3.6405,3.6405,3.6405,3.6405,3.6405,3.6405,3.6405,3.6405,3.6405,3.6405,3.6405,3.6405,3.6405,3.6405,3.6405,3.6405,3.6405,3.6405,3.6132,3.5558,3.5483,3.5257,3.4731,3.468,3.468,3.468,3.5182,3.5483,3.5483,3.6056,3.638,3.6332,3.5066,3.4385,3.4385,3.3005,3.2331,3.2331,3.228,3.228,4.2615,4.3196,4.3509,4.306,4.1803,4.033,3.929,3.7853,3.6537,3.5699,3.5519,3.5519,3.5519,3.5519,3.6148,3.8182,3.8841,4.0038,4.2701,4.4347,0.0,4.7429,4.9374,5.069,0.0,0.0,5.1229,5.1229,5.1229,5.102,5.0524,5.0495,5.0495,5.0495,4.9703,4.909,4.8596,4.7728,4.7309,4.7309,4.7309,4.7309,4.7309,4.7309,4.7309,0.0,4.7309,4.7309,0.0,4.7309,4.7309,4.7266,4.6887,4.6166,4.5343,4.4978,4.4256,4.3504,4.3504,4.3266,4.2738,4.1887,4.1319,4.0943,4.0811,3.9621,3.8165,3.7412,3.6784,3.6405,3.6405,3.6405,3.6405,3.6405,3.6405,3.6405,3.6405,3.6405,3.6405,3.6405,3.6405,3.6405,3.6405,3.6405,3.6405,3.6405,3.6405,3.6405,3.6405,3.6405,3.6355,3.6132,3.6107,3.5881,3.5282,3.5232,3.5408,3.583,3.6006,3.6107,3.6107,3.6329,3.6405,3.6405,3.5953,3.5763,3.5763,3.5307,3.509,3.509,3.509,3.509,4.1502,4.1863,4.2001,4.1576,4.0444,3.917,3.8242,3.7225,3.6297,3.5639,3.5519,3.5519,3.5519,3.5519,3.6118,3.8003,3.8721,3.9948,4.2641,0.0,0.0,4.7818,0.0,0.0,0.0,5.1079,5.1229,5.1229,5.099,5.0614,5.0226,5.0002,4.9763,4.9494,4.9105,4.8686,4.8297,4.7638,4.7309,4.7309,4.7309,4.7309,4.7309,4.7309,4.7309,4.7309,4.7309,4.7309,0.0,4.7309,4.7309,4.7309,4.7309,4.6814,4.6121,4.6121,4.5598,4.4932,4.4932,4.4627,4.4069,4.3313,4.2689,4.2301,4.2301,4.1048,3.9341,3.7886,3.7086,3.6732,3.6732,3.6556,3.6405,3.6405,3.6405,3.6405,3.6405,3.6405,3.6405,3.6405,3.6405,3.6405,3.6405,3.6405,3.6405,3.6405,3.6405,3.6405,3.6405,3.6405,3.6405,3.6405,3.6405,3.6279,3.5881,3.5855,3.6006,3.638,3.6405,3.6405,3.6405,3.6405,3.6405,3.6405,3.6405,3.6405,3.6405,3.6405,3.6405,3.6405,3.6405,3.6531,0.0,4.1484,4.1399,4.1337,4.0314,3.8958,3.7695,3.6974,0.0,3.5707,3.5587,3.5584,3.5609,3.5609,3.5848,3.6686,3.7823,3.9529,0.0,4.4357,0.0,0.0,4.9883,0.0,5.0255,5.0823,5.1199,5.1139,5.0524,5.0136,5.0046,4.9523,4.894,4.8237,4.8207,4.8207,4.8207,4.7608,4.7309,4.7309,4.7309,4.7309,4.7309,4.7309,4.7309,0.0,4.7309,4.7309,0.0,4.7309,4.7309,4.7309,4.7309,4.7309,4.7309,4.7309,4.7309,4.7309,4.7309,4.655,4.5553,4.5434,4.4581,4.3646,4.3551,4.2235,4.0447,3.8685,3.7761,3.7236,3.7236,3.6908,3.6531,3.6531,3.6531,3.6531,3.6531,3.648,3.6455,3.6455,3.643,3.6405,3.6405,3.6405,3.6405,3.6405,3.6405,3.6405,3.6405,3.6405,3.6405,3.6405,3.6405,3.6405,3.6405,3.6405,3.6405,3.6405,3.6405,3.6405,3.6405,3.6405,3.6405,3.6405,3.6405,3.6405,3.6405,3.6405,3.643,3.6455,3.6455,3.6757,4.0374,0.0,3.9311,3.8803,3.8428,3.8087,0.0,3.7581,3.7274,3.6477,3.6322,3.6471,3.6877,3.6567,3.7135,3.9798,4.0487,4.1594,4.4227,4.677,0.0,4.9239,5.0272,5.0943,5.0943,5.1139,5.102,5.0465,5.0285,4.9747,4.8805,4.8596,4.8207,4.7549,4.7549,4.7549,4.7549,4.7369,4.7309,4.7309,4.7309,4.7309,4.7309,4.7309,4.7309,4.7309,4.7309,4.7309,4.7309,4.7309,4.7309,4.7309,4.7309,4.7309,4.7309,4.7309,4.7309,4.7309,4.7309,4.7106,4.6682,4.5734,4.5207,4.4794,4.3787,4.2235,4.072,4.0297,3.9028,3.7814,3.7814,3.7713,3.7613,3.7613,3.7613,3.7613,3.7613,3.7287,3.6985,3.6985,3.6707,3.6405,3.6405,3.6405,3.6405,3.6405,3.6405,3.6405,3.6405,3.6405,3.6405,3.6405,3.6405,3.6405,3.6405,3.6405,3.6405,3.6405,3.6405,3.6405,3.6405,3.6405,3.6405,3.6405,3.6405,3.6405,3.6405,3.6405,3.6631,3.6985,3.6985,3.7287,4.0113,4.0005,3.9823,3.9462,3.9105,3.8809,3.8809,3.8299,3.7706,3.7233,3.7144,3.7217,3.7445,3.7496,3.8118,4.0171,4.1235,0.0,0.0,0.0,4.9419,4.9673,5.0601,5.1229,0.0,5.0913,5.0584,5.0226,4.9628,4.9045,4.8327,4.7997,4.7668,4.7309,4.7309,4.7309,4.7309,4.7309,4.7309,4.7309,4.7309,4.7309,4.7309,4.7309,4.7309,4.7309,4.7309,4.7309,4.7309,4.7309,4.7309,4.7309,4.7309,4.7309,4.7309,4.7309,4.7309,4.7309,4.7309,4.7309,4.7222,4.6506,4.6255,4.6166,4.5434,4.417,4.2677,4.1506,4.0233,3.9133,3.8541,3.8216,3.8015,3.8015,3.8015,3.8015,3.8015,3.7764,3.7563,3.7563,3.7312,3.7111,3.7111,3.7111,3.7036,3.6784,3.6782,3.6707,3.643,3.6405,3.6405,3.6405,3.6405,3.6405,3.6405,3.6405,3.6405,3.6405,3.6405,3.6405,3.6405,3.6405,3.6405,3.6405,3.6656,3.6782,3.6782,3.6985,3.7262,3.7563,3.7563,3.7864,4.0248,4.0977,4.1607,4.1143,4.059,4.0156,4.0027,3.9062,3.8137,3.7991,3.7879,3.7844,3.8091,3.8456,3.9011,3.9907,4.1618,0.0,4.6741,4.8386,4.9464,5.0032,5.075,0.0,5.1229,5.0584,5.0136,5.0046,4.8955,4.8237,4.8147,4.7608,4.7309,4.7309,4.7309,4.7309,4.7309,4.7309,4.7309,4.7309,4.7309,4.7309,4.7309,4.7309,4.7309,4.7309,0.0,0.0,4.7309,4.7309,4.7309,4.7309,4.7309,4.7309,4.7309,4.7309,4.7309,4.7309,4.7309,4.7309,4.7309,4.7309,4.7309,4.7309,4.7309,4.655,4.5207,4.2834,4.171,4.0976,3.9897,3.9241,3.8809,3.8809,3.8686,3.8538,3.8538,3.8339,3.814,3.814,3.8065,3.8015,3.8015,3.8015,3.7839,3.7387,3.7236,3.7059,3.6606,3.6455,3.6405,3.6405,3.6405,3.6405,3.6405,3.6405,3.6405,3.6405,3.6405,3.6405,3.6405,3.648,3.6531,3.6531,3.7036,3.7312,3.7312,3.7789,3.804,3.814,3.814,3.8442,4.0865,4.251,4.3468,4.0905,4.0632,4.0855,4.0244,3.9908,3.9558,3.8854,3.8218,3.8339,4.0069,3.9779,4.0105,4.2615,4.4061,4.5214,0.0,0.0,4.9329,4.9449,0.0,5.1229,5.1229,5.0584,5.0002,4.9464,4.8716,4.8027,4.7489,4.7369,4.7309,4.7309,4.7309,4.7309,4.7309,4.7309,4.7309,4.7309,4.7309,4.7309,4.7309,4.7309,4.7309,4.7309,0.0,4.7309,4.7309,4.7309,4.7309,4.7309,4.7309,4.7309,4.7309,4.7309,4.7309,4.7309,4.7309,4.7309,4.7309,4.7309,4.7309,4.7309,4.7309,4.7149,4.6682,4.5207,4.4013,4.3033,4.2842,4.2712,4.2658,4.2658,4.1838,4.1057,4.1057,3.9825,3.8743,3.8743,3.8341,3.8015,3.8015,3.8015,3.799,3.7889,3.7487,3.7161,3.7061,3.6707,3.6405,3.6405,3.6405,3.6405,3.6405,3.6405,3.6405,3.6405,3.6405,3.6405,3.6405,3.6857,3.7061,3.7061,3.7588,3.7889,3.7889,3.7965,3.8266,3.8743,3.8743,3.9044,4.0493,4.1644,4.2523,4.1568,4.276,4.4045,4.3267,4.2821,4.2307,4.1513,4.1056,4.112,4.2053,4.243,4.3343,4.557,0.0,4.6082,4.677,4.7938,4.8745,0.0,0.0,5.0152,5.0152,4.9583,4.9075,4.8745,4.8117,4.7638,4.7309,4.7309,4.7309,4.7309,4.7309,4.7309,4.7309,4.7309,4.7309,4.7309,4.7309,4.7309,4.7309,4.7309,4.7309,4.7309,0.0,4.7309,4.7309,4.7309,4.7309,4.7309,4.7309,4.7309,4.7309,4.7309,4.7309,4.7309,4.7309,4.7309,4.7309,4.7309,4.7309,4.7309,4.7309,4.7309,4.7149,4.6594,4.5508,4.4349,4.3693,4.3504,4.3504,4.3504,4.3074,4.2641,4.2641,4.1967,4.1146,4.0506,4.0124,3.9721,3.907,3.8919,3.8818,3.8517,3.8266,3.799,3.7663,3.7136,3.6857,3.6857,3.6581,3.6405,3.6405,3.6405,3.6405,3.6405,3.6681,3.6857,3.6857,3.7337,3.7638,3.7638,3.8191,3.8467,3.8467,3.8768,3.9044,3.932,3.932,3.9446,4.0282,4.0764,4.1373,4.2117,4.391,4.5534,4.5669,4.4993,4.4282,4.4215,4.3906,4.3747,4.4045,4.526,4.6578,4.7949,4.765,4.7327,4.7619,4.8209,4.8544,4.8341,4.891,4.9299,4.9299,4.87,4.8297,4.8297,4.7668,4.7309,4.7309,4.7309,4.7309,4.7309,4.7309,4.7309,4.7309,4.7309,4.7309,4.7309,4.7309,4.7309,4.7309,4.7309,4.7309,4.7309,4.7309,4.7309,4.7309,4.7309,4.7309,4.7309,4.7309,4.7309,4.7309,4.7309,4.7309,4.7309,4.7309,4.7309,4.7309,4.7309,4.7309,4.7309,4.7309,4.7309,4.7309,4.7309,4.6594,4.5644,4.4627,4.4396,4.4396,4.4396,4.4163,4.3929,4.3929,4.3693,4.3218,4.223,4.2035,4.164,4.0364,4.0134,3.988,3.917,3.8994,3.8718,3.8266,3.7713,3.7387,3.7387,3.6985,3.6782,3.6782,3.6782,3.6782,3.6782,3.701,3.7236,3.7362,3.7914,3.8216,3.8216,3.8768,3.912,3.9069,3.9496,3.9697,3.9697,3.9697,3.9697,4.0764,4.117,4.1373,4.2117,4.1948,4.232,4.5094,4.4553,4.4079,4.6143,4.5407,4.487,4.6304,4.7529,4.8546,4.9122,4.9694,4.975,4.8841,0.0,4.9346,4.8399,4.891,4.9299,4.9299,4.87,4.8297,4.8297,4.7668,4.7309,4.7309,4.7309,4.7309,4.7309,4.7309,4.7309,4.7309,4.7309,4.7309,4.7309,4.7309,4.7309,4.7309,4.7309,4.7309,4.7309,4.7309,4.7309,4.7309,4.7309,4.7309,4.7309,4.7309,4.7309,4.7309,4.7309,4.7309,4.7309,4.7309,4.7309,4.7309,4.7309,4.7309,4.7309,4.7309,4.7309,4.7309,4.7309,4.7222,4.7149,4.7062,4.7019,4.7019,4.7019,4.6121,4.5252,4.5252,4.4303,4.3456,4.3361,4.3361,4.2978,4.169,4.1468,4.1069,3.9827,3.9195,3.8894,3.8869,3.8291,3.7939,3.7939,3.7914,3.7889,3.7889,3.7889,3.7889,3.7889,3.7437,3.7412,3.7914,3.8492,3.8869,3.8869,3.9346,3.9647,3.9647,3.9672,3.9697,3.9697,3.9697,3.9697,3.9681,4.0493,4.1373,4.2117,4.2794,4.3842,4.5906,4.665,4.7259,4.8578,4.8394,4.8135,4.8751,4.9459,5.0035,5.0203,5.0327,5.0009,4.8932,4.9017,4.8787,4.7799,4.7908,4.8057,4.8057,4.7818,4.7668,4.7668,4.7429,4.7309,4.7309,4.7309,4.7309,4.7309,4.7309,4.7309,4.7309,4.7309,4.7309,4.7309,4.7309,4.7309,4.7309,4.7309,4.7309,4.7309,4.7309,4.7309,4.7309,4.7309,4.7309,4.7309,4.7309,4.7309,4.7309,4.7309,4.7309,4.7309,4.7309,4.7309,4.7309,4.7309,4.7309,4.7309,4.7309,4.7309,4.7309,4.7309,4.7309,4.7309,4.7309,4.7309,4.7309,4.7309,4.6931,4.6594,4.6594,4.6211,4.5644,4.484,4.4674,4.4256,4.2978,4.2786,4.235,4.1069,4.0713,4.0283,3.9473,3.8894,3.8542,3.8542,3.8216,3.8015,3.8015,3.8015,3.8165,3.8517,3.8341,3.8316,3.8542,3.9094,3.9371,3.9371,3.9597,3.9697,3.9697,3.9697,3.9697,3.9697,3.9697,3.9697,3.9005,3.9749,4.0798,4.1982,4.3464,4.5122,4.7056,4.8274,4.9424,5.0879,5.0777,5.0439,5.0439,5.0726,5.0988,0.0,5.1319,5.1005,4.9938,4.9781,4.9296,4.7904,4.7764,4.7636,4.7352,4.7309,4.7309,4.7309,4.7309,4.7309,4.7309,4.7309,4.7309,4.7309,4.7309,4.7309,4.7309,4.7309,4.7309,4.7309,4.7309,4.7309,4.7309,4.7309,4.7309,4.7309,4.7309,4.7309,4.7309,4.7309,4.7309,4.7309,4.7309,4.7309,4.7309,4.7309,4.7309,4.7309,4.7309,4.7309,4.7309,4.7309,4.7309,4.7309,4.7309,4.7309,4.7309,4.7309,4.7309,4.7309,4.7309,4.7309,4.7309,4.7309,4.7309,4.7309,4.7309,4.7309,4.7019,4.6166,4.6003,4.5598,4.4303,4.4116,4.3693,4.2398,4.223,4.1739,4.0465,3.9981,3.96,3.917,3.8768,3.8542,3.8542,3.8542,3.8718,3.912,3.912,3.912,3.912,3.9496,3.9697,3.9697,3.9697,3.9697,3.9697,3.9697,3.9697,3.9697,3.9697,3.9697,3.8971,3.9005,3.9546,4.1745,4.3498,4.5427,4.8342,4.9018,4.9864,5.2875,5.23,5.1219,5.1185,5.1219,5.1488,5.2198,5.2976,5.311,5.2029,5.1921,5.1155,4.9054,4.8841,4.8388,4.7409,4.7309,4.7309,4.7309,4.7309,4.7309,4.7309,4.7309,4.7309,4.7309,4.7309,4.7309,4.7309,4.7309,4.7309,4.7309,4.7309,4.7309,4.7309,4.7309,4.7309,4.7309,4.7309,4.7309,4.7309,4.7309,4.7309,4.7309,4.7309,4.7309,4.7309,4.7309,4.7309,4.7309,4.7309,4.7309,4.7309,4.7309,4.7309,4.7309,4.7309,4.7309,4.7309,4.7309,4.7309,4.7309,4.7309,4.7309,4.7309,4.7309,4.7309,4.7309,4.7309,4.7309,4.7309,4.7309,4.7309,4.6931,4.5644,4.5389,4.4978,4.3693,4.3504,4.3074,4.1789,4.1591,4.1119,3.9826,3.9697,3.9697,3.9697,3.9697,3.9697,3.9697,3.9697,3.9697,3.9697,3.9697,3.9697,3.9697,3.9697,3.9697,3.9697,3.9697,3.9697,3.9697,3.9697,3.9697,3.8362,3.9749,4.1474,4.2117,4.5026,4.8071,4.9458,5.0168,5.1116,5.3112,5.3145,5.2638,5.2097,5.2435,0.0,5.2367,5.2976,5.311,5.2029,5.1921,5.1414,5.0087,4.9931,4.9813,4.9527,4.88,4.8377,4.8377,4.7679,4.7309,4.7309,4.7309,4.7309,4.7309,4.7309,4.7309,4.7309,4.7309,4.7309,4.7309,4.7309,4.7309,4.7309,4.7309,4.7309,4.7309,4.7309,4.7309,4.7309,4.7309,4.7309,4.7309,4.7309,4.7309,4.7309,4.7309,4.7309,4.7309,4.7309,4.7309,4.7309,4.7309,4.7309,4.7309,4.7309,4.7309,4.7309,4.7309,4.7309,4.7309,4.7309,4.7309,4.7309,4.7309,4.7309,4.7309,4.7309,4.7309,4.7309,4.7309,4.7309,4.7149,4.677,4.6726,4.6299,4.5024,4.484,4.4069,4.1887,4.1591,4.1119,3.9826,3.9697,3.9697,3.9697,3.9697,3.9697,3.9697,3.9697,3.9697,3.9697,3.9697,3.9697,3.9697,3.9697,3.9697,3.9697,3.9697,3.9697,3.9697,3.9697,3.9697,3.8836,4.0493,4.2591,4.3775,4.6549,4.9424,5.1082,5.1792,5.2401,5.3315,5.3247,5.2976,5.2807,5.2909,0.0,5.2807,5.3179,5.328,5.2627,5.2557,5.217,5.1117,5.1005,5.0817,5.0435,4.9813,4.9416,4.9416,0.0,0.0,0.0,4.8543,4.8543,4.8543,4.8543,4.8543,4.8543,4.8115,4.7934,4.7861,4.7495,4.7309,4.7309,4.7309,4.7309,4.7309,4.7309,4.7309,4.7309,4.7309,4.7309,4.7309,4.7309,4.7309,4.7309,4.7309,4.7309,4.7309,4.7309,4.7309,4.7309,4.7309,4.7309,4.7309,4.7309,4.7309,4.7309,4.7309,4.7309,4.7309,4.7309,4.7309,4.7309,4.7309,4.7309,4.7309,4.7309,4.7309,4.7309,4.7309,4.7309,4.7309,4.7309,4.7309,4.7019,4.6255,4.5734,4.484,4.3313,4.2689,4.2084,4.1269,4.1219,4.1219,4.1219,4.1219,4.0969,4.0516,4.0465,4.0211,3.9749,3.9697,3.9697,3.9697,3.9697,3.9697,3.9697,3.9697,3.9697,3.9697,3.9697,3.9697,3.9792,4.117,4.3098,4.6041,4.8071,5.0033,5.2875,5.3518,5.3518,5.3518,5.2909,5.2638,5.3382,5.2909,5.2638,5.3382,5.3518,5.3518,5.3518,5.3518,5.3144,5.217,5.2029,5.1704,5.0779,0.0,0.0,0.0,0.0,0.0,5.0397,5.0397,5.0397,5.0397,5.0397,5.0397,5.0397,4.9416,4.8932,4.8932,4.803,4.7581,4.7581,4.7396,4.7309,4.7309,4.7309,4.7309,4.7309,4.7309,4.7309,4.7309,4.7309,4.7309,4.7309,4.7309,4.7309,4.7309,4.7309,4.7309,4.7309,4.7309,4.7309,4.7309,4.7309,4.7309,4.7309,4.7309,4.7309,4.7309,4.7309,4.7309,4.7309,4.7309,4.7309,4.7309,4.7309,4.7309,4.7309,4.7309,4.7309,4.7309,4.7309,4.7309,4.7309,4.7309,4.6299,4.5553,4.5389,4.4396,4.3646,4.3504,4.3504,4.3504,4.3504,4.3504,4.3026,4.1838,4.1789,4.1269,4.0083,3.9826,3.9697,3.9697,3.9697,3.9697,3.9697,3.9697,3.9697,3.9697,3.9697,3.9697,3.9174,4.117,4.3775,4.6177,4.9221,5.1928,5.3213,5.3518,5.3518,5.3518,5.3382,5.3281,5.3484,5.3382,5.3315,5.3484,5.3518,5.3518,5.3518,5.3518,5.3416,5.3179,5.3144,5.3076,0.0,0.0,0.0,0.0,0.0,0.0,5.0397,5.0397,5.0397,5.0397,5.0397,5.0397,5.0397,5.0165,5.0048,0.0,4.9813,4.9734,4.9655,4.803,4.7309,4.7309,4.7309,4.7309,4.7309,4.7309,4.7309,4.7309,4.7309,4.7309,4.7309,4.7309,4.7309,4.7309,4.7309,4.7309,4.7309,4.7309,4.7309,4.7309,4.7309,4.7309,4.7309,4.7309,4.7309,4.7309,4.7309,4.7309,4.7309,4.7309,4.7309,4.7309,4.7309,4.7309,4.7309,4.7309,4.7309,4.7309,4.7309,4.7309,4.7309,4.7309,4.7062,4.655,4.5553,4.5161,4.4581,4.3598,4.3504,4.3504,4.3504,4.3504,4.3361,4.3122,4.3074,4.2978,4.2689,4.0743,3.9697,3.9697,3.9697,3.9697,3.9697,3.9697,3.9697,3.9697,3.9697,3.9697,3.9343,4.1711,4.4756,4.8071,5.0608,5.2503,5.3315,5.3518,5.3518,5.3518,5.3518,5.3518,5.3518,5.3518,5.3518,5.3518,5.3518,5.3518,5.3518,5.3518,5.3518,5.3518,5.3518,0.0,0.0,0.0,0.0,0.0,0.0,5.1882,5.1882,5.1882,5.1882,5.1882,5.1882,5.1882,5.1882,5.134,5.1117,5.1117,5.0627,5.0397,5.0358,4.9287,4.8501,4.803,4.803,4.7722,4.7309,4.7309,4.7309,4.7309,4.7309,4.7309,4.7309,4.7309,4.7309,4.7309,4.7309,4.7309,4.7309,4.7309,4.7309,4.7309,4.7309,4.7309,4.7309,4.7309,4.7309,4.7309,4.7309,4.7309,4.7309,4.7309,4.7309,4.7309,4.7309,4.7309,4.7309,4.7309,4.7309,4.7309,4.7309,4.7309,4.7309,4.7309,4.7309,4.7062,4.6388,4.6299,4.6077,4.5389,4.5298,4.5298,4.5298,4.5298,4.507,4.4442,4.4396,4.4116,4.3551,4.223,4.1219,4.0592,4.0592,4.0313,3.9697,3.9697,3.9697,3.9697,3.9697,3.9697,3.9014,4.1914,4.5596,4.9796,5.1589,5.2469,5.3145,5.3416,5.3518,5.3518,5.3518,5.3518,5.3518,5.3518,5.3518,5.3518,5.3518,5.3518,5.3518,5.3518,5.3518,5.3518,5.3518,0.0,0.0,0.0,0.0,0.0,0.0,5.3518,5.3518,5.3518,5.3518,5.3518,5.3518,5.3518,5.3518,5.2627,5.2205,5.217,5.1336,5.0962,5.0962,5.0962,5.0242,4.9054,4.8851,4.8335,4.7538,4.7396,4.7309,4.7309,4.7309,4.7309,4.7309,4.7309,4.7309,4.7309,4.7309,4.7309,4.7309,4.7309,4.7309,4.7309,4.7309,4.7309,4.7309,4.7309,4.7309,4.7309,4.7309,4.7309,4.7309,4.7309,4.7309,4.7309,4.7309,4.7309,4.7309,4.7309,4.7309,4.7309,4.7309,4.7309,4.7309,4.7309,4.7309,4.7309,4.7309,4.7309,4.7309,4.7309,4.7309,4.7309,4.7309,4.7309,4.6844,4.5779,4.5734,4.5252,4.421,4.4163,4.3551,4.2252,4.2035,4.1419,4.0364,4.0364,4.0211,4.0032,4.0032,3.9929,3.6343,4.0324,4.5359,4.8511,5.0811,5.2334,5.2435,5.301,5.3518,5.3518,5.3518,5.3518,5.3518,5.3518,5.3518,5.3518,5.3518,5.3518,5.3518,5.3518,5.3518,5.3518,0.0,0.0,0.0,0.0,0.0,0.0,5.3518,5.3518,5.3518,5.3518,5.3518,5.3518,5.3518,5.3518,5.3518,5.3348,5.3314,5.328,5.3144,5.3076,5.3076,5.3076,5.2026,5.0126,4.9175,4.8718,4.8512,4.7636,4.7309,4.7309,4.7309,4.7309,4.7309,4.7309,4.7309,4.7309,4.7309,4.7309,4.7309,4.7309,4.7309,4.7309,4.7309,4.7309,4.7309,4.7309,4.7309,4.7309,4.7309,4.7309,4.7309,4.7309,4.7309,4.7309,4.7309,4.7309,4.7309,4.7309,4.7309,4.7309,4.7309,4.7309,4.7309,4.7309,4.7309,4.7309,4.7309,4.7309,4.7309,4.7309,4.7309,4.7309,4.7309,4.7309,4.7222,4.7062,4.7062,4.6975,4.677,4.677,4.6211,4.4932,4.3834,4.317,4.2978,4.2978,4.2398,4.1369,4.1369,4.0743,3.8231,4.1223,4.4592,4.8128,4.9729,5.0676,5.1522,5.1961,5.2334,5.2739,5.2841,5.2976,5.3416,5.3518,5.3518,5.3518,5.3518,5.3518,5.3518,5.3518,5.3518,5.3518,0.0,0.0,0.0,0.0,0.0,0.0,5.3518,5.3518,5.3518,5.3518,5.3518,5.3518,5.3518,5.3518,5.3518,5.3518,5.3518,5.3518,5.3518,5.3518,5.3518,5.3518,5.2662,5.1192,5.0747,5.0211,4.9655,4.9206,4.9044,4.8963,4.8377,4.8157,4.8072,4.7495,4.7309,4.7309,4.7309,4.7309,4.7309,4.7309,4.7309,4.7309,4.7309,4.7309,4.7309,4.7309,4.7309,4.7309,4.7309,4.7309,4.7309,4.7309,4.7309,4.7309,4.7309,4.7309,4.7309,4.7309,4.7309,4.7309,4.7309,4.7309,4.7309,4.7309,4.7309,4.7309,4.7309,4.7309,4.7309,4.7309,4.7309,4.7309,4.7309,4.7309,4.7309,4.7309,4.7309,4.7309,4.7309,4.7309,4.7019,4.6506,4.5207,4.421,4.3504,4.3504,4.3218,4.2641,4.2641,4.1985,3.9232,4.1087,4.2865,4.68,4.8124,4.8849,5.0304,5.0811,5.115,0.0,5.2164,5.2469,5.3078,5.3382,5.3518,5.3518,5.3518,5.3518,5.3518,5.3518,5.3518,0.0,0.0,0.0,0.0,0.0,0.0,0.0,5.3518,5.3518,5.3518,5.3518,5.3518,5.3518,5.3518,5.3518,5.3518,5.3518,5.3518,5.3518,5.3518,5.3518,5.3518,5.3518,5.3076,5.2277,5.2029,5.1451,5.0741,5.0512,5.0397,5.032,4.9536,4.9215,4.9054,4.8072,4.7679,4.7636,4.7366,4.7309,4.7309,4.7309,4.7309,4.7309,4.7309,4.7309,4.7309,4.7309,4.7309,4.7309,4.7309,4.7309,4.7309,4.7309,4.7309,4.7309,4.7309,4.7309,4.7309,4.7309,4.7309,4.7309,4.7309,4.7309,4.7309,4.7309,4.7309,4.7309,4.7309,4.7309,4.7309,4.7309,4.7309,4.7309,4.7309,4.7309,4.7309,4.7309,4.7309,4.7309,4.7309,4.7309,4.7309,4.7309,4.6344,4.5389,4.4442,4.4442,4.4303,4.3975,4.3646,4.2834,3.679,3.8212,3.9652,4.3501,4.5719,4.7293,4.8781,4.9661,5.0371,5.1116,5.1826,5.23,5.2367,5.2976,5.3518,5.3518,5.3518,5.3518,5.3518,5.3518,5.3518,0.0,0.0,0.0,0.0,0.0,0.0,0.0,5.3518,5.3518,5.3518,5.3518,5.3518,5.3518,5.3518,5.3518,5.3518,5.3518,5.3518,5.3518,5.3518,5.3518,5.3518,5.3518,5.345,5.3348,5.2348,5.1885,5.1776,5.0779,5.0397,5.0397,5.032,5.032,5.0204,4.9094,4.8718,4.8594,4.7636,4.7309,4.7309,4.7309,4.7309,4.7309,4.7309,4.7309,4.7309,4.7309,4.7309,4.7309,4.7309,4.7309,4.7309,4.7309,4.7309,4.7309,4.7309,4.7309,4.7309,4.7309,4.7309,4.7309,4.7309,4.7309,4.7309,4.7309,4.7309,4.7309,4.7309,4.7309,4.7309,4.7309,4.7309,4.7309,4.7309,4.7309,4.7309,4.7309,4.7309,4.7309,4.7309,4.7309,4.7309,4.7309,4.7222,4.7149,4.7106,4.7106,4.6506,4.5252,4.4069,4.2834,3.6098,3.7972,4.0044,4.2178,4.3932,4.5439,4.6603,4.7834,4.8917,4.9661,5.0371,5.1014,5.1522,5.2638,5.3518,5.3518,5.3518,5.3518,5.3518,5.3518,0.0,0.0,0.0,0.0,0.0,0.0,0.0,0.0,0.0,5.3518,5.3518,5.3518,5.3518,5.3518,5.3518,5.3518,5.3518,5.3518,5.3518,5.3518,5.3518,5.3518,5.3518,5.3518,5.3518,5.3484,5.311,5.2904,5.2904,5.2522,5.2381,5.2345,5.1631,5.134,5.1229,5.0204,4.9376,4.8759,4.8418,4.7849,4.7309,4.7309,4.7309,4.7309,4.7309,4.7309,4.7309,4.7309,4.7309,4.7309,4.7309,4.7309,4.7309,4.7309,4.7309,4.7309,4.7309,4.7309,4.7309,4.7309,4.7309,4.7309,4.7309,4.7309,4.7309,4.7309,4.7309,4.7309,4.7309,4.7309,4.7309,4.7309,4.7309,4.7309,4.7309,4.7309,4.7309,4.7309,4.7309,4.7309,4.7309,4.7309,4.7309,4.7309,4.7309,4.7309,4.7309,4.7309,4.7062,4.6594,4.5298,4.4489,3.54,3.7113,3.9386,4.1262,4.2009,4.2865,4.5132,4.6045,4.6752,4.8003,4.9052,4.9965,5.071,5.1894,5.2807,5.3078,5.3112,5.3179,5.345,5.3518,0.0,0.0,0.0,0.0,0.0,0.0,0.0,0.0,0.0,0.0,5.3518,5.3518,5.3382,5.3112,5.2875,5.2841,5.3078,5.3112,5.3247,5.3518,5.3518,5.3518,5.3518,5.3518,5.3518,5.3518,5.3518,5.3518,5.3518,5.3518,5.3518,5.3416,5.2731,5.2418,5.2312,5.1266,5.0474,4.9781,4.9456,4.8636,4.7807,4.7807,4.7581,4.7309,4.7309,4.7309,4.7309,4.7309,4.7309,4.7309,4.7309,4.7309,4.7309,4.7309,4.7309,4.7309,4.7309,4.7309,4.7309,4.7309,4.7309,4.7309,4.7309,4.7309,4.7309,4.7309,4.7309,4.7309,4.7309,4.7309,4.7309,4.7309,4.7309,4.7309,4.7309,4.7309,4.7309,4.7309,4.7309,4.7309,4.7309,4.7309,4.7309,4.7309,4.7309,4.7309,4.7309,4.7309,4.7309,4.7266,4.5958,4.5161,0.0,0.0,0.0,4.0508,3.9923,3.9721,4.4325,0.0,4.3978,4.6244,4.7868,4.912,4.9898,5.0642,5.1352,5.2097,5.2266,5.257,5.3348,5.345,0.0,0.0,0.0,0.0,0.0,0.0,0.0,0.0,5.3518,5.3518,5.3518,5.3484,5.3112,5.23,5.1589,5.1555,5.2266,5.2266,5.2672,5.345,5.345,5.3484,5.3518,5.3518,5.3518,5.3518,5.3518,5.3518,5.3518,5.3518,5.3518,5.3518,5.3518,5.3518,5.3382,5.2312,5.1921,5.1776,5.0779,4.9734,4.8882,4.8882,4.8198,4.7352,4.7352,4.7309,4.7309,4.7309,4.7309,4.7309,4.7309,4.7309,4.7309,4.7309,4.7309,4.7309,4.7309,4.7309,4.7309,4.7309,4.7309,4.7309,4.7309,4.7309,4.7309,4.7309,4.7309,4.7309,4.7309,4.7309,4.7309,4.7309,4.7309,4.7309,4.7309,4.7309,4.7309,4.7309,4.7309,4.7309,4.7309,4.7309,4.7309,4.7309,4.7309,4.7309,4.7309,4.7309,4.7309,4.7266,4.6032,4.4794,3.6113,0.0,0.0,0.0,0.0,0.0,0.0,0.0,4.292,4.4834,4.5529,4.6346,4.8173,4.868,4.9255,5.0507,5.115,5.1792,5.2536,0.0,0.0,0.0,0.0,0.0,0.0,0.0,0.0,0.0,5.3518,5.3518,5.3518,5.2942,5.23,5.1555,5.1319,5.1319,5.1522,5.1522,5.1894,5.2638,5.2638,5.2942,5.3518,5.3518,5.3518,5.3518,5.3518,5.3518,5.3518,5.3518,5.3518,5.3518,5.3518,5.3518,5.345,5.3144,5.2557,5.1849,5.1561,5.0817,4.997,4.997,4.9215,4.8377,4.8377,4.7861,4.7309,4.7309,4.7309,4.7309,4.7309,4.7309,4.7309,4.7309,4.7309,4.7309,4.7309,4.7309,4.7309,4.7309,4.7309,4.7309,4.7309,4.7309,4.7309,4.7309,4.7309,4.7309,4.7309,4.7309,4.7309,4.7309,4.7309,4.7309,4.7309,4.7309,4.7309,4.7309,4.7309,4.7309,4.7309,4.7309,4.7309,4.7309,4.7309,4.7309,4.7309,4.7309,4.7309,4.7309,4.6931,4.6121,3.7176,3.8337,3.9873,3.9703,0.0,0.0,4.1314,4.1254,4.1296,0.0,4.3876,4.4688,4.665,4.6959,4.7496,4.8951,4.956,5.0304,5.1657,0.0,0.0,0.0,0.0,0.0,0.0,5.3518,5.3518,5.3518,5.3518,5.3348,5.301,5.1961,5.1183,5.0744,5.0439,5.0439,5.0744,5.0744,5.1285,5.23,5.23,5.2739,5.3518,5.3518,5.3518,5.3518,5.3518,5.3518,5.3518,5.3518,5.3518,5.3518,5.3518,5.3518,5.3518,5.3518,5.311,5.2557,5.2557,5.1885,5.1005,5.1005,5.032,4.9376,4.8932,4.8418,4.7849,4.7409,4.7309,4.7309,4.7309,4.7309,4.7309,4.7309,4.7309,4.7309,4.7309,4.7309,4.7309,4.7309,4.7309,4.7309,4.7309,4.7309,4.7309,4.7309,4.7309,4.7309,4.7309,4.7309,4.7309,4.7309,4.7309,4.7309,4.7309,4.7309,4.7309,4.7309,4.7309,4.7309,4.7309,4.7309,4.7309,4.7309,4.7309,4.7309,4.7309,4.7309,4.7309,4.7309,4.7309,4.6931,3.8146,3.8951,4.0386,4.1829,3.9949,0.0,4.1958,4.0803,3.9666,0.0,4.2569,4.3464,4.5326,4.5575,4.6021,4.7382,4.7687,4.8504,0.0,0.0,0.0,0.0,0.0,0.0,5.3382,5.345,5.3518,5.3518,5.3416,5.2976,5.2097,5.0811,5.0067,4.9965,4.9357,4.9323,4.9965,4.9965,5.0676,5.2063,5.2063,5.2503,5.3382,5.3382,5.3416,5.3518,5.3518,5.3518,5.3518,5.3518,5.3518,5.3518,5.3518,5.3518,5.3518,5.3518,5.3518,5.3518,5.3518,5.287,5.2065,5.2065,5.1377,5.0397,4.9456,4.8973,4.8594,4.7551,4.7309,4.7309,4.7309,4.7309,4.7309,4.7309,4.7309,4.7309,4.7309,4.7309,4.7309,4.7309,4.7309,4.7309,4.7309,4.7309,4.7309,4.7309,4.7309,4.7309,4.7309,4.7309,4.7309,4.7309,4.7309,4.7309,4.7309,4.7309,4.7309,4.7309,4.7309,4.7309,4.7309,4.7309,4.7309,4.7309,4.7309,4.7309,4.7309,4.7309,4.7309,4.7309,4.7309,4.7309,4.0533,4.0754,4.1143,4.1306,0.0,0.0,4.0832,4.0095,3.9947,0.0,4.0776,4.0957,4.4544,4.4852,4.4862,4.5731,4.6384,4.7598,0.0,0.0,0.0,0.0,0.0,0.0,5.2536,5.3112,5.3518,5.3518,5.2909,5.1961,5.0608,5.0236,4.983,4.9221,4.9086,4.9086,4.9221,4.9221,4.9661,5.0507,5.0507,5.1217,5.2536,5.2536,5.2875,5.3518,5.3518,5.3518,5.3518,5.3518,5.3518,5.3518,5.3518,5.3518,5.3518,5.3518,5.3518,5.3518,5.3518,5.3348,5.3179,5.3179,5.2487,5.1561,5.1377,5.0133,4.8594,4.7551,4.7309,4.7309,4.7309,4.7309,4.7309,4.7309,4.7309,4.7309,4.7309,4.7309,4.7309,4.7309,4.7309,4.7309,4.7309,4.7309,4.7309,4.7309,4.7309,4.7309,4.7309,4.7309,4.7309,4.7309,4.7309,4.7309,4.7309,4.7309,4.7309,4.7309,4.7309,4.7309,4.7309,4.7309,4.7309,4.7309,4.7309,4.7309,4.7309,4.7309,4.7309,4.7309,4.7309,4.7309,4.1127,4.1447,4.2137,4.2414,0.0,0.0,0.0,4.1066,4.0562,4.2058,4.0981,4.0769,4.4001,0.0,4.3108,4.4595,4.4921,4.5521,0.0,0.0,0.0,0.0,0.0,0.0,5.1758,5.2131,5.2367,5.2367,5.1657,5.0879,5.0135,4.9729,4.939,4.9018,4.9018,4.9018,4.9018,4.9018,4.9357,5.0101,5.0101,5.0879,5.23,5.23,5.2739,5.3518,5.3518,5.3518,5.3518,5.3518,5.3518,5.3518,5.3518,5.3518,5.3518,5.3518,5.3518,5.3518,5.3518,5.3518,5.3518,5.3518,5.3144,5.2592,5.2065,5.0442,4.8718,4.8168,4.7679,4.7309,4.7309,4.7309,4.7309,4.7309,4.7309,4.7309,4.7309,4.7309,4.7309,4.7309,4.7309,4.7309,4.7309,4.7309,4.7309,4.7309,4.7309,4.7309,4.7309,4.7309,4.7309,4.7309,4.7309,4.7309,4.7309,4.7309,4.7309,4.7309,4.7309,4.7309,4.7309,4.7309,4.7309,4.7309,4.7309,4.7309,4.7309,4.7309,4.7309,4.7309,4.7309,4.7309,0.0,0.0,0.0,0.0,0.0,4.2757,0.0,0.0,0.0,4.2608,4.1674,0.0,0.0,0.0,0.0,0.0,0.0,0.0,0.0,0.0,0.0,0.0,0.0,0.0,5.0543,5.071,5.0845,5.098,5.0168,4.9729,4.9864,4.9323,4.9018,4.9018,4.9018,4.9018,4.9018,4.9018,4.9289,4.9864,4.9864,5.0642,5.2097,5.2097,5.2604,5.3518,5.3518,5.3518,5.3518,5.3518,5.3518,5.3518,5.3518,5.3518,5.3518,5.3518,5.3518,5.3518,5.3518,5.3518,5.3518,5.3518,5.3518,5.3314,5.2241,5.0595,4.9054,4.8882,4.8072,4.7309,4.7309,4.7309,4.7309,4.7309,4.7309,4.7309,4.7309,4.7309,4.7309,4.7309,4.7309,4.7309,4.7309,4.7309,4.7309,4.7309,4.7309,4.7309,4.7309,4.7309,4.7309,4.7309,4.7309,4.7309,4.7309,4.7309,4.7309,4.7309,4.7309,4.7309,4.7309,4.7309,4.7309,4.7309,4.7309,4.7309,4.7309,4.7309,4.7309,4.7309,4.7309,4.7309,0.0,0.0,0.0,0.0,4.5535,0.0,0.0,0.0,4.2536,4.2411,0.0,0.0,0.0,0.0,0.0,0.0,0.0,0.0,0.0,0.0,0.0,0.0,0.0,0.0,0.0,4.8883,4.9526,5.0168,4.8951,4.8443,4.9086,4.9052,4.9018,4.9018,4.9018,4.9018,4.9018,4.9018,4.9052,4.912,4.912,4.9898,5.132,5.132,5.2131,5.3518,5.3518,5.3518,5.3518,5.3518,5.3518,5.3518,5.3518,5.3518,5.3518,5.3518,5.3518,5.3518,5.3518,5.3518,5.3518,5.3518,5.3518,5.3314,5.2241,5.1117,5.0009,4.9054,4.8072,4.7309,4.7309,4.7309,4.7309,4.7309,4.7309,4.7309,4.7309,4.7309,4.7309,4.7309,4.7309,4.7309,4.7309,4.7309,4.7309,4.7309,4.7309,4.7309,4.7309,4.7309,4.7309,4.7309,4.7309,4.7309,4.7309,4.7309,4.7309,4.7309,4.7309,4.7309,4.7309,4.7309,4.7309,4.7309,4.7309,4.7309,4.7309,4.7309,4.7309,4.7309,4.7309,4.7309,0.0,0.0,0.0,0.0,0.0,0.0,4.4121,0.0,4.3286,0.0,0.0,0.0,0.0,0.0,0.0,0.0,4.245,0.0,0.0,0.0,0.0,0.0,0.0,0.0,0.0,0.0,0.0,0.0,4.7597,4.7597,4.8342,4.8781,4.9018,4.9018,4.9018,4.9018,4.9018,4.9018,4.9018,4.9018,4.9018,4.9796,5.1185,5.1185,5.2063,5.3518,5.3518,5.3518,5.3518,5.3518,5.3518,5.3518,5.3518,5.3518,5.3518,5.3518,5.3518,5.3518,5.3518,5.3518,5.3518,5.3518,5.3518,5.3416,5.2939,5.1667,5.032,4.9852,4.8543,4.7309,4.7309,4.7309,4.7309,4.7309,4.7309,4.7309,4.7309,4.7309,4.7309,4.7309,4.7309,4.7309,4.7309,4.7309,4.7309,4.7309,4.7309,4.7309,4.7309,4.7309,4.7309,4.7309,4.7309,4.7309,4.7309,4.7309,4.7309,4.7309,4.7309,4.7309,4.7309,4.7309,4.7309,4.7309,4.7309,4.7309,4.7309,4.7309,4.7309,4.7309,4.7309,4.7309,4.3897,0.0,0.0,0.0,0.0,0.0,0.0,0.0,0.0,0.0,0.0,0.0,0.0,0.0,0.0,0.0,0.0,4.2291,0.0,0.0,0.0,0.0,0.0,0.0,0.0,0.0,0.0,0.0,0.0,4.6481,4.7804,4.8409,4.8815,4.8984,4.9018,4.9018,4.9018,4.9018,4.9018,4.9018,4.9018,4.9796,5.1185,5.1185,5.2063,5.3518,5.3518,5.3518,5.3518,5.3518,5.3518,5.3518,5.3518,5.3518,5.3518,5.3518,5.3518,5.3518,5.3518,5.3518,5.3518,5.3518,5.3518,5.3518,5.3518,5.2241,5.0741,5.0474,4.9085,4.7636,4.7396,4.7309,4.7309,4.7309,4.7309,4.7309,4.7309,4.7309,4.7309,4.7309,4.7309,4.7309,4.7309,4.7309,4.7309,4.7309,4.7309,4.7309,4.7309,4.7309,4.7309,4.7309,4.7309,4.7309,4.7309,4.7309,4.7309,4.7309,4.7309,4.7309,4.7309,4.7309,4.7309,4.7309,4.7309,4.7309,4.7309,4.7309,4.7309,4.7309,4.7309,4.7309,0.0,0.0,0.0,4.5573,0.0,0.0,0.0,0.0,4.5369,0.0,0.0,0.0,0.0,0.0,0.0,0.0,0.0,0.0,0.0,0.0,0.0,0.0,0.0,0.0,0.0,0.0,4.3335,0.0,4.4322,0.0,4.7736,4.7906,4.8244,4.8984,4.9018,4.9018,4.9018,4.9018,4.9018,4.9018,4.9018,4.9796,5.1185,5.1185,5.2063,5.3518,5.3518,5.3518,5.3518,5.3518,5.3518,5.3518,5.3518,5.3518,5.3518,5.3518,5.3518,5.3518,5.3518,5.3518,5.3518,5.3518,5.3518,5.3518,5.3518,5.2697,5.1667,5.0665,4.9615,4.8512,4.7538,4.7309,4.7309,4.7309,4.7309,4.7309,4.7309,4.7309,4.7309,4.7309,4.7309,4.7309,4.7309,4.7309,4.7309,4.7309,4.7309,4.7309,4.7309,4.7309,4.7309,4.7309,4.7309,4.7309,4.7309,4.7309,4.7309,4.7309,4.7309,4.7309,4.7309,4.7309,4.7309,4.7309,4.7309,4.7309,4.7309,4.7309,4.7309,4.7309,4.7309,4.7309,0.0,0.0,4.8993,4.662,0.0,0.0,0.0,0.0,0.0,0.0,0.0,0.0,0.0,0.0,0.0,0.0,0.0,0.0,0.0,0.0,0.0,0.0,0.0,0.0,0.0,0.0,0.0,0.0,4.368,0.0,4.6346,4.7365,4.8007,4.8244,4.8748,4.9018,4.9018,4.9018,4.9018,4.9018,4.9018,4.9796,5.1185,5.1185,5.2063,5.3518,5.3518,5.3518,5.3518,5.3518,5.3518,5.3518,5.3518,5.3518,5.3518,5.3518,5.3518,5.3518,5.3518,5.3518,5.3518,5.3518,5.3518,5.3518,5.3518,5.2765,5.1704,5.0665,4.9615,4.8553,4.7581,4.7309,4.7309,4.7309,4.7309,4.7309,4.7309,4.7309,4.7309,4.7309,4.7309,4.7309,4.7309,4.7309,4.7309,4.7309,4.7309,4.7309,4.7309,4.7309,4.7309,4.7309,4.7309,4.7309,4.7309,4.7309,4.7309,4.7309,4.7309,4.7309,4.7309,4.7309,4.7309,4.7309,4.7309,4.7309,4.7309,4.7309,4.7309,4.7309,4.7309,4.7309,4.8173,4.9005,0.0,4.8082,4.809,0.0,4.6091,0.0,0.0,0.0,0.0,0.0,0.0,0.0,0.0,0.0,0.0,0.0,0.0,4.3196,0.0,0.0,0.0,0.0,0.0,0.0,4.1305,4.2557,4.2598,0.0,0.0,4.6481,4.7331,4.7872,4.8612,4.9018,4.9018,4.9018,4.9018,4.9018,4.9018,4.9796,5.1185,5.1185,5.2063,5.3518,5.3518,5.3518,5.3518,5.3518,5.3518,5.3518,5.3518,5.3518,5.3518,5.3518,5.3518,5.3518,5.3518,5.3518,5.3518,5.3518,5.3518,5.3518,5.3518,5.3041,5.2241,5.1229,5.0204,4.9135,4.8115,4.7581,4.7309,4.7309,4.7309,4.7309,4.7309,4.7309,4.7309,4.7309,4.7309,4.7309,4.7309,4.7309,4.7309,4.7309,4.7309,4.7309,4.7309,4.7309,4.7309,4.7309,4.7309,4.7309,4.7309,4.7309,4.7309,4.7309,4.7309,4.7309,4.7309,4.7309,4.7309,4.7309,4.7309,4.7309,4.7309,4.7309,4.7309,4.7309,4.7309,4.7309]}]]